[[{"header":{"parameterUnit":"m.s-1","parameterCategory":1,"la1":30.6,"la2":28.766,"lo1":-90.7593,"lo2":-88.6598,"dy":0.0162,"dx":0.0183,"nx":116,"ny":114,"refTime":"2023-03-05T18:00:00:Z","depth":0,"parameterNumber":2,"parameterNumberName":"U-component_of_WINDS"},"data":[0.0,0.0,0.0,0.0,0.0,0.0,0.0,0.0,0.0,0.0,0.0,0.0,0.0,0.0,0.0,0.0,0.0,0.0,0.0,0.0,0.0,0.0,0.0,0.0,0.0,0.0,0.0,0.0,0.0,0.0,0.0,0.0,0.0,0.0,0.0,0.0,0.0,0.0,0.0,0.0,0.0,0.0,0.0,0.0,0.0,0.0,0.0,0.0,0.0,0.0,0.0,0.0,0.0,0.0,0.0,0.0,0.0,0.0,0.0,0.0,0.0,0.0,0.0,0.0,0.0,0.0,0.0,0.0,0.0,0.0,0.0,0.0,0.0,0.0,0.0,0.0,0.0,0.0,0.0,0.0,0.0,0.0,0.0,0.0,0.0,0.0,0.0,0.0,0.0,0.0,0.0,0.0,0.0,0.0,0.0,0.0,0.0,0.0,0.0,0.0,0.0,0.0,0.0,0.0,0.0,0.0,0.0,0.0,0.0,0.0,0.0,0.0,0.0,0.0,0.0,0.0,0.0,0.0,0.0,0.0,0.0,0.0,0.0,0.0,0.0,0.0,0.0,0.0,0.0,0.0,0.0,0.0,0.0,0.0,0.0,0.0,0.0,0.0,0.0,0.0,0.0,0.0,0.0,0.0,0.0,0.0,0.0,0.0,0.0,0.0,0.0,0.0,0.0,0.0,0.0,0.0,0.0,0.0,0.0,0.0,0.0,0.0,0.0,0.0,0.0,0.0,0.0,0.0,0.0,0.0,0.0,0.0,0.0,0.0,0.0,0.0,0.0,0.0,0.0,0.0,0.0,0.0,0.0,0.0,0.0,0.0,0.0,0.0,0.0,0.0,0.0,0.0,0.0,0.0,0.0,0.0,0.0,0.0,0.0,0.0,0.0,0.0,0.0,0.0,0.0,0.0,0.0,0.0,0.0,0.0,0.0,0.0,0.0,0.0,0.0,0.0,0.0,0.0,0.0,0.0,0.0,0.0,0.0,0.0,0.0,0.0,0.0,0.0,0.0,0.0,0.0,0.0,0.0,0.0,0.0,0.0,0.0,0.0,0.0,0.0,0.0,0.0,0.0,0.0,0.0,0.0,0.0,0.0,0.0,0.0,0.0,0.0,0.0,0.0,0.0,0.0,0.0,0.0,0.0,0.0,0.0,0.0,0.0,0.0,0.0,0.0,0.0,0.0,0.0,0.0,0.0,0.0,0.0,0.0,0.0,0.0,0.0,0.0,0.0,0.0,0.0,0.0,0.0,0.0,0.0,0.0,0.0,0.0,0.0,0.0,0.0,0.0,0.0,0.0,0.0,0.0,0.0,0.0,0.0,0.0,0.0,0.0,0.0,0.0,0.0,0.0,0.0,0.0,0.0,0.0,0.0,0.0,0.0,0.0,0.0,0.0,0.0,0.0,0.0,0.0,0.0,0.0,0.0,0.0,0.0,0.0,0.0,0.0,0.0,0.0,0.0,0.0,0.0,0.0,0.0,0.0,0.0,0.0,0.0,0.0,0.0,0.0,0.0,0.0,0.0,0.0,0.0,0.0,0.0,0.0,0.0,0.0,0.0,0.0,0.0,0.0,0.0,0.0,0.0,0.0,0.0,0.0,0.0,0.0,0.0,0.0,0.0,0.0,0.0,0.0,0.0,0.0,0.0,0.0,0.0,0.0,0.0,0.0,0.0,0.0,0.0,0.0,0.0,0.0,0.0,0.0,0.0,0.0,0.0,0.0,0.0,0.0,0.0,0.0,0.0,0.0,0.0,0.0,0.0,0.0,0.0,0.0,0.0,0.0,0.0,0.0,0.0,0.0,0.0,0.0,0.0,0.0,0.0,0.0,0.0,0.0,0.0,0.0,0.0,0.0,0.0,0.0,0.0,0.0,0.0,0.0,0.0,0.0,0.0,0.0,0.0,0.0,0.0,0.0,0.0,0.0,0.0,0.0,0.0,0.0,0.0,0.0,0.0,0.0,0.0,0.0,0.0,0.0,0.0,0.0,0.0,0.0,0.0,0.0,0.0,0.0,0.0,0.0,0.0,0.0,0.0,0.0,0.0,0.0,0.0,0.0,0.0,0.0,0.0,0.0,0.0,0.0,0.0,0.0,0.0,0.0,0.0,0.0,0.0,0.0,0.0,0.0,0.0,0.0,0.0,0.0,0.0,0.0,0.0,0.0,0.0,0.0,0.0,0.0,0.0,0.0,0.0,0.0,0.0,0.0,0.0,0.0,0.0,0.0,0.0,0.0,0.0,0.0,0.0,0.0,0.0,0.0,0.0,0.0,0.0,0.0,0.0,0.0,0.0,0.0,0.0,0.0,0.0,0.0,0.0,0.0,0.0,0.0,0.0,0.0,0.0,0.0,0.0,0.0,0.0,0.0,0.0,0.0,0.0,0.0,0.0,0.0,0.0,0.0,0.0,0.0,0.0,0.0,0.0,0.0,0.0,0.0,0.0,0.0,0.0,0.0,0.0,0.0,0.0,0.0,0.0,0.0,0.0,0.0,0.0,0.0,0.0,0.0,0.0,0.0,0.0,0.0,0.0,0.0,0.0,0.0,0.0,0.0,0.0,0.0,0.0,0.0,0.0,0.0,0.0,0.0,0.0,0.0,0.0,0.0,0.0,0.0,0.0,0.0,0.0,0.0,0.0,0.0,0.0,0.0,0.0,0.0,0.0,0.0,0.0,0.0,0.0,0.0,0.0,0.0,0.0,0.0,0.0,0.0,0.0,0.0,0.0,0.0,0.0,0.0,0.0,0.0,0.0,0.0,0.0,0.0,0.0,0.0,0.0,0.0,0.0,0.0,0.0,0.0,0.0,0.0,0.0,0.0,0.0,0.0,0.0,0.0,0.0,0.0,0.0,0.0,0.0,0.0,0.0,0.0,0.0,0.0,0.0,0.0,0.0,0.0,0.0,0.0,0.0,0.0,0.0,0.0,0.0,0.0,0.0,0.0,0.0,0.0,0.0,0.0,0.0,0.0,0.0,0.0,0.0,0.0,0.0,0.0,0.0,0.0,0.0,0.0,0.0,0.0,0.0,0.0,0.0,0.0,0.0,0.0,0.0,0.0,0.0,0.0,0.0,0.0,0.0,0.0,0.0,0.0,0.0,0.0,0.0,0.0,0.0,0.0,0.0,0.0,0.0,0.0,0.0,0.0,0.0,0.0,0.0,0.0,0.0,0.0,0.0,0.0,0.0,0.0,0.0,0.0,0.0,0.0,0.0,0.0,0.0,0.0,0.0,0.0,0.0,0.0,0.0,0.0,0.0,0.0,0.0,0.0,0.0,0.0,0.0,0.0,0.0,0.0,0.0,0.0,0.0,0.0,0.0,0.0,0.0,0.0,0.0,0.0,0.0,0.0,0.0,0.0,0.0,0.0,0.0,0.0,0.0,0.0,0.0,0.0,0.0,0.0,0.0,0.0,0.0,0.0,0.0,0.0,0.0,0.0,0.0,0.0,0.0,0.0,0.0,0.0,0.0,0.0,0.0,0.0,0.0,0.0,0.0,0.0,0.0,0.0,0.0,0.0,0.0,0.0,0.0,0.0,0.0,0.0,0.0,0.0,0.0,0.0,0.0,0.0,0.0,0.0,0.0,0.0,0.0,0.0,0.0,0.0,0.0,0.0,0.0,0.0,0.0,0.0,0.0,0.0,0.0,0.0,0.0,0.0,0.0,0.0,0.0,0.0,0.0,0.0,0.0,0.0,0.0,0.0,0.0,0.0,0.0,0.0,0.0,0.0,0.0,0.0,0.0,0.0,0.0,0.0,0.0,0.0,0.0,0.0,0.0,0.0,0.0,0.0,0.0,0.0,0.0,0.0,0.0,0.0,0.0,0.0,0.0,0.0,0.0,0.0,0.0,0.0,0.0,0.0,0.0,0.0,0.0,0.0,0.0,0.0,0.0,0.0,0.0,0.0,0.0,0.0,0.0,0.0,0.0,0.0,0.0,0.0,0.0,0.0,0.0,0.0,0.0,0.0,0.0,0.0,0.0,0.0,0.0,0.0,0.0,0.0,0.0,0.0,0.0,0.0,0.0,0.0,0.0,0.0,0.0,0.0,0.0,0.0,0.0,0.0,0.0,0.0,0.0,0.0,0.0,0.0,0.0,0.0,0.0,0.0,0.0,0.0,0.0,0.0,0.0,0.0,0.0,0.0,0.0,0.0,0.0,0.0,0.0,0.0,0.0,0.0,0.0,0.0,0.0,0.0,0.0,0.0,0.0,0.0,0.0,0.0,0.0,0.0,0.0,0.0,0.0,0.0,0.0,0.0,0.0,0.0,0.0,0.0,0.0,0.0,0.0,0.0,0.0,0.0,0.0,0.0,0.0,0.0,0.0,0.0,0.0,0.0,0.0,0.0,0.0,0.0,0.0,0.0,0.0,0.0,0.0,0.0,0.0,0.0,0.0,0.0,0.0,0.0,0.0,0.0,0.0,0.0,0.0,0.0,0.0,0.0,0.0,0.0,0.0,0.0,0.0,0.0,0.0,0.0,0.0,0.0,0.0,0.0,0.0,0.0,0.0,0.0,0.0,0.0,0.0,0.0,0.0,0.0,0.0,0.0,0.0,0.0,0.0,0.0,0.0,0.0,0.0,0.0,0.0,0.0,0.0,0.0,0.0,0.0,0.0,0.0,0.0,0.0,0.0,0.0,0.0,0.0,0.0,0.0,0.0,0.0,0.0,0.0,0.0,0.0,0.0,0.0,0.0,0.0,0.0,0.0,0.0,0.0,0.0,0.0,0.0,0.0,0.0,0.0,0.0,0.0,0.0,0.0,0.0,0.0,0.0,0.0,0.0,0.0,0.0,0.0,0.0,0.0,0.0,0.0,0.0,0.0,0.0,0.0,0.0,0.0,0.0,0.0,0.0,0.0,0.0,0.0,0.0,0.0,0.0,0.0,0.0,0.0,0.0,0.0,0.0,0.0,0.0,0.0,0.0,0.0,0.0,0.0,0.0,0.0,0.0,0.0,0.0,0.0,0.0,0.0,0.0,0.0,0.0,0.0,0.0,0.0,0.0,0.0,0.0,0.0,0.0,0.0,0.0,0.0,0.0,0.0,0.0,0.0,0.0,0.0,0.0,0.0,0.0,0.0,0.0,0.0,0.0,0.0,0.0,0.0,0.0,0.0,0.0,0.0,0.0,0.0,0.0,0.0,0.0,0.0,0.0,0.0,0.0,0.0,0.0,0.0,0.0,0.0,0.0,0.0,0.0,0.0,0.0,0.0,0.0,0.0,0.0,0.0,0.0,0.0,0.0,0.0,0.0,0.0,0.0,0.0,0.0,0.0,0.0,0.0,0.0,0.0,0.0,0.0,0.0,0.0,0.0,0.0,0.0,0.0,0.0,0.0,0.0,0.0,0.0,0.0,0.0,0.0,0.0,0.0,0.0,0.0,0.0,0.0,0.0,0.0,0.0,0.0,0.0,0.0,0.0,0.0,0.0,0.0,0.0,0.0,0.0,0.0,0.0,0.0,0.0,0.0,0.0,0.0,0.0,0.0,0.0,0.0,0.0,0.0,0.0,0.0,0.0,0.0,0.0,0.0,0.0,0.0,0.0,0.0,0.0,0.0,0.0,0.0,0.0,0.0,0.0,0.0,0.0,0.0,0.0,0.0,0.0,0.0,0.0,0.0,0.0,0.0,0.0,0.0,0.0,0.0,0.0,0.0,0.0,0.0,0.0,0.0,0.0,0.0,0.0,0.0,0.0,0.0,0.0,0.0,0.0,0.0,0.0,0.0,0.0,0.0,0.0,0.0,0.0,0.0,0.0,0.0,0.0,0.0,0.0,0.0,0.0,0.0,0.0,0.0,0.0,0.0,0.0,0.0,0.0,0.0,0.0,0.0,0.0,0.0,0.0,0.0,0.0,0.0,0.0,0.0,0.0,0.0,0.0,0.0,0.0,0.0,0.0,0.0,0.0,0.0,0.0,0.0,0.0,0.0,0.0,0.0,0.0,0.0,0.0,0.0,0.0,0.0,0.0,0.0,0.0,0.0,0.0,0.0,0.0,0.0,0.0,0.0,0.0,0.0,0.0,0.0,0.0,0.0,0.0,0.0,0.0,0.0,0.0,0.0,0.0,0.0,0.0,0.0,0.0,0.0,0.0,0.0,0.0933,0.0,0.0,0.0,0.0,0.0,0.0,0.0,0.0,0.0,0.0,0.0,0.0,0.0,0.0,0.0,0.0,0.0,0.0,0.0,0.0,0.0,0.0,0.0,0.0,0.0,0.0,0.0,0.0,0.0,0.0,0.0,0.0,0.0,0.0,0.0,0.0,0.0,0.0,0.0,-0.2394,-0.2683,-0.2792,-0.214,-0.1383,-0.0561,0.0,0.0,0.0,0.0,0.0,0.0,0.0,0.0,0.0,0.0,0.0,0.0,0.0,0.0,0.0,0.0,0.0,0.0,0.0,0.0,0.0,0.0,0.0,0.0,0.0,0.0,0.0,0.0,0.0,0.0,0.0,0.0,0.0,0.0,0.0,0.0,0.0,0.0,0.0,0.0,0.0,0.0,0.0,0.0,0.0,0.0,0.0,0.0,0.0,0.0,0.0,0.0,0.0,0.0,0.0,0.0,0.0,0.0,0.0,0.0,0.0,0.0,0.0,0.0,0.0,0.0,0.0,0.0,0.0,0.0,0.0,0.0024,0.0,0.0,0.0,0.0,0.0,0.0,0.0,0.0,0.0,0.0,0.0,0.0,0.0,0.0,0.0,0.0,0.0,0.0,0.0,0.0,0.0,0.0,0.0,0.0,0.0,0.0,0.0,0.0,0.0,0.0,0.0,0.0,0.0,0.0,0.0,-0.2655,-0.2731,-0.2899,-0.3472,-0.3859,-0.4032,-0.3845,-0.3211,-0.2231,-0.1852,0.0,0.0,0.0,0.0,0.0,0.0,0.0,0.0,0.0,0.0,0.0,0.0,0.0,0.0,0.0,0.0,0.0,0.0,0.0,0.0,0.0,0.0,0.0,0.0,0.0,0.0,0.0,0.0,0.0,0.0,0.0,0.0,0.0,0.0,0.0,0.0,0.0,0.0,0.0,0.0,0.0,0.0,0.0,0.0,0.0,0.0,0.0,0.0,0.0,0.0,0.0,0.0,0.0,0.0,0.0,0.0,0.0,0.0,0.0,0.0,0.0,0.0,0.0,-0.1305,-0.1685,-0.2449,-0.2713,-0.2955,-0.3148,-0.2133,-0.1444,-0.1038,0.0,0.0,0.0,0.0,0.0,0.0,0.0,0.0,0.0,0.0,0.0,0.0,0.0,0.0,0.0,0.0,0.0,0.0,0.0,0.0,0.0,0.0,0.0,-0.1169,-0.1351,-0.1539,-0.1725,0.0,0.0,0.0,0.0,0.0,0.0,0.0,-0.3136,-0.3542,-0.4075,-0.4564,-0.4734,-0.4599,-0.4678,-0.4603,-0.4329,-0.3032,-0.2125,-0.1571,0.0,0.0,0.0,0.0,0.0,0.0,0.0,0.0,0.0,0.0,0.0,0.0,0.0,0.0,0.0,0.0,0.0,0.0,0.0,0.0,0.0,0.0,0.0,0.0,0.0,0.0,0.0,0.0,0.0,0.0,0.0,0.0,0.0,0.0,0.0,0.0,0.0,0.0,0.0,0.0,0.0,0.079,0.0892,0.0,0.0,0.0,0.0,0.0,0.0,0.0,0.0,0.0,0.0,0.0,0.0,0.0,-0.0637,-0.0876,-0.1329,-0.1852,-0.2407,-0.2393,-0.2745,-0.3416,-0.3635,-0.3969,-0.4395,-0.4746,0.0,-0.3057,-0.2527,0.0,0.0,0.0,0.0,0.0,0.0,0.0,0.0,0.0,0.0,0.0,0.0,0.0,0.0,0.0,0.0,0.0,0.0,0.0,0.0,0.0,-0.1644,-0.1853,-0.1939,-0.2203,-0.2398,-0.2485,0.0,0.0,0.0,0.0,-0.3546,-0.3854,-0.3994,-0.4531,-0.5483,-0.584,-0.6081,-0.6214,-0.6045,-0.5845,-0.5606,-0.4644,-0.3639,-0.2635,-0.2355,0.0,0.0,0.0,0.0,0.0,0.0,0.0,0.0,0.0,0.0,0.0,0.0,0.0,0.0,0.0,0.0,0.0,0.0,0.0,0.0,0.0,0.0,0.0,0.0,0.0,0.0,0.0,0.0,0.0,0.0,0.0,0.0,0.0,0.0,0.0,0.0,0.0,0.0,0.0,0.0722,0.0411,-0.0071,0.0212,0.0263,0.0,0.0,0.0,0.0,0.0,0.0,0.0,0.0,0.0,-0.0486,-0.1068,-0.1452,-0.1599,-0.1953,-0.2399,-0.2934,-0.3131,-0.361,-0.435,-0.4692,-0.5179,-0.5759,-0.6362,-0.6403,-0.5933,-0.4699,-0.4487,-0.4809,0.0,0.0,0.0,0.0,0.0,-0.6097,0.0,0.0,0.0,0.0,0.0,0.0,0.0,0.0,0.0,0.0,0.0,0.0,-0.1963,-0.2345,-0.2611,-0.2601,-0.2916,-0.3134,-0.3207,-0.3447,0.0,0.0,0.0,-0.4347,-0.4803,-0.513,-0.5747,-0.6708,-0.6996,-0.7266,-0.752,-0.7065,-0.6688,-0.6375,-0.5874,-0.4961,-0.3752,-0.3217,-0.2691,-0.2174,0.0,0.0,0.0,0.0,0.0,0.0,0.0,0.0,0.0,0.0,0.0,0.0,0.0,0.0,0.0,0.0,0.0,0.0,0.0,0.0,0.0,0.0,0.0,0.0,0.0,0.0,0.0,0.0,0.0,0.0,0.0,0.0,0.0,0.0,0.0,0.0,0.0,0.0433,-0.0048,-0.0829,-0.046,-0.0442,0.0,0.0,0.0,0.0,0.0,0.0,-0.0889,-0.1206,-0.1421,-0.151,-0.1913,-0.2182,-0.2311,-0.251,-0.2916,-0.3514,-0.3855,-0.4461,-0.53,-0.5768,-0.6386,-0.7121,-0.767,-0.8144,-0.8383,-0.6834,-0.6339,-0.6458,-0.5408,-0.5631,-0.6573,-0.681,-0.7481,-0.8503,0.0,0.0,0.0,0.0,0.0,0.0,0.0,0.0,0.0,0.0,0.0,-0.2723,-0.266,-0.3128,-0.3441,-0.3441,-0.3751,-0.4044,-0.4307,-0.4337,-0.4528,-0.4923,-0.5001,-0.5136,-0.5357,-0.6543,-0.7281,-0.7543,-0.7876,-0.7976,-0.7869,-0.7261,-0.6874,-0.6669,-0.6244,-0.5605,-0.4801,-0.4446,-0.3821,-0.3031,-0.2934,0.0,0.0,0.0,0.0,0.0,0.0,0.0,0.0,0.0,0.0,0.0,0.0,0.0,0.0,0.0,0.0,0.0,0.0,0.0,0.0,0.0,0.0,0.0,0.0,0.0,0.0,0.0,0.0,0.0,0.0,0.0,0.0,0.0,0.0,0.0,0.0,0.0,0.0,-0.069,-0.1239,0.0,0.0,0.0,0.0,-0.1601,-0.1566,-0.1751,-0.2278,-0.2378,-0.2479,-0.2613,-0.2702,-0.2874,-0.3142,-0.3159,-0.356,-0.4338,-0.4684,-0.5363,-0.6337,-0.682,-0.7526,-0.8431,-0.8838,-0.9349,-0.9805,-0.8581,-0.8075,-0.8069,-0.7812,-0.805,-0.862,-0.9133,-0.9884,-1.0758,0.0,0.0,0.0,0.0,0.0,0.0,0.0,0.0,0.0,-0.303,-0.3231,-0.337,-0.3344,-0.3706,-0.3966,-0.4007,-0.436,-0.4744,-0.5141,-0.5084,-0.5513,-0.6564,-0.6304,-0.6621,-0.7694,-0.8502,-0.9112,-0.9529,-0.9735,-0.9705,-0.9429,-0.8957,-0.8538,-0.8147,-0.7441,-0.6872,-0.6379,-0.5399,-0.4694,-0.4224,-0.3764,-0.3067,0.0,0.0,0.0,0.0,0.0,0.0,0.0,0.0,0.0,0.0,0.0,0.0,0.0,0.0,0.0,0.0,0.0,0.0,0.0,0.0,0.0,0.0,0.0,0.0,0.0,0.0,0.0,0.0,0.0,0.0,0.0,0.0,0.0,0.0,0.0,0.0,0.0,-0.135,-0.1467,0.0,-0.2447,-0.2088,-0.2032,-0.2553,-0.242,-0.249,-0.2899,-0.2903,-0.2994,-0.32,-0.3274,-0.3422,-0.3646,-0.3695,-0.4129,-0.4922,-0.5394,-0.6113,-0.7065,-0.7564,-0.8224,-0.8969,-0.9414,-0.9957,-1.0495,-1.0276,-0.9968,-0.9542,-0.8875,-0.9247,-1.0195,-1.0341,-1.1246,-1.2484,0.0,0.0,0.0,0.0,0.0,0.0,0.0,0.0,0.0,-0.3487,-0.3784,-0.3977,-0.3904,-0.4182,-0.4471,-0.4717,-0.5067,-0.5497,-0.6039,-0.6118,-0.6622,-0.7684,-0.7771,-0.833,-0.952,-1.0135,-1.0648,-1.1067,-1.1141,-1.0999,-1.0657,-1.0236,-0.9814,-0.9364,-0.8639,-0.8155,-0.7807,-0.6836,-0.5963,-0.5197,-0.4658,-0.4039,-0.3378,0.0,0.0,0.0,0.0,0.0,0.0,0.0,0.0,0.0,0.0,0.0,0.0,0.0,0.0,0.0,0.0,0.0,0.0,0.0,0.0,0.0,0.0,0.0,0.0,0.0,0.0,0.0,0.0,0.0,0.0,0.0,0.0,0.0,0.0,0.0,-0.1409,-0.197,-0.2076,-0.2381,-0.3061,-0.2912,-0.2928,-0.3278,-0.3142,-0.3159,-0.3422,-0.3417,-0.3499,-0.3723,-0.3646,-0.381,-0.4226,-0.4194,-0.4648,-0.5619,-0.6121,-0.6802,-0.7613,-0.821,-0.8808,-0.9438,-0.9919,-1.0471,-1.1027,-1.1316,-1.125,-1.0905,-1.014,-1.0453,-1.1347,-1.1333,-1.2066,-1.3189,0.0,0.0,0.0,0.0,0.0,0.0,0.0,0.0,-0.4252,-0.4063,-0.4389,-0.4561,-0.4354,-0.458,-0.4993,-0.5568,-0.5867,-0.6323,-0.7004,-0.7406,-0.7822,-0.8261,-0.9357,-1.0203,-1.0688,-1.1394,-1.1858,-1.2074,-1.2004,-1.1797,-1.1476,-1.099,-1.0596,-1.0254,-0.9764,-0.9355,-0.9035,-0.8729,-0.759,-0.5944,-0.5655,-0.5204,-0.4678,0.0,0.0,0.0,0.0,0.0,0.0,0.0,0.0,0.0,0.0,0.0,0.0,0.0,0.0,0.0,0.0,0.0,0.0,0.0,0.0,0.0,0.0,0.0,0.0,0.0,0.0,0.0,0.0,0.0,0.0,0.0,0.0,0.0,-0.1352,-0.1744,-0.2162,-0.2491,-0.3118,-0.3548,-0.3602,-0.3793,-0.3858,-0.3737,-0.3721,-0.3782,-0.3907,-0.3972,-0.407,-0.4194,-0.3842,-0.4053,-0.4874,-0.4668,-0.5183,-0.6428,-0.6871,-0.7424,-0.805,-0.8689,-0.9283,-0.9842,-1.0385,-1.0908,-1.1421,-1.1656,-1.1906,-1.2091,-1.1718,-1.1766,-1.2085,-1.2231,-1.247,-1.2999,0.0,0.0,0.0,0.0,0.0,0.0,0.0,-0.4701,-0.4765,-0.4864,-0.5184,-0.5259,-0.4911,-0.5607,-0.603,-0.5899,-0.6539,-0.7244,-0.7976,-0.8025,-0.8644,-1.0035,-1.0942,-1.1871,-1.2829,-1.2994,-1.329,-1.3736,-1.3483,-1.3307,-1.3194,-1.2576,-1.2171,-1.189,-1.0933,-1.0323,-0.9974,-0.9256,-0.8432,-0.7506,-0.6852,-0.6006,-0.5118,0.0,0.0,0.0,0.0,0.0,0.0,0.0,0.0,0.0,0.0,0.0,0.0,0.0,0.0,0.0,0.0,0.0,0.0,0.0,0.0,0.0,0.0,0.0,0.0,0.0,0.0,0.0,0.0,0.0,0.0,0.0,0.0,-0.2291,-0.2061,-0.2549,-0.301,-0.3196,-0.3646,-0.395,-0.3966,-0.4178,-0.4317,-0.4291,-0.4145,-0.4145,-0.4317,-0.435,-0.4242,-0.3983,-0.459,-0.4814,-0.4606,-0.5448,-0.6198,-0.6829,-0.6871,-0.7474,-0.8574,-0.857,-0.9168,-1.026,-1.0703,-1.1129,-1.1615,-1.2388,-1.2873,-1.3089,-1.2992,-1.3131,-1.3444,-1.4078,-1.4833,-1.5745,0.0,0.0,0.0,0.0,0.0,0.0,0.0,-0.4843,-0.4893,-0.4981,-0.526,-0.5369,-0.5156,-0.5872,-0.6387,-0.6495,-0.7279,-0.8083,-0.8819,-0.9206,-0.9959,-1.1168,-1.2203,-1.3095,-1.3808,-1.406,-1.4291,-1.4541,-1.4332,-1.4187,-1.4056,-1.3581,-1.3229,-1.2941,-1.2111,-1.1519,-1.1098,-1.0432,-0.9743,-0.9067,-0.8521,-0.7371,-0.5982,-0.6004,-0.5628,-0.5054,-0.4785,-0.4736,-0.4744,-0.441,0.0,0.0,0.0,0.0,0.0,0.0,0.0,0.0,0.0,0.0,0.0,0.0,0.0,0.0,0.0,0.0,0.0,0.0,0.0,0.0,0.0,0.0,0.0,0.0,-0.299,-0.3257,-0.3561,-0.3667,-0.3816,-0.4061,-0.439,-0.4565,-0.4482,-0.4693,-0.4804,-0.4708,-0.4596,-0.4628,-0.482,-0.4861,-0.4702,-0.4323,-0.4966,-0.5295,-0.5251,-0.6021,-0.6844,-0.7708,-0.7637,-0.8095,-0.9008,-0.9102,-0.9628,0.0,-1.0989,-1.1407,-1.1776,-1.2484,-1.3099,0.0,0.0,0.0,0.0,0.0,-1.5984,-1.7006,0.0,0.0,0.0,0.0,0.0,0.0,0.0,-0.4754,-0.4843,-0.4834,-0.5078,-0.5264,-0.5271,-0.5847,-0.6506,-0.7178,-0.8,-0.8807,-0.9518,-1.0556,-1.1362,-1.1892,-1.3137,-1.391,-1.4096,-1.4666,-1.4889,-1.4699,-1.4683,-1.4541,-1.4316,-1.4098,-1.3835,-1.3531,-1.3121,-1.2703,-1.2246,-1.1836,-1.1195,-1.0446,-1.0303,-0.8989,-0.7149,-0.7345,-0.7035,-0.6455,-0.6122,-0.6037,-0.6021,-0.5669,0.0,0.0,0.0,0.0,0.0,0.0,0.0,0.0,0.0,0.0,0.0,0.0,0.0,0.0,0.0,0.0,0.0,0.0,0.0,0.0,0.0,0.0,0.0,0.0,-0.3956,-0.4419,-0.5476,-0.5051,-0.4714,-0.4949,-0.521,-0.528,-0.5072,-0.5245,-0.5293,-0.5135,-0.5103,-0.5166,-0.5372,0.0,0.0,0.0,0.0,-0.5771,-0.643,-0.6592,-0.7363,-0.8741,-0.8671,-0.8892,-0.9368,-0.9869,-1.0269,-1.0592,-1.1222,-1.1667,-1.1949,-1.2298,-1.3087,-1.4173,-1.4838,-1.525,-1.5481,-1.5802,-1.6524,0.0,0.0,0.0,0.0,0.0,0.0,0.0,0.0,-0.503,-0.5252,-0.5611,-0.5956,-0.6052,-0.5796,-0.687,-0.7563,-0.7451,-0.8481,-0.9367,-0.9944,-1.0834,-1.1724,-1.2567,-1.3416,-1.415,-1.4704,-1.4754,-1.4732,-1.4699,-1.4541,-1.4429,-1.4381,-1.4114,-1.3983,-1.3885,-1.337,-1.297,-1.265,-1.2192,-1.1577,-1.0904,-1.1082,-1.0121,-0.8555,-0.8223,-0.7928,-0.7587,-0.6935,-0.6912,-0.7115,-0.6621,-0.6625,-0.6842,-0.6789,-0.6522,0.0,0.0,0.0,0.0,0.0,0.0,0.0,0.0,0.0,0.0,0.0,0.0,0.0,0.0,0.0,0.0,0.0,0.0,0.0,-0.4664,-0.5223,-0.5889,-0.6809,-0.6763,-0.6351,-0.5558,-0.5652,-0.5662,-0.5348,-0.5598,-0.5797,-0.5804,-0.5702,-0.5718,-0.5851,-0.5828,0.0,-0.5861,-0.6583,-0.7065,-0.7273,-0.798,-0.8567,-0.9013,0.0,0.0,-0.9699,-0.9537,-0.9993,-1.0932,-1.1381,-1.1762,-1.2121,-1.2931,-1.4336,-1.6005,-1.625,-1.6819,-1.7544,-1.7762,-1.8064,-1.834,0.0,0.0,0.0,0.0,0.0,0.0,0.0,-0.5117,-0.5386,-0.5756,-0.6032,-0.6244,-0.6385,-0.7302,-0.798,-0.8181,-0.9144,-0.9854,-1.0084,-1.1229,-1.2142,-1.2678,-1.3765,-1.4516,-1.4887,-1.4808,-1.473,-1.4699,-1.4529,-1.4449,-1.4449,-1.4289,-1.416,-1.4078,-1.3715,-1.3344,-1.2983,-1.2615,-1.2118,-1.1609,-1.1707,-1.1064,-0.9972,-0.934,-0.8678,-0.8064,-0.772,-0.7686,-0.7767,-0.7497,-0.754,-0.7738,-0.7897,-0.7671,-0.7321,0.0,0.0,0.0,0.0,0.0,0.0,0.0,0.0,0.0,0.0,0.0,0.0,0.0,0.0,-0.4381,0.0,0.0,-0.5226,-0.5939,-0.6327,-0.6894,-0.7862,-0.776,-0.7307,-0.6545,-0.6425,-0.6272,-0.5938,-0.6058,-0.6137,-0.6098,-0.6098,-0.6191,-0.6386,-0.6562,-0.6689,-0.6758,-0.7594,-0.8119,-0.8245,-0.8714,-0.9212,-0.9692,-0.9122,-0.9223,-0.9906,-1.0045,-1.044,-1.1073,-1.1571,-1.1923,-1.2262,-1.3738,-1.5212,-1.6613,-1.7182,-1.7706,-1.8166,-1.8383,-1.8512,-1.8678,0.0,0.0,0.0,0.0,0.0,0.0,0.0,0.0,-0.5416,-0.5737,-0.5933,-0.6248,-0.6764,-0.7337,-0.8031,-0.8886,-0.9741,-1.0276,-1.0328,-1.1696,-1.2607,-1.2801,-1.4115,-1.4856,-1.4902,-1.4824,-1.4732,-1.4669,-1.4531,-1.4467,-1.4467,-1.4383,-1.427,-1.4187,-1.3974,-1.3628,-1.3199,-1.2931,-1.2597,-1.2246,-1.2156,-1.1727,-1.1057,-1.0498,-0.9536,-0.851,-0.8442,-0.8386,-0.834,-0.827,-0.8298,-0.8396,-0.8698,-0.8518,-0.8143,-0.7932,-0.7697,0.0,0.0,0.0,0.0,0.0,0.0,0.0,0.0,-0.5872,-0.5651,-0.5837,-0.5658,-0.5619,-0.612,-0.6075,-0.6277,-0.7222,-0.7407,-0.7766,-0.8701,-0.8486,-0.804,-0.7509,-0.7144,-0.6832,-0.6574,-0.6514,-0.6484,-0.6472,-0.6573,-0.6777,-0.7089,-0.744,-0.7696,-0.7821,-0.8554,-0.9085,-0.9384,-0.9359,-0.9681,-1.038,-0.9895,-0.9801,-1.0072,-1.062,-1.0968,-1.1204,-1.1918,-1.2415,-1.2837,-1.4637,-1.5862,-1.6706,-1.7868,-1.8272,-1.8225,-1.8433,-1.863,-1.8945,0.0,0.0,0.0,0.0,0.0,0.0,0.0,0.0,0.0,-0.5988,-0.6126,-0.6281,-0.6519,-0.6969,-0.7782,-0.9059,-0.9912,-1.0597,-1.1123,-1.2265,-1.3095,-1.3476,-1.4431,-1.495,-1.4902,-1.4777,-1.4639,-1.4517,-1.4385,-1.4319,-1.4319,-1.413,-1.4095,-1.4187,-1.3924,-1.3628,-1.3268,-1.3,-1.272,-1.2443,-1.2264,-1.1795,-1.1223,-1.149,-1.077,-0.9553,-0.9029,-0.9021,-0.9209,-0.8915,-0.901,-0.9235,-0.9166,-0.9021,-0.8838,-0.8576,-0.8185,-0.7813,-0.7687,-0.742,-0.7211,-0.7439,-0.7182,-0.6983,0.0,-0.7227,-0.6949,-0.6863,-0.6812,-0.6762,-0.6661,-0.6796,-0.7255,-0.82,-0.8492,-0.8781,-0.9252,-0.9179,-0.8774,-0.801,-0.7423,-0.709,-0.7107,-0.6893,-0.6949,-0.7405,-0.7464,-0.7697,-0.8199,-0.8381,-0.873,-0.9342,-0.9624,-1.0088,-1.0774,-1.038,-1.0335,-1.0638,-1.0119,-1.0008,-1.0274,-1.0583,-1.0956,-1.1428,-1.2576,-1.3615,-1.458,-1.559,-1.6243,-1.6773,-1.8432,-1.8724,-1.8225,-1.8426,-1.8994,-1.9704,0.0,0.0,0.0,0.0,0.0,0.0,0.0,0.0,0.0,0.0,-0.6224,-0.649,-0.692,-0.7831,-0.8675,-0.932,-1.0105,-1.0678,-1.0933,-1.2352,-1.3175,-1.3191,-1.4498,-1.5149,-1.4966,-1.4794,-1.4669,-1.4624,-1.4399,-1.43,-1.43,-1.4173,-1.4095,-1.4078,-1.3924,-1.3695,-1.3399,-1.3259,-1.3,-1.272,-1.265,-1.2063,-1.132,-1.1874,-1.1168,-0.9865,-0.9841,-1.0,0.0,-0.9503,-0.9502,-0.9751,-0.9725,-0.9621,-0.9478,-0.9291,-0.899,-0.8676,-0.8485,-0.8195,-0.8004,-0.8143,-0.7979,-0.7821,-0.8104,-0.8181,-0.8129,-0.7865,-0.7935,-0.7928,-0.7525,-0.7836,-0.833,0.0,-0.938,-0.97,-0.9736,-0.9503,-0.9261,-0.9129,-0.8059,-0.7297,-0.7202,-0.7282,-0.746,-0.775,-0.8102,-0.844,-0.8793,-0.9116,-0.9561,-1.016,-1.0497,-1.0915,-1.1468,-1.112,-1.1113,-1.1455,-1.0783,-1.0584,-1.0782,-1.0842,-1.1365,-1.2251,-1.2868,-1.3995,-1.5422,-1.5899,-1.6528,-1.7322,-1.8677,-1.904,-1.8873,-1.9104,-1.9447,-1.9891,0.0,0.0,0.0,0.0,0.0,0.0,0.0,0.0,0.0,0.0,0.0,-0.6647,-0.7286,-0.8544,-0.9403,-0.9587,-1.0342,-1.087,-1.106,-1.2347,-1.3135,-1.3221,-1.4457,-1.5125,-1.5058,-1.4873,-1.4763,-1.473,-1.4461,-1.4332,-1.4319,-1.4206,-1.4095,-1.4,-1.3927,-1.3758,-1.3514,-1.3459,-1.3288,-1.3022,-1.2852,-1.2222,-1.1461,-1.1921,-1.1425,-1.0475,-1.0737,-1.0856,-1.0793,-1.0202,-1.0157,-1.0315,-1.0174,-1.0046,-0.9918,-0.9802,-0.9716,-0.953,-0.9076,-0.8954,-0.8897,-0.8706,-0.8603,-0.8608,-0.8827,-0.8919,-0.8903,-0.8761,-0.8925,-0.8886,-0.8257,-0.8677,-0.9228,-0.9515,-0.985,-1.0115,-1.0184,-0.9708,-0.94,-0.9585,-0.8397,-0.7607,-0.7712,-0.7658,-0.7736,-0.8013,-0.8601,-0.9058,-0.9327,-0.9856,-1.0343,-1.0753,-1.1096,-1.149,-1.1902,-1.1647,-1.1707,-1.2099,-1.1336,-1.1144,-1.1439,-1.1587,-1.2274,-1.3328,-1.3575,-1.4596,-1.61,-1.6257,-1.6828,-1.7696,-1.8984,-1.939,-1.9365,-2.0046,-2.0361,-2.0498,0.0,0.0,0.0,0.0,0.0,0.0,0.0,0.0,0.0,0.0,0.0,0.0,0.0,0.0,-0.9532,-0.9856,-1.062,-1.1338,-1.1917,-1.2375,-1.3058,-1.4013,-1.4354,-1.4746,-1.5178,-1.5058,-1.4935,-1.4808,-1.4541,-1.4413,-1.4397,-1.413,-1.4,-1.4,-1.3927,-1.3791,-1.3598,-1.3531,-1.3459,-1.3323,-1.2688,-1.2121,-1.168,-1.165,-1.1714,-1.1822,-1.1714,-1.1428,-1.1092,-1.1052,-1.1107,-1.1043,-1.0405,-1.0097,-0.9995,-0.9995,-1.0215,-1.0262,-0.9343,-0.9564,-0.984,-0.9009,-0.899,-0.9304,-0.9744,-0.9462,-0.9188,-0.9503,-0.9663,-0.9509,-0.8645,-0.9138,-0.9746,-0.9956,-0.9724,-0.9803,-1.0567,-0.9831,-0.9106,-0.886,-0.8149,-0.8044,0.0,-0.8054,-0.7679,-0.8342,-0.8938,-0.9473,-0.9954,-1.0648,-1.1105,-1.118,-1.137,-1.1723,-1.218,-1.1922,-1.1988,-1.2388,-1.1564,-1.1572,-1.2299,-1.2991,-1.3803,-1.4664,-1.4986,-1.5765,-1.677,-1.6843,-1.7118,-1.7683,-1.9467,-1.9771,-1.9424,-2.1185,-2.1926,-2.1917,0.0,0.0,0.0,0.0,0.0,0.0,0.0,0.0,0.0,0.0,0.0,0.0,0.0,0.0,0.0,0.0,-1.0436,-1.1051,-1.144,-1.2147,-1.2628,-1.2894,-1.3496,-1.406,-1.453,-1.4412,-1.4507,-1.4871,-1.4556,-1.4413,-1.4413,-1.427,-1.4189,-1.4127,-1.417,-1.404,-1.3795,-1.3815,-1.3765,-1.3606,-1.2984,-1.2639,-1.2491,-1.2471,-1.2286,-1.2128,0.0,-1.2916,-1.2433,-1.198,-1.1667,-1.1402,-1.1044,-1.0834,-1.0675,-1.0404,-1.0416,-1.0328,-0.9522,-0.972,-1.0104,-0.9801,-1.0093,-1.0406,-1.0216,-1.0223,-1.0141,-0.9585,-0.976,-0.9799,-0.9147,-0.9511,-1.0018,-1.0394,-1.0561,-1.0726,-1.0989,-1.0855,-1.0694,-1.0596,-0.9749,0.0,0.0,0.0,0.0,-0.9263,-0.9729,-1.0007,-1.0136,-1.0917,-1.1404,-1.1468,-1.1748,-1.2059,-1.2389,-1.2487,-1.2711,-1.3061,-1.2736,-1.2439,-1.2193,-1.2929,-1.377,-1.4644,-1.4993,-1.5731,-1.6672,-1.6876,-1.7138,-1.7567,-1.8882,-1.9621,-1.9957,-2.0166,-2.129,-2.2528,0.0,0.0,0.0,0.0,0.0,0.0,0.0,0.0,0.0,0.0,0.0,0.0,0.0,0.0,0.0,0.0,0.0,-1.0673,-1.1129,-1.1767,-1.2171,-1.2285,-1.2839,-1.3375,-1.3908,-1.3784,-1.3913,-1.4326,-1.3999,-1.3878,-1.3969,-1.3787,-1.3709,-1.3664,-1.3678,-1.3707,-1.3717,-1.3771,-1.3856,-1.3885,-1.3256,-1.2975,-1.2906,-1.2675,-1.2509,0.0,-1.346,-1.3729,-1.3547,-1.288,-1.2465,-1.2115,-1.1603,-1.1203,-1.0847,-1.0499,-1.0528,-1.0499,-0.9752,-0.9914,-1.0298,-1.0281,-1.0558,-1.0789,-1.0682,-1.0678,-1.0502,-0.9865,-1.0083,-1.0197,-0.9594,-1.0129,-1.0716,-1.0948,-1.0972,-1.1118,-1.1561,-1.1329,-1.1203,-1.1469,-1.0833,-1.0828,0.0,0.0,0.0,-1.0257,-1.0326,-1.0439,-1.0688,-1.1343,-1.1756,-1.1818,-1.2029,-1.23,-1.2632,-1.2896,-1.3141,-1.3399,-1.3673,-1.3422,-1.2769,-1.361,-1.4338,-1.4987,-1.5344,-1.5909,-1.6623,-1.6892,-1.7167,-1.7503,-1.8552,-1.9335,-1.9858,-1.982,-2.0773,-2.1993,0.0,0.0,0.0,0.0,0.0,0.0,0.0,0.0,0.0,0.0,0.0,0.0,0.0,0.0,0.0,0.0,0.0,0.0,-1.102,-1.1273,-1.1623,-1.2215,-1.2362,-1.2729,-1.3336,-1.3218,-1.3193,-1.3302,-1.2966,-1.2939,-1.3182,-1.2858,-1.272,-1.2706,-1.265,-1.2893,-1.3379,-1.3379,-1.3672,-1.4109,-1.3438,-1.3116,-1.2984,-1.2313,-1.2472,-1.3081,-1.3344,-1.3895,-1.4389,-1.3778,-1.3424,-1.3075,-1.2021,-1.1207,-1.0588,-1.0326,-1.0599,-1.0829,-1.0017,-1.0158,-1.0493,-1.0458,-1.0413,-1.0529,-1.1201,-1.0833,-1.0339,-1.0327,-1.0621,-1.0688,-0.996,0.0,-1.1702,-1.1546,-1.098,-1.0997,-1.2253,-1.1355,-1.0825,0.0,0.0,0.0,0.0,0.0,0.0,-1.1373,0.0,-1.0803,-1.1512,-1.1926,-1.2174,-1.2228,-1.2228,-1.2443,-1.2908,-1.3126,-1.3301,-1.3433,-1.4313,-1.4439,-1.3953,-1.495,-1.5477,-1.5639,-1.6041,-1.6357,-1.6636,-1.6892,-1.7154,-1.7491,-1.8459,-1.8941,-1.9184,-2.0067,-2.0431,-2.0506,0.0,0.0,0.0,0.0,0.0,0.0,0.0,0.0,0.0,0.0,0.0,0.0,0.0,0.0,0.0,0.0,0.0,0.0,-1.0861,-1.0968,-1.1155,-1.1466,-1.1513,-1.1859,-1.2567,-1.2506,-1.2723,-1.3304,-1.3062,-1.298,-1.3048,-1.2953,-1.2912,-1.2913,-1.2912,-1.2969,-1.3095,-1.3053,-1.33,-1.3688,-1.3013,-1.315,-1.3658,-1.301,-1.3124,-1.3716,-1.4024,-1.4296,-1.4489,-1.4474,-1.3759,-1.2675,-1.171,-1.1309,-1.1136,-1.0872,-1.0935,-1.0895,-1.0095,-1.0253,-1.0736,-1.1114,-1.1169,-1.1274,-1.1904,-1.1498,-1.0928,-1.0791,-1.0825,-1.0779,-1.0385,-1.0723,0.0,-1.1581,-1.1603,0.0,-1.2589,-1.2709,0.0,-1.283,0.0,-1.3059,-1.3813,-1.2826,0.0,0.0,-1.2513,-1.1471,-1.0817,-1.2009,-1.265,-1.2573,-1.2668,-1.2826,-1.3042,-1.3551,-1.3741,-1.3632,-1.4502,-1.4683,-1.4299,-1.5154,-1.5682,-1.5911,-1.622,-1.6477,-1.6712,-1.7029,-1.722,-1.7366,-1.7771,-1.8355,-1.8929,-1.8705,-1.9441,-2.0437,0.0,0.0,0.0,0.0,0.0,0.0,0.0,0.0,0.0,0.0,0.0,0.0,0.0,0.0,0.0,0.0,0.0,0.0,0.0,-1.0418,-1.0655,-1.1083,-1.1108,-1.1336,-1.1811,-1.1714,-1.1936,-1.2468,-1.229,-1.2277,-1.2377,-1.2302,-1.2291,-1.2343,-1.2277,-1.2382,-1.2599,-1.2572,-1.2788,0.0,0.0,-1.3176,-1.3517,-1.3401,-1.3552,-1.3904,-1.4203,-1.4385,-1.4476,-1.4288,-1.355,-1.2595,-1.2006,-1.1495,-1.1094,-1.1163,-1.0925,-1.0624,-1.0428,-1.04,-1.0635,-1.1643,-1.1487,-1.1233,-1.1818,-1.1507,-1.1015,-1.0638,-1.0818,-1.0918,-1.0571,-1.106,-1.1602,0.0,0.0,0.0,-1.299,-1.3141,-1.3248,0.0,-1.3591,0.0,-1.4356,-1.3739,-1.3568,0.0,-1.3184,-1.2396,-1.2045,-1.2806,-1.3207,-1.3099,-1.319,-1.3344,-1.3531,-1.4,-1.4226,-1.423,-1.4887,-1.5095,-1.4906,-1.5504,-1.5898,-1.6109,0.0,-1.6554,-1.6776,-1.707,-1.7232,-1.7326,-1.7507,-1.7921,-1.8374,-1.8103,-1.8601,-1.9395,0.0,0.0,0.0,0.0,0.0,0.0,0.0,0.0,0.0,0.0,0.0,0.0,0.0,0.0,0.0,0.0,0.0,0.0,0.0,0.0,0.0,-1.0669,-1.0708,-1.0805,-1.1042,-1.0938,-1.1024,-1.1365,-1.1165,-1.1233,-1.1545,-1.1301,-1.1304,-1.15,-1.1365,-1.1561,-1.1998,-1.1986,-1.2173,-1.254,-1.2958,-1.2991,-1.2834,0.0,0.0,-1.3569,-1.3848,-1.4045,-1.4106,-1.3539,-1.3047,-1.265,-1.2428,-1.1588,-1.0752,-1.1135,-1.0716,-1.0225,-1.0726,-1.0442,-1.035,-1.1816,-1.1387,-1.077,-1.139,-1.1271,-1.0893,-1.0407,-1.0865,-1.1194,-1.0751,-1.1669,-1.2389,-1.2096,0.0,-1.2896,-1.3331,-1.3135,-1.3119,-1.363,-1.4026,-1.4332,-1.4461,-1.4462,-1.429,-1.3875,-1.342,-1.3394,-1.3872,-1.3845,-1.3785,-1.3702,-1.3769,-1.3934,-1.4198,-1.4454,-1.4704,-1.498,-1.5344,-1.5522,-1.5566,-1.5897,-1.6123,-1.6248,0.0,0.0,-1.6687,-1.7059,-1.7179,-1.7173,-1.7486,-1.767,-1.7789,-1.795,-1.8037,-1.8113,0.0,0.0,0.0,0.0,0.0,0.0,0.0,0.0,0.0,0.0,-0.6198,-0.6379,0.0,0.0,0.0,0.0,0.0,0.0,0.0,0.0,0.0,0.0,-0.9184,-0.9496,-1.0195,-1.0192,-1.0495,-1.1143,-1.0624,-1.0704,-1.1339,-1.0811,-1.0915,-1.1571,-1.1376,-1.1388,-1.1511,-1.1348,-1.1531,-1.1921,-1.1858,-1.196,-1.2149,0.0,0.0,0.0,-1.2502,-1.262,-1.2593,-1.26,-1.2577,-1.2429,-1.1858,-1.1147,-1.0524,-1.0493,-1.034,-1.0187,-1.0174,-1.0084,-1.0173,-1.0892,-1.0602,-1.0387,-1.1437,-1.1409,-1.1214,-1.139,-1.175,-1.1923,-1.1628,-1.2052,-1.2395,-1.2336,-1.2721,-1.3119,-1.3361,-1.3533,-1.374,0.0,-1.4399,-1.4683,-1.4808,-1.4466,0.0,0.0,0.0,-1.3823,-1.3442,-1.4008,-1.4326,-1.4262,-1.4326,-1.4485,-1.4752,-1.486,-1.5074,-1.5403,-1.5522,-1.5711,-1.5925,-1.615,-1.6328,-1.6461,0.0,0.0,-1.6048,-1.6922,-1.6897,-1.6401,-1.7263,-1.7612,-1.7658,-1.7917,-1.8005,-1.8048,0.0,0.0,0.0,0.0,0.0,0.0,0.0,-0.6093,-0.612,-0.5929,-0.5893,-0.5948,-0.6132,-0.635,-0.6509,0.0,0.0,0.0,0.0,0.0,0.0,0.0,0.0,0.0,0.0,-0.9909,-1.0123,0.0,0.0,-1.0179,-1.0261,0.0,0.0,-1.0977,-1.1142,-1.1215,-1.1239,-1.1062,-1.1052,-1.1141,-1.1269,-1.1344,0.0,0.0,0.0,0.0,0.0,-1.2022,-1.2007,-1.2139,-1.2168,-1.2114,-1.1962,-1.1682,-1.1362,-1.1213,-1.087,-1.057,-1.085,-1.0532,-1.0302,-1.1159,-1.0711,-1.0224,-1.0919,-1.1034,-1.1002,-1.1013,-1.1365,-1.1669,-1.1652,-1.1925,-1.2167,-1.2275,-1.2754,-1.3215,-1.3556,-1.3657,-1.3812,-1.4154,-1.4413,-1.462,-1.4839,-1.468,-1.4877,0.0,0.0,-1.4688,-1.4317,-1.4598,-1.4783,-1.4873,-1.4858,-1.4966,-1.5165,-1.5149,-1.5269,-1.5492,-1.5668,-1.5885,-1.6109,-1.6299,-1.6501,-1.6672,-1.6834,0.0,-1.6532,-1.7073,-1.7068,-1.6773,-1.7374,-1.7601,-1.7635,-1.7906,-1.7994,-1.8089,0.0,0.0,0.0,0.0,0.0,0.0,0.0,-0.5891,-0.5845,-0.5819,-0.5642,-0.5614,-0.5845,-0.5881,-0.5927,0.0,0.0,0.0,0.0,0.0,0.0,0.0,0.0,0.0,0.0,0.0,0.0,0.0,0.0,0.0,0.0,0.0,0.0,0.0,0.0,0.0,-1.0822,-1.0818,-1.0668,0.0,0.0,0.0,0.0,0.0,0.0,0.0,0.0,-1.1369,-1.1411,-1.1656,-1.168,-1.1679,-1.1966,-1.2102,-1.2112,-1.1893,-1.1358,-1.0962,-1.1492,-1.0932,-1.0431,-1.1323,-1.0817,-1.0187,-1.0539,-1.0735,-1.0829,-1.0711,-1.1022,-1.1365,-1.1512,-1.1747,-1.198,-1.2119,-1.27,-1.3267,-1.3725,-1.3728,-1.3881,-1.4383,-1.4479,0.0,-1.498,-1.4914,0.0,0.0,0.0,0.0,-1.5328,-1.5194,-1.5209,-1.5403,-1.5373,-1.5403,-1.5507,-1.5477,-1.5507,-1.5624,-1.587,-1.6083,-1.6275,-1.6488,-1.6686,-1.6869,-1.7007,0.0,0.0,-1.7191,-1.7211,-1.7076,-1.7457,-1.7612,-1.7675,-1.8087,-1.8141,-1.819,0.0,0.0,0.0,0.0,0.0,0.0,0.0,-0.5726,-0.5678,-0.5559,-0.5567,-0.5558,-0.5465,-0.5502,-0.5625,0.0,0.0,0.0,0.0,0.0,0.0,0.0,0.0,0.0,0.0,0.0,0.0,0.0,0.0,0.0,0.0,0.0,0.0,0.0,0.0,0.0,0.0,0.0,0.0,0.0,0.0,0.0,0.0,0.0,0.0,0.0,0.0,-0.999,-1.0078,-1.07,-1.0989,-1.1087,-1.1183,-1.1576,-1.1917,-1.1409,-1.1131,-1.0995,-1.106,-1.065,-1.025,-1.0417,-1.0276,-1.0251,-1.0829,-1.0976,-1.1101,-1.1578,-1.1654,-1.1657,-1.1673,-1.1852,-1.2013,-1.2017,-1.2683,-1.3306,-1.3665,-1.3852,-1.4262,-1.5104,0.0,0.0,-1.5653,-1.5061,0.0,0.0,0.0,0.0,-1.5711,-1.561,-1.561,-1.5741,-1.5814,-1.5827,-1.5842,-1.5912,-1.5968,-1.6053,-1.6191,-1.6342,-1.6488,-1.6747,-1.693,-1.7083,-1.7207,0.0,0.0,-1.7031,-1.6912,-1.6296,-1.7229,-1.7647,-1.7794,-1.8671,-1.8642,-1.8314,0.0,0.0,0.0,0.0,0.0,0.0,-0.5756,-0.5652,-0.5586,-0.5626,-0.5511,-0.5444,-0.5521,-0.5464,-0.5502,-0.5661,0.0,0.0,0.0,0.0,0.0,0.0,0.0,0.0,0.0,0.0,0.0,-0.8814,-0.9026,0.0,0.0,0.0,0.0,0.0,0.0,0.0,0.0,0.0,0.0,0.0,0.0,0.0,0.0,0.0,0.0,0.0,0.0,0.0,-0.9747,-1.0129,-1.0484,-1.0739,-1.0598,-1.1357,-1.2135,-1.1322,-1.1268,-1.1418,-1.1099,-1.0703,-1.0387,-1.0412,-1.0324,-1.0341,-1.0733,-1.0915,-1.1113,-1.1529,-1.1338,-1.1364,-1.2212,-1.1568,-1.1228,-1.2202,-1.2218,-1.2431,-1.3319,-1.3483,-1.393,-1.4986,-1.5042,0.0,0.0,0.0,0.0,0.0,0.0,0.0,-1.6258,-1.6039,-1.5926,-1.5969,-1.6055,-1.6083,-1.6083,-1.6067,-1.6123,-1.6219,-1.6369,-1.6525,-1.6747,-1.6923,-1.7093,-1.7212,-1.7281,0.0,0.0,-1.7231,-1.7214,-1.6929,-1.7414,-1.767,-1.7867,-1.8813,-1.8755,-1.8474,0.0,0.0,0.0,0.0,0.0,-0.5756,-0.5718,-0.5625,-0.5598,-0.5682,-0.5483,-0.5388,-0.552,-0.5407,-0.5368,-0.5501,-0.5717,0.0,0.0,0.0,0.0,0.0,0.0,0.0,0.0,0.0,-0.8727,-0.8386,-0.9026,-0.8688,0.0,0.0,0.0,0.0,0.0,0.0,0.0,0.0,0.0,0.0,0.0,0.0,0.0,0.0,0.0,0.0,0.0,0.0,0.0,0.0,0.0,-1.0366,-1.0173,-1.0975,-1.188,-1.1404,-1.1607,-1.1905,-1.1525,-1.1101,-1.0795,-1.0821,-1.0768,-1.0817,-1.1156,-1.1299,-1.1459,-1.1815,-1.1324,-1.1136,-1.2145,-1.119,-1.0651,-1.189,-1.1984,-1.2241,-1.3251,-1.3621,-1.414,-1.5031,0.0,-1.5477,0.0,-1.5881,0.0,0.0,0.0,0.0,0.0,-1.6343,-1.6303,-1.6219,-1.6234,-1.6263,-1.6263,-1.626,-1.6299,-1.6396,-1.6607,-1.6799,-1.7002,-1.7175,-1.7301,-1.7365,0.0,0.0,0.0,-1.7439,-1.7441,-1.7425,-1.7561,-1.785,-1.8246,-1.8939,-1.9096,-1.92,0.0,0.0,0.0,0.0,0.0,0.0,-0.5521,-0.5617,-0.5692,-0.5701,-0.5522,-0.5408,-0.5408,-0.5214,-0.5156,-0.5291,-0.5549,0.0,0.0,0.0,0.0,0.0,0.0,0.0,0.0,0.0,-0.8789,-0.997,-0.9463,-0.8961,-0.8474,-0.7891,-0.7567,0.0,0.0,0.0,0.0,0.0,0.0,0.0,0.0,0.0,0.0,0.0,0.0,0.0,0.0,0.0,0.0,0.0,0.0,0.0,0.0,-1.0281,-1.0875,-1.1664,-1.2135,-1.2388,-1.2391,-1.1946,-1.1507,-1.1578,-1.165,-1.1835,-1.2361,-1.2339,-1.2304,-1.2699,-1.187,-1.1114,-1.1191,-1.077,-1.0507,-1.086,-1.2143,-1.3199,-1.3559,-1.451,-1.5256,0.0,0.0,-1.594,-1.5811,0.0,0.0,0.0,0.0,0.0,0.0,-1.647,-1.6772,-1.6501,-1.6436,-1.6412,-1.6412,-1.6578,-1.6657,-1.661,-1.7005,-1.7191,-1.7203,-1.7467,-1.7561,0.0,0.0,0.0,0.0,-1.7601,-1.7584,-1.742,-1.7618,-1.8234,-1.9006,-1.9138,-1.9825,-2.07,0.0,0.0,0.0,0.0,0.0,0.0,0.0,-0.5512,-0.5559,-0.5559,-0.5549,-0.5578,-0.5662,-0.5502,-0.5406,-0.5501,-0.5547,0.0,0.0,0.0,0.0,0.0,0.0,0.0,0.0,0.0,-0.8687,-0.8708,-0.9317,-0.8977,-0.7746,-0.7781,-0.7549,-0.7091,-0.7198,0.0,0.0,0.0,0.0,0.0,0.0,0.0,0.0,0.0,0.0,0.0,0.0,0.0,0.0,0.0,0.0,0.0,0.0,0.0,0.0,-1.0876,-1.1473,-1.1948,-1.1437,-1.1367,-1.1408,-1.1337,-1.1392,-1.1563,-1.2047,-1.1961,-1.1892,-1.2304,-1.1366,-1.0648,-1.1168,-1.0466,-1.0187,-1.1461,-1.1851,-1.2443,0.0,0.0,0.0,-1.5693,-1.6147,-1.6326,0.0,0.0,0.0,0.0,0.0,0.0,0.0,-1.6891,-1.6898,-1.6659,-1.6704,-1.6717,-1.6659,-1.6828,-1.6964,-1.7089,-1.7349,-1.7491,-1.7549,-1.7681,0.0,0.0,0.0,0.0,0.0,-1.7844,-1.7838,-1.7811,-1.8467,-1.8961,-1.9418,-2.0558,-2.0894,-2.0936,0.0,0.0,0.0,0.0,0.0,0.0,0.0,-0.5378,-0.5445,-0.5435,-0.5463,-0.5529,-0.5634,-0.5473,-0.5396,-0.5521,-0.5462,0.0,0.0,0.0,0.0,0.0,0.0,0.0,-0.7395,-0.8135,-0.857,-0.8668,-0.9404,-0.9108,-0.7848,-0.8033,-0.7757,-0.7083,-0.702,-0.7337,0.0,0.0,0.0,0.0,0.0,0.0,-0.8946,0.0,0.0,0.0,0.0,0.0,0.0,0.0,0.0,0.0,0.0,0.0,0.0,0.0,-1.0822,-1.1427,-1.1015,-1.1164,-1.1404,-1.1304,-1.1375,-1.155,-1.1785,-1.1727,-1.1734,-1.1983,-1.1166,-1.056,-1.1113,-1.0508,-1.0326,-1.1567,-1.1912,-1.2484,0.0,0.0,0.0,-1.621,0.0,0.0,0.0,0.0,0.0,0.0,0.0,0.0,0.0,-1.7199,-1.715,-1.6964,-1.6946,-1.6937,-1.6901,-1.708,-1.724,-1.738,-1.7635,-1.776,-1.7783,-1.79,0.0,0.0,0.0,0.0,0.0,-1.8403,-1.8545,-1.8555,-1.9434,-1.9986,-2.0379,-2.1109,-2.1517,-2.1819,0.0,0.0,0.0,0.0,0.0,0.0,0.0,-0.5253,-0.535,-0.5291,-0.5282,-0.5311,-0.5379,-0.5224,-0.5185,-0.5369,0.0,0.0,0.0,0.0,0.0,0.0,0.0,0.0,-0.7842,-0.7911,-0.8452,-0.9591,-0.9645,-0.93,-0.8584,-0.8498,-0.8072,-0.7393,-0.7268,-0.7393,-0.7732,-0.808,-0.8277,-0.8368,-0.846,-0.8572,0.0,0.0,0.0,0.0,0.0,0.0,0.0,0.0,0.0,0.0,0.0,0.0,0.0,0.0,0.0,0.0,0.0,-1.1234,-1.1457,-1.141,-1.1572,-1.1735,-1.1606,-1.1619,0.0,-1.1712,-1.1148,-1.0725,-1.1024,-1.0859,-1.0862,-1.1429,-1.2361,-1.3262,0.0,-1.5065,0.0,0.0,-1.619,0.0,0.0,0.0,0.0,0.0,0.0,0.0,0.0,-1.7396,-1.7408,-1.7408,-1.7179,-1.7076,-1.7134,-1.732,-1.7467,-1.7549,-1.7918,-1.8045,-1.7933,-1.8181,0.0,0.0,0.0,0.0,0.0,-1.9192,-1.9566,-1.9584,-2.0473,-2.1237,-2.1738,-2.1109,-2.1885,-2.3117,0.0,0.0,0.0,0.0,0.0,0.0,0.0,0.0,0.0,0.0,-0.5098,-0.5117,-0.5234,-0.5205,-0.5214,0.0,0.0,0.0,0.0,0.0,0.0,0.0,0.0,0.0,-0.7564,-0.7901,-0.8511,-0.9448,-0.9461,-0.9146,-0.8522,-0.8088,-0.7742,-0.7447,-0.6649,-0.6518,-0.6911,-0.7348,-0.7722,-0.8042,-0.8375,-0.846,0.0,0.0,0.0,0.0,-0.8969,-0.923,0.0,0.0,0.0,0.0,0.0,0.0,0.0,0.0,-0.9756,0.0,-1.0068,0.0,-1.1272,-1.1256,-1.1285,-1.1355,0.0,-1.1258,-1.1147,-1.1119,-1.0482,-1.0137,-1.074,-1.1097,-1.1602,-1.2545,-1.3501,-1.4379,-1.511,0.0,0.0,-1.6506,-1.6342,0.0,0.0,0.0,0.0,0.0,0.0,0.0,0.0,-1.742,-1.7502,-1.7554,-1.7537,-1.7532,-1.7555,-1.7658,-1.7777,-1.7889,-1.8697,-1.8745,-1.8147,-1.8866,0.0,0.0,0.0,0.0,-1.931,-1.9631,-2.0072,-2.0617,-2.1514,-2.1943,-2.2151,-2.2529,-2.2994,-2.3424,0.0,0.0,0.0,0.0,0.0,0.0,0.0,0.0,0.0,0.0,0.0,-0.502,-0.5059,-0.5117,0.0,0.0,0.0,0.0,0.0,0.0,0.0,0.0,0.0,-0.6394,-0.752,-0.779,-0.8382,-0.9301,-0.9301,-0.9027,-0.8486,-0.8144,-0.7642,-0.7001,-0.6187,-0.6048,-0.6433,-0.672,-0.7114,-0.7556,-0.7828,0.0,0.0,0.0,0.0,0.0,-0.8709,-0.9026,0.0,-0.9762,-0.9867,-0.9865,0.0,0.0,0.0,0.0,-0.9631,-0.9671,-0.9802,-1.0263,-1.069,-1.065,-1.0703,-1.0756,-1.0795,-1.0716,-1.065,-1.0743,-1.0559,-1.0544,-1.1027,-1.1764,-1.2512,-1.3259,-1.407,0.0,0.0,0.0,-1.6421,-1.653,-1.6517,0.0,0.0,0.0,0.0,0.0,0.0,0.0,0.0,-1.7773,-1.7681,-1.7789,-1.7822,-1.7816,-1.7777,-1.8189,-1.8467,-1.8617,-1.952,-1.9731,-1.9356,-1.9876,-1.9921,0.0,0.0,0.0,-2.0378,-2.0423,-2.0906,-2.1729,-2.259,-2.2916,-2.2936,-2.3336,-2.3526,-2.36,0.0,0.0,0.0,0.0,0.0,0.0,0.0,0.0,0.0,0.0,0.0,0.0,0.0,0.0,0.0,0.0,0.0,0.0,0.0,0.0,0.0,0.0,-0.5729,-0.6315,-0.7565,-0.7679,-0.8204,-0.919,-0.9137,-0.8905,-0.8474,-0.8276,-0.7572,-0.6477,-0.5993,-0.5942,-0.62,-0.6289,-0.6619,-0.7114,-0.722,0.0,0.0,0.0,0.0,0.0,0.0,0.0,0.0,-0.9878,-0.9958,-0.9877,-1.0237,0.0,0.0,0.0,0.0,0.0,-0.9841,-0.997,-1.0059,-1.0072,-1.0173,-1.03,-1.0404,-1.043,-1.0507,-1.08,-1.111,-1.1427,-1.1723,-1.2661,-1.3484,0.0,0.0,0.0,-1.6063,-1.6416,-1.6594,-1.6591,0.0,0.0,0.0,0.0,0.0,0.0,0.0,0.0,0.0,-1.8205,-1.8036,-1.8176,-1.8317,-1.8369,-1.8312,-1.8865,-1.915,-1.9152,-2.028,-2.0731,-2.0567,-2.0877,-2.1,0.0,0.0,0.0,-2.1406,-2.1394,-2.1901,-2.2756,-2.3512,-2.3783,-2.3732,-2.3728,-2.3728,-2.3793,0.0,0.0,0.0,0.0,0.0,0.0,0.0,0.0,0.0,0.0,0.0,0.0,0.0,0.0,0.0,0.0,0.0,0.0,0.0,0.0,0.0,-0.5865,-0.5865,-0.6413,-0.7577,-0.7723,-0.8228,-0.9108,-0.888,-0.8659,-0.8407,-0.7875,-0.722,-0.6502,-0.6576,-0.6454,-0.6213,-0.6335,-0.6654,-0.7101,-0.7127,0.0,0.0,0.0,0.0,0.0,0.0,0.0,0.0,-0.93,-0.9454,-0.9499,-0.9621,0.0,0.0,0.0,0.0,0.0,-0.9737,-0.9828,-0.9944,-1.0324,-1.051,-1.0767,-1.1342,-1.1464,-1.1574,-1.1951,-1.1997,-1.218,-1.288,-1.3672,-1.4311,0.0,0.0,-1.5874,0.0,0.0,-1.649,0.0,0.0,0.0,0.0,0.0,0.0,0.0,0.0,0.0,0.0,-1.8441,-1.8881,-1.9007,-1.9728,-2.0137,-2.02,-1.9623,-1.9057,-1.8488,-2.0773,-2.115,-1.9903,-2.1388,-2.1722,0.0,0.0,-2.1483,-2.2293,-2.2244,-2.2753,-2.3613,-2.375,-2.3789,-2.3774,-2.3779,-2.3891,-2.4145,0.0,0.0,0.0,0.0,0.0,0.0,0.0,0.0,0.0,0.0,0.0,0.0,0.0,0.0,0.0,0.0,0.0,0.0,0.0,0.0,-0.5743,-0.5734,-0.6093,-0.6632,-0.736,-0.7665,-0.8035,-0.8509,-0.8386,-0.8174,-0.7898,-0.7177,-0.6738,-0.6539,-0.6269,-0.6076,-0.5934,-0.608,-0.6344,-0.6687,0.0,0.0,0.0,0.0,0.0,0.0,0.0,0.0,0.0,0.0,-0.9412,-0.9402,-0.9726,0.0,0.0,0.0,0.0,0.0,-0.9578,-0.9684,-0.9942,-1.0781,-1.1117,-1.1337,-1.1726,-1.22,-1.2628,-1.2801,-1.3039,-1.3345,-1.3667,-1.4342,-1.4965,-1.5374,0.0,-1.6506,-1.6591,-1.6759,0.0,0.0,0.0,0.0,0.0,0.0,0.0,0.0,0.0,0.0,0.0,0.0,-1.8461,-1.8704,-1.9491,-1.9957,-2.0051,-2.0551,-2.0632,-2.0326,-2.1954,-2.241,-2.1778,-2.2624,-2.2848,-2.2584,0.0,-2.2414,-2.3213,-2.2757,-2.3087,-2.3912,-2.3943,-2.3984,-2.4016,-2.4064,-2.4152,-2.4376,0.0,0.0,0.0,0.0,0.0,0.0,0.0,0.0,0.0,0.0,0.0,0.0,0.0,0.0,0.0,0.0,0.0,0.0,0.0,-0.5784,-0.5797,-0.568,-0.6204,-0.6684,-0.7073,-0.7496,-0.7767,-0.7907,-0.7864,-0.7656,-0.7318,-0.6645,-0.6407,-0.6532,-0.603,-0.5809,-0.5805,-0.5984,-0.6196,-0.6426,0.0,0.0,0.0,0.0,0.0,0.0,0.0,0.0,0.0,0.0,0.0,0.0,0.0,0.0,0.0,-0.9366,-0.9271,-0.923,-0.9458,-0.9742,-1.0194,-1.1136,-1.1548,-1.1825,-1.2286,-1.2974,-1.3562,-1.3721,-1.4097,-1.4414,-1.4443,-1.4877,0.0,-1.6079,-1.6479,-1.6733,-1.6866,0.0,0.0,0.0,0.0,0.0,0.0,0.0,0.0,0.0,0.0,0.0,0.0,0.0,-1.8307,-1.8804,-1.9553,-2.0117,-2.0425,-2.1668,-2.2113,-2.1749,-2.2829,-2.3318,-2.3265,-2.3529,-2.3718,-2.3782,-2.3125,-2.3231,-2.3842,-2.325,-2.3418,-2.4026,-2.4075,-2.4171,-2.4275,-2.4552,-2.4689,-2.4901,0.0,0.0,0.0,0.0,0.0,0.0,0.0,0.0,0.0,0.0,0.0,0.0,0.0,0.0,0.0,0.0,0.0,0.0,0.0,-0.6118,-0.6144,-0.5885,-0.6103,-0.6389,-0.6733,-0.7184,-0.7498,-0.7632,-0.7452,-0.7181,-0.6848,-0.6535,-0.641,-0.6412,-0.6429,-0.6293,-0.6098,-0.6407,-0.6597,-0.6691,-0.6828,0.0,0.0,0.0,0.0,0.0,0.0,0.0,0.0,0.0,0.0,0.0,0.0,0.0,-0.9408,-0.9472,-0.9298,-0.9188,-0.9498,-1.0136,-1.0826,-1.1215,-1.1508,-1.2072,-1.3516,-1.3999,-1.4313,-1.4933,-1.5048,-1.5107,-1.5345,-1.5404,-1.5681,-1.6578,-1.6353,-1.6177,0.0,0.0,0.0,0.0,0.0,0.0,0.0,0.0,0.0,0.0,0.0,0.0,0.0,0.0,0.0,-2.0315,-2.1184,-2.2023,-2.2844,-2.3088,-2.2464,-2.1,-2.2678,-2.3151,-2.261,-2.3401,-2.3828,-2.3886,-2.3832,-2.3842,-2.3907,-2.3893,-2.3989,-2.4094,-2.4106,-2.4229,-2.4482,-2.5369,-2.5728,-2.6024,0.0,0.0,0.0,0.0,0.0,0.0,0.0,0.0,0.0,0.0,0.0,0.0,0.0,0.0,0.0,0.0,0.0,0.0,0.0,-0.6263,-0.64,-0.6042,-0.6369,-0.6496,-0.6333,-0.6833,-0.7119,-0.716,-0.7136,-0.7062,-0.6984,-0.6884,-0.6825,-0.6846,-0.6904,-0.6802,-0.6616,-0.7036,-0.7166,-0.7093,-0.7395,-0.7687,0.0,0.0,0.0,0.0,0.0,0.0,0.0,0.0,-0.9106,-0.9232,-0.9326,-0.9393,-0.946,-0.9446,-0.9339,-0.9286,-0.9579,-1.02,-1.0923,-1.1661,-1.2442,-1.3193,-1.3956,-1.4645,-1.5226,-1.5565,-1.5682,-1.574,-1.5797,0.0,-1.619,-1.6503,-1.6559,0.0,0.0,0.0,0.0,0.0,0.0,0.0,0.0,0.0,0.0,0.0,0.0,0.0,0.0,0.0,0.0,-1.9779,-2.0622,-2.1482,-2.2417,-2.2994,-2.3012,-2.245,-2.3247,-2.3483,-2.325,-2.3623,-2.3813,-2.3837,-2.3886,-2.3917,-2.3976,-2.4084,-2.4142,-2.4218,-2.4857,-2.5188,-2.5437,-2.6349,-2.6683,-2.6877,0.0,0.0,0.0,0.0,0.0,0.0,0.0,0.0,0.0,0.0,0.0,0.0,0.0,0.0,0.0,0.0,0.0,0.0,-0.5791,-0.6449,-0.6643,-0.6212,-0.663,-0.6657,-0.6236,-0.654,-0.6712,-0.671,-0.6978,-0.7088,-0.7071,-0.7095,-0.7179,-0.7349,-0.7339,-0.7285,-0.7242,-0.7687,-0.7798,-0.7677,-0.7947,-0.8142,0.0,0.0,0.0,0.0,0.0,0.0,0.0,0.0,-0.919,-0.9328,-0.9353,-0.9458,-0.9564,-0.9554,-0.9689,-0.9877,-1.0035,-1.0821,-1.1747,-1.2414,-1.338,-1.4238,-1.4414,-1.5067,-1.5668,-1.5726,-1.5926,-1.6109,-1.6094,-1.6299,0.0,0.0,0.0,0.0,0.0,0.0,0.0,0.0,0.0,0.0,0.0,0.0,0.0,0.0,0.0,0.0,0.0,0.0,0.0,0.0,-2.0541,-2.1424,-2.2329,-2.2976,-2.3336,-2.343,-2.3544,-2.3645,-2.37,-2.3792,-2.3827,-2.3845,-2.3907,-2.3966,-2.4006,-2.4113,-2.4219,-2.4367,-2.5355,-2.5813,-2.607,-2.7203,-2.7614,-2.7752,0.0,0.0,0.0,0.0,0.0,0.0,0.0,0.0,0.0,0.0,0.0,0.0,0.0,0.0,0.0,0.0,0.0,0.0,-0.6009,-0.67,-0.6893,-0.6435,-0.6799,-0.6858,-0.6517,-0.638,-0.6299,-0.6299,-0.698,-0.7196,-0.7014,-0.7087,-0.7399,-0.7899,-0.7705,-0.773,-0.7934,-0.8347,-0.847,-0.8396,-0.8396,-0.8491,-0.8642,0.0,0.0,0.0,0.0,0.0,0.0,0.0,-0.9299,-0.9408,-0.9485,-0.9591,-0.9736,-0.9867,-1.0428,-1.0998,-1.0913,-1.2172,-1.3489,-1.3415,-1.4214,-1.5013,-1.5013,-1.5255,-1.5477,-1.5418,-1.5769,-1.6137,-1.6274,-1.6342,0.0,-1.6583,0.0,0.0,0.0,0.0,0.0,0.0,0.0,0.0,0.0,0.0,0.0,0.0,0.0,0.0,0.0,0.0,0.0,0.0,-2.1321,-2.2215,-2.3089,-2.3241,-2.336,-2.3505,-2.343,-2.351,-2.37,-2.3842,-2.3896,-2.3907,-2.3976,-2.3996,-2.4006,-2.4074,-2.421,-2.4481,-2.5442,-2.5897,-2.6217,-2.7893,-2.8558,-2.8724,0.0,0.0,0.0,0.0,0.0,0.0,0.0,0.0,0.0,0.0,0.0,0.0,0.0,0.0,0.0,0.0,0.0,0.0,-0.5734,-0.6851,-0.7379,-0.7048,-0.7325,-0.7436,-0.7337,-0.689,-0.6681,-0.6724,-0.7164,-0.7586,-0.799,-0.8111,-0.8286,-0.8546,-0.8613,-0.8687,-0.8759,-0.9076,-0.9087,-0.8891,-0.8946,-0.888,-0.8773,0.0,0.0,0.0,0.0,0.0,0.0,0.0,0.0,0.0,-0.9564,-1.0021,-1.046,-0.9966,-1.0748,-1.1712,-1.1401,-1.2455,-1.3664,-1.3737,-1.4527,-1.5165,-1.4752,-1.5089,-1.5536,-1.5653,-1.587,-1.6094,-1.6328,-1.6315,0.0,0.0,0.0,0.0,0.0,0.0,0.0,0.0,0.0,0.0,0.0,0.0,0.0,0.0,0.0,0.0,0.0,0.0,0.0,0.0,-2.1586,-2.2215,-2.3089,-2.3241,-2.3383,-2.3562,-2.3607,-2.3611,-2.3629,-2.366,-2.3736,-2.3828,-2.3845,-2.3886,-2.3937,-2.4096,-2.4293,-2.4617,-2.6121,-2.6795,-2.7118,-2.8748,-2.9413,-2.953,0.0,0.0,0.0,0.0,0.0,0.0,0.0,0.0,0.0,0.0,-0.7178,-0.7104,0.0,0.0,0.0,0.0,0.0,0.0,0.0,-0.684,-0.7397,-0.7533,-0.7869,-0.7871,-0.7471,-0.7112,-0.6959,-0.7017,-0.7405,-0.7908,-0.8483,-0.8695,-0.8921,-0.9168,-0.9264,-0.9329,-0.9393,-0.9607,-0.958,-0.938,-0.9365,-0.9245,-0.9085,0.0,0.0,0.0,0.0,0.0,0.0,0.0,0.0,0.0,-0.9658,-1.0051,-1.0385,-1.0032,-1.1095,-1.2317,-1.198,-1.3065,-1.4323,-1.4427,-1.4935,-1.5359,-1.521,-1.5225,-1.5359,-1.5741,-1.5969,-1.6191,-1.6409,-1.6434,0.0,0.0,0.0,0.0,0.0,0.0,0.0,0.0,0.0,0.0,0.0,0.0,0.0,0.0,0.0,0.0,0.0,0.0,0.0,0.0,-2.1935,-2.2479,-2.3052,-2.3193,-2.3336,-2.3482,-2.3522,-2.3533,-2.3528,-2.3627,-2.3714,-2.3804,-2.3824,-2.3847,-2.3917,-2.4125,-2.4293,-2.4601,-2.6038,-2.6853,-2.7414,-2.8765,-2.9523,-2.9904,0.0,0.0,0.0,0.0,0.0,0.0,0.0,0.0,0.0,0.0,-0.7238,-0.7143,0.0,0.0,0.0,0.0,0.0,0.0,0.0,0.0,-0.7124,-0.782,-0.8352,-0.8178,-0.7216,-0.7206,-0.7253,-0.7347,-0.7765,-0.821,-0.8692,-0.9008,-0.939,-0.9823,-0.9682,-0.9735,-0.9916,-0.9982,-0.9944,-0.9789,-0.9671,-0.9578,-0.9472,-0.9284,0.0,0.0,0.0,0.0,0.0,0.0,0.0,0.0,-0.9775,-0.9852,-0.9929,-1.0059,-1.1388,-1.2789,-1.2552,-1.381,-1.5208,-1.5284,-1.5359,-1.5522,-1.6039,-1.5536,-1.5149,-1.5726,0.0,-1.6326,-1.6488,-1.6633,0.0,0.0,0.0,0.0,0.0,0.0,0.0,0.0,0.0,0.0,0.0,0.0,0.0,0.0,0.0,0.0,0.0,0.0,0.0,-2.1486,-2.2337,-2.2855,-2.2982,-2.3132,-2.3229,0.0,-2.3301,-2.3348,-2.3436,-2.3664,-2.3771,-2.3804,-2.3873,-2.3907,-2.3927,-2.4115,-2.4275,-2.4486,-2.5509,-2.6425,-2.7307,-2.833,-2.92,-2.9912,0.0,0.0,0.0,0.0,0.0,0.0,0.0,0.0,0.0,0.0,0.0,0.0,0.0,0.0,0.0,0.0,0.0,0.0,0.0,0.0,-0.7101,-0.7418,-0.8277,-0.8508,-0.7966,-0.8015,-0.82,-0.8537,-0.8476,-0.8773,-0.9383,-0.9517,-1.0012,-1.0765,-1.012,-1.0171,-1.0725,-1.0328,-1.0021,-0.9802,-0.9828,-0.9672,-0.9421,-0.9368,-0.9313,0.0,0.0,0.0,0.0,0.0,0.0,0.0,-0.9867,-1.0273,-1.0646,-1.0161,-1.1491,-1.3004,-1.2561,-1.3737,-1.5149,-1.527,-1.53,-1.5404,-1.5724,-1.5652,-1.5667,-1.6163,-1.6246,-1.6299,-1.6528,-1.6396,0.0,0.0,0.0,0.0,0.0,0.0,0.0,0.0,0.0,0.0,0.0,0.0,0.0,0.0,0.0,0.0,0.0,0.0,0.0,-2.218,-2.2533,-2.2738,-2.2764,-2.3008,-2.3156,0.0,-2.3324,-2.3448,-2.3562,-2.3555,-2.3645,-2.3804,-2.3873,-2.3927,-2.3996,-2.4133,-2.4247,-2.4478,-2.6116,-2.6895,-2.732,-2.8881,-2.9647,-2.9912,0.0,0.0,0.0,0.0,0.0,0.0,0.0,0.0,0.0,0.0,0.0,0.0,0.0,0.0,0.0,0.0,0.0,0.0,0.0,0.0,-0.709,-0.7932,-0.853,-0.863,-0.8172,-0.8538,-0.8743,-0.8754,-0.9071,-0.9653,-1.0467,-1.0521,-1.1031,-1.1844,-1.1334,-1.1175,-1.1256,-1.0847,-1.0444,-1.0072,-1.0059,-1.0043,-1.0015,-0.9572,-0.9468,-0.9543,-0.9263,0.0,0.0,0.0,0.0,0.0,0.0,0.0,-1.0519,-1.0533,-1.1609,-1.2825,-1.2916,-1.3991,-1.5195,-1.5551,-1.5681,-1.5795,-1.6036,-1.6186,-1.6336,-1.6541,-1.6474,-1.6434,-1.6567,0.0,0.0,0.0,0.0,0.0,0.0,0.0,0.0,0.0,0.0,0.0,0.0,0.0,0.0,0.0,0.0,0.0,0.0,-2.1781,-2.2144,-2.2352,-2.2555,-2.2672,-2.2699,-2.2906,-2.3033,-2.307,-2.3229,-2.3383,-2.3551,-2.3618,-2.3667,-2.3754,-2.3863,-2.3917,-2.3976,-2.4123,-2.4468,-2.4977,-2.6023,-2.6952,-2.7846,-2.8788,-2.9458,-2.9891,0.0,0.0,0.0,0.0,0.0,0.0,0.0,0.0,0.0,0.0,0.0,0.0,0.0,0.0,0.0,0.0,0.0,0.0,0.0,0.0,0.0,-0.8643,-0.8853,-0.8714,-0.8269,-0.8889,-0.9074,-0.8789,-0.954,-1.0573,-1.1885,-1.1776,-1.2224,-1.3094,-1.2801,-1.2403,-1.1926,-1.1602,-1.1163,-1.0689,-1.0586,-1.0713,-1.0865,-1.0058,-0.9944,-1.0147,-0.9547,-0.9448,-0.9645,-0.9902,0.0,0.0,0.0,0.0,-1.0161,-1.0896,-1.1677,-1.2461,-1.3216,-1.4243,-1.5255,-1.5869,-1.6122,-1.6258,-1.6434,-1.667,-1.685,-1.6786,-1.6727,-1.6649,0.0,0.0,0.0,0.0,0.0,0.0,0.0,0.0,0.0,0.0,0.0,0.0,0.0,0.0,0.0,0.0,0.0,0.0,-2.1868,-2.1926,-2.2058,-2.2282,-2.246,-2.2565,-2.2646,-2.2803,-2.2876,-2.2893,-2.3119,-2.3313,-2.3494,-2.3696,-2.3743,-2.3711,-2.3834,-2.3896,-2.3935,-2.425,-2.4724,-2.5308,-2.594,-2.7009,-2.8212,-2.8582,-2.923,-2.9932,0.0,0.0,0.0,0.0,0.0,0.0,0.0,0.0,0.0,0.0,-0.7131,-0.7205,0.0,0.0,0.0,0.0,0.0,0.0,0.0,0.0,0.0,-0.8668,-0.8933,-0.9017,-0.8878,-0.9155,-0.9371,-0.9548,-0.9791,-1.1256,-1.3813,-1.2996,-1.3361,-1.4667,-1.4127,-1.3671,-1.331,-1.2747,-1.2264,-1.1873,-1.1915,-1.1784,-1.1545,-1.1246,-1.1133,-1.1122,-1.1079,-1.0806,-1.0515,-1.1013,-1.0682,0.0,0.0,0.0,-1.0225,-1.091,-1.1508,-1.2138,-1.2867,-1.4061,-1.5255,-1.5911,-1.6191,-1.6285,-1.6328,-1.6525,-1.6722,0.0,-1.6834,0.0,0.0,0.0,0.0,0.0,0.0,0.0,0.0,0.0,0.0,0.0,0.0,0.0,0.0,0.0,0.0,0.0,0.0,0.0,-2.1811,-2.1811,-2.1961,-2.2214,-2.2296,-2.238,-2.2432,-2.2685,-2.2816,-2.2816,-2.3144,-2.3324,-2.3407,-2.3623,-2.3711,-2.3711,-2.3834,-2.3896,-2.3971,-2.4805,-2.4801,-2.4519,-2.6863,-2.7577,-2.7454,-2.9049,-2.9771,-3.0007,0.0,0.0,0.0,0.0,0.0,0.0,0.0,0.0,0.0,0.0,0.0,-0.7421,0.0,0.0,0.0,0.0,0.0,0.0,0.0,0.0,0.0,-0.8668,-0.8916,-0.901,-0.8944,-0.9178,-0.9368,-0.9527,-0.9789,-1.1322,-1.4041,-1.427,-1.5199,-1.6678,-1.632,-1.5593,-1.4584,-1.4182,-1.3415,-1.2495,-1.2481,-1.2571,-1.265,-1.2067,-1.1983,-1.2222,-1.2392,-1.1969,-1.1399,-1.1819,-1.1421,-1.0782,-1.0769,0.0,0.0,0.0,-1.187,-1.2159,-1.3311,-1.4261,-1.5073,-1.5682,-1.5896,-1.6114,-1.6667,-1.7068,-1.7441,-1.7891,-1.8086,0.0,0.0,0.0,0.0,0.0,0.0,0.0,0.0,0.0,0.0,0.0,0.0,0.0,0.0,0.0,0.0,0.0,0.0,-2.1812,-2.1812,-2.1869,-2.1972,-2.2075,-2.229,-2.2419,-2.246,-2.2646,-2.2777,-2.2868,-2.3132,-2.3277,-2.3348,-2.3589,-2.37,-2.3711,-2.3807,-2.3834,-2.3884,-2.4299,-2.4866,-2.5621,-2.6888,-2.7808,-2.854,-2.9419,-2.9834,-2.9956,0.0,0.0,0.0,0.0,0.0,0.0,0.0,0.0,0.0,0.0,0.0,0.0,0.0,0.0,0.0,0.0,0.0,0.0,0.0,0.0,0.0,0.0,0.0,-0.893,-0.8905,-0.9153,-0.9341,-0.9422,-0.9899,-1.1441,-1.3955,-1.495,-1.6442,-1.8262,-1.8444,-1.757,-1.5947,-1.6032,-1.5134,-1.3698,-1.4111,-1.4236,-1.4183,-1.4155,-1.4054,-1.4004,-1.4471,-1.3888,-1.2942,-1.3063,-1.2503,-1.1664,-1.1254,-1.0919,0.0,0.0,0.0,-1.2473,-1.3736,-1.434,-1.4765,-1.533,-1.5565,-1.5888,-1.6648,0.0,-1.7966,0.0,0.0,0.0,0.0,0.0,0.0,0.0,0.0,0.0,0.0,0.0,0.0,0.0,0.0,0.0,0.0,0.0,0.0,0.0,0.0,-2.184,-2.1842,-2.1926,-2.2013,-2.2044,-2.2332,-2.2487,-2.2528,-2.2685,-2.2959,-2.3274,-2.3462,-2.3708,-2.3945,-2.4006,-2.4017,-2.3999,-2.3866,-2.38,-2.3821,-2.4269,-2.5142,-2.6327,-2.7066,-2.8101,-2.9212,-2.9551,-2.9773,-2.9943,0.0,0.0,0.0,0.0,0.0,0.0,0.0,0.0,0.0,0.0,0.0,0.0,-0.7898,-0.8123,-0.8233,-0.8173,-0.8322,0.0,0.0,0.0,0.0,0.0,0.0,0.0,-0.8905,-0.9153,-0.9368,-0.9502,-1.034,-1.1866,-1.4012,-1.4638,-1.6369,-1.8978,-2.0071,-1.9376,-1.7461,-1.8532,-1.7838,-1.6166,-1.7894,-1.7575,-1.6305,-1.8545,-1.8316,-1.6917,-1.7941,-1.7181,-1.5631,-1.5211,-1.4092,-1.2733,-1.1786,-1.1198,-1.0977,0.0,0.0,0.0,-1.3838,-1.4068,-1.431,-1.497,-1.536,-1.5638,0.0,0.0,-1.7783,0.0,0.0,0.0,0.0,0.0,0.0,0.0,0.0,0.0,0.0,0.0,0.0,0.0,0.0,0.0,0.0,0.0,0.0,0.0,0.0,-2.1955,-2.1913,-2.1955,-2.2058,-2.22,-2.2338,-2.246,-2.2592,-2.2838,-2.3438,-2.4327,-2.4472,-2.4949,-2.5759,-2.5182,-2.4908,-2.4809,-2.4097,-2.3792,-2.3923,-2.5499,-2.5812,-2.5502,-2.7944,-2.8635,-2.8371,-2.9279,-2.9737,-3.0018,0.0,0.0,0.0,0.0,0.0,0.0,0.0,0.0,0.0,0.0,0.0,0.0,0.0,-0.878,-0.8679,-0.8354,-0.8272,0.0,0.0,0.0,0.0,0.0,0.0,0.0,-0.9026,-0.9164,-0.9339,-0.9566,-0.9961,-1.1187,-1.3193,-1.4084,-1.5769,-1.8089,-1.9234,-1.9298,-1.8638,-1.9526,-1.8838,-1.7313,-1.8848,-1.9159,-1.8763,-1.9419,-1.9409,-1.9103,-1.9444,-1.8774,-1.753,-1.6512,-1.6033,-1.5492,-1.3187,-1.2393,-1.2229,-1.1812,-1.2268,-1.2983,-1.334,-1.3661,-1.3917,-1.3986,-1.4548,-1.521,-1.5668,-1.6628,-1.7619,0.0,0.0,0.0,0.0,0.0,0.0,0.0,0.0,0.0,0.0,0.0,0.0,0.0,0.0,0.0,0.0,0.0,0.0,0.0,0.0,0.0,-2.1899,-2.1969,-2.2101,-2.2324,-2.246,-2.2605,-2.279,-2.2893,-2.3405,-2.4342,-2.4513,-2.505,-2.5879,-2.5283,-2.4962,-2.4899,-2.4675,-2.4592,-2.4672,-2.5277,-2.602,-2.69,-2.7864,-2.8503,-2.8964,-2.9418,-2.9664,-2.9834,0.0,0.0,0.0,0.0,0.0,0.0,0.0,0.0,0.0,-0.9208,0.0,0.0,0.0,0.0,-0.8763,-0.8428,-0.8176,-0.8158,-0.8446,-0.8421,0.0,0.0,0.0,0.0,-0.9106,-0.919,-0.9448,-0.9871,-1.0062,-1.1092,-1.2881,-1.3714,-1.5151,-1.7078,-1.8123,-1.8897,-1.947,-2.0268,-1.9672,-1.8293,-2.0185,-2.0713,-2.0502,-2.167,-2.19,-2.1649,0.0,0.0,0.0,-1.8799,-1.8385,-1.7954,-1.4874,-1.3366,-1.2606,-1.2015,-1.2192,-1.2662,-1.2938,-1.3111,-1.3255,-1.3398,-1.3738,-1.4261,-1.5168,0.0,-1.6903,0.0,0.0,0.0,0.0,0.0,0.0,0.0,0.0,0.0,0.0,0.0,0.0,0.0,0.0,0.0,0.0,0.0,0.0,0.0,0.0,0.0,-2.1621,-2.1661,-2.195,-2.247,-2.2596,-2.2738,-2.2952,-2.297,-2.3443,-2.4368,-2.4841,-2.5516,-2.6317,-2.5967,-2.5791,-2.5738,-2.55,-2.5291,-2.5128,-2.5676,-2.6606,-2.7738,-2.8077,-2.8647,-2.9314,-2.9491,-2.9617,-2.979,0.0,0.0,0.0,0.0,0.0,0.0,0.0,0.0,-0.9605,-0.9626,0.0,0.0,0.0,0.0,0.0,-0.8446,-0.8123,-0.807,-0.8396,-0.841,-0.8519,-0.8726,-0.8786,-0.8908,-0.9131,-0.9255,-0.968,-1.0408,-1.0735,-1.1693,-1.3212,-1.3528,-1.4544,-1.6131,-1.6994,-1.8261,-1.9812,-2.0852,-2.0444,-1.9346,-2.2111,-2.2364,-2.1548,-2.5562,-2.6001,-2.4602,-2.5433,-2.5016,0.0,-2.2104,0.0,0.0,-1.6763,-1.4063,-1.207,-1.1964,-1.2066,-1.2312,0.0,0.0,0.0,-1.3204,0.0,0.0,-1.4125,0.0,-1.5595,0.0,0.0,0.0,0.0,0.0,0.0,0.0,0.0,0.0,0.0,0.0,0.0,0.0,0.0,0.0,0.0,0.0,0.0,0.0,0.0,-2.085,-2.112,-2.1134,-2.1617,-2.2668,-2.2699,-2.2829,-2.3107,-2.3107,-2.3585,-2.4546,-2.5534,-2.6428,-2.7245,-2.7356,-2.7387,-2.7314,-2.6536,-2.5787,-2.5248,-2.6847,-2.7606,-2.7812,-2.8663,-2.9127,-2.9304,-2.9373,-2.957,-2.9921,0.0,0.0,0.0,0.0,0.0,0.0,-0.9515,-0.9499,-0.9638,0.0,0.0,0.0,-1.0554,-0.981,-0.9285,-0.927,-0.8739,-0.8547,-0.8878,-0.8814,-0.9043,-0.9686,-0.9364,-0.9393,-0.989,-0.9923,-1.0139,-1.0537,-1.0735,-1.1663,-1.327,-1.3175,-1.4136,-1.5968,-1.6398,-1.7382,-1.8821,-2.0406,-2.1316,-2.1789,-2.3109,-2.4537,-2.594,-2.6464,-2.676,0.0,0.0,-2.5985,-2.5282,0.0,-2.3064,-2.284,-1.8237,-1.5613,-1.3994,-1.2711,-1.2752,-1.3077,-1.2518,0.0,0.0,0.0,0.0,0.0,0.0,0.0,0.0,0.0,0.0,0.0,0.0,0.0,0.0,0.0,0.0,0.0,0.0,0.0,0.0,0.0,0.0,0.0,0.0,0.0,0.0,0.0,-2.1426,-2.156,-2.188,-2.2085,-2.2346,-2.2699,-2.2751,-2.2906,-2.318,-2.3082,-2.3837,-2.545,-2.5827,-2.6733,-2.8047,-2.7597,-2.7103,-2.6588,-2.6324,-2.6175,-2.6188,-2.7175,-2.7981,-2.8663,-2.8997,-2.9214,-2.9314,-2.9472,-2.9626,-2.9775,0.0,0.0,0.0,0.0,0.0,-0.9578,-1.0261,-1.0305,-1.0492,0.0,0.0,0.0,-1.0928,-1.0287,-0.9877,-0.9969,-0.9255,-0.8966,-0.9334,-0.9101,-0.9182,-0.9707,-0.9694,-0.9857,-1.0224,-1.0512,-1.078,-1.1026,-1.1146,-1.1897,-1.3178,-1.3128,-1.3903,-1.5342,-1.6059,-1.6903,-1.7862,-1.9512,-2.0971,-2.2303,-2.3424,-2.5086,-2.6981,-2.7818,-2.8367,0.0,0.0,0.0,-2.7458,-2.5495,-2.459,0.0,0.0,-1.7722,-1.6216,-1.4032,-1.3896,-1.4253,-1.3186,-1.2622,-1.2189,0.0,0.0,0.0,-1.1748,-1.2411,0.0,0.0,0.0,0.0,0.0,0.0,0.0,0.0,0.0,0.0,0.0,0.0,0.0,0.0,0.0,0.0,0.0,0.0,0.0,-2.1249,-2.1306,-2.1454,-2.1729,-2.2289,-2.2646,-2.2738,-2.3102,-2.3271,-2.3241,-2.346,-2.3992,-2.4805,-2.5637,-2.6524,-2.7435,-2.7398,-2.7351,-2.7265,-2.6558,-2.6711,-2.7515,-2.7597,-2.8185,-2.9062,-2.9181,-2.927,-2.9363,-2.9531,-2.9636,-2.971,0.0,0.0,-0.9547,-0.9737,-1.0316,-1.0782,-1.0869,-1.1277,-1.1641,0.0,-1.164,-1.133,-1.0893,-1.0577,-1.0506,-1.0814,-0.991,-0.9497,-0.9931,-0.9514,-0.9343,-0.9517,-1.0049,-1.0368,-1.044,-1.1045,-1.1439,-1.1618,-1.1759,-1.2262,-1.3118,-1.3383,-1.3924,-1.4669,-1.5965,-1.6764,-1.7219,-1.8502,-2.0034,-2.1757,-2.3375,-2.4791,-2.6292,0.0,-3.0281,-3.0141,-3.0157,-3.0097,-2.9739,-2.8084,-2.5808,0.0,0.0,0.0,0.0,0.0,-1.5305,-1.557,-1.4226,-1.3165,-1.2391,0.0,0.0,0.0,-1.1565,-1.1866,-1.2298,0.0,0.0,0.0,0.0,0.0,0.0,0.0,0.0,0.0,0.0,0.0,0.0,0.0,0.0,0.0,0.0,-2.0926,-2.0932,-2.0555,-2.0652,-2.0866,-2.1201,-2.203,-2.2573,-2.2803,-2.3501,-2.3706,-2.3301,-2.3954,-2.4044,-2.3567,-2.5291,-2.6129,-2.6243,-2.7139,-2.7912,-2.8476,-2.6956,-2.7237,-2.8716,-2.7899,-2.8168,-2.9112,-2.9249,-2.9353,-2.9441,-2.9652,-2.9777,-2.985,0.0,-0.9686,-1.0217,-1.0726,-1.0626,-1.0799,-1.1755,-1.1582,-1.1606,-1.2289,-1.2483,-1.2696,-1.2969,-1.2092,-1.1892,-1.2914,-1.1527,-1.0908,-1.1596,-1.1078,-1.1024,-1.1586,-1.1324,-1.1215,-1.1338,-1.1525,-1.1635,-1.1693,-1.1875,-1.259,-1.381,-1.4128,-1.4681,-1.5435,-1.6346,-1.7198,-1.7983,-1.8423,-2.0029,-2.2393,-2.3531,-2.5676,-2.8342,-2.9893,-3.0657,-3.0977,-3.1655,-3.1317,-3.0316,-2.88,-2.6968,-2.4927,0.0,0.0,0.0,-1.7057,0.0,0.0,0.0,0.0,0.0,0.0,0.0,0.0,-1.1212,-1.168,-1.2307,0.0,0.0,0.0,0.0,0.0,0.0,0.0,0.0,0.0,0.0,0.0,0.0,0.0,0.0,0.0,0.0,-1.9932,-2.0031,-2.0617,-2.0401,-2.0771,-2.1995,-2.1839,-2.2039,-2.2786,-2.3007,-2.3198,-2.3389,-2.3519,-2.3875,-2.4456,-2.5584,-2.6381,-2.6946,-2.7915,-2.813,-2.7671,-2.672,-2.695,-2.7959,-2.7145,-2.771,-2.9112,-2.9249,-2.9373,-2.9576,-3.0298,-3.0611,-3.0753,-1.0021,-1.0363,-1.0799,-1.1317,-1.1324,-1.1492,-1.2236,-1.2383,-1.2585,-1.3125,-1.3649,-1.4063,-1.4237,-1.376,-1.3537,-1.384,-1.3473,-1.3069,-1.2667,-1.2614,-1.251,-1.2303,-1.2121,-1.2005,-1.2008,-1.2396,-1.2456,-1.2145,-1.2691,-1.3169,-1.3616,-1.4482,-1.5197,-1.5747,-1.6747,-1.8079,-1.9548,-1.9487,-2.1493,-2.4701,-2.4087,0.0,-2.7559,-2.9056,-2.9876,-3.0329,-3.0849,-3.0639,-3.0057,-2.9788,-2.821,0.0,-2.4292,-2.3281,-2.2072,0.0,-1.7854,-1.7553,0.0,0.0,0.0,-1.2442,0.0,0.0,0.0,-1.212,-1.2734,0.0,0.0,0.0,0.0,0.0,0.0,0.0,0.0,0.0,0.0,0.0,0.0,0.0,0.0,0.0,0.0,-1.9557,-2.0021,-2.0783,-2.0659,-2.0901,-2.1701,-2.1898,-2.2254,-2.2825,-2.3362,-2.358,-2.3448,-2.3815,-2.4023,-2.4123,-2.5464,-2.6273,-2.6625,-2.7566,-2.8039,-2.8028,-2.6863,-2.71,-2.8292,-2.753,-2.7963,-2.9156,-2.931,-2.9373,-2.9507,-3.0456,-3.0824,-3.0967,-1.0691,-1.0997,-1.1295,-1.166,-1.1943,-1.2245,-1.2639,-1.3179,-1.3679,-1.4069,-1.4764,-1.5357,-1.5685,-1.5595,-1.5491,-1.5459,-1.5864,-1.5604,-1.4374,-1.4466,-1.4203,-1.3363,-1.3181,-1.2966,-1.2688,-1.3249,-1.3273,-1.2644,-1.3399,-1.3629,-1.3391,-1.4869,-1.5702,-1.6044,-1.7454,-1.9224,-2.111,-2.0818,-2.3162,-2.6862,0.0,-2.5282,-2.7163,-2.899,-2.9867,-3.0124,-3.0139,-2.9965,-2.982,-3.0503,-2.9124,-2.6932,-2.5756,-2.4489,0.0,0.0,0.0,0.0,0.0,0.0,0.0,0.0,0.0,-1.3349,0.0,0.0,0.0,0.0,0.0,0.0,0.0,0.0,0.0,0.0,0.0,0.0,0.0,0.0,0.0,0.0,0.0,0.0,0.0,-1.9125,-1.9856,-2.0458,-2.0552,-2.073,-2.112,-2.1901,-2.2508,-2.2863,-2.3716,-2.398,-2.3494,-2.426,-2.4331,-2.3778,-2.5506,-2.6309,-2.6333,-2.7242,-2.8033,-2.8609,-2.7237,-2.7517,-2.8844,-2.8095,-2.836,-2.9189,-2.9339,-2.9454,-2.9678,-3.0659,-3.1131,-3.1376,-1.1017,-1.126,-1.152,-1.1737,-1.2011,-1.247,-1.3343,-1.3594,-1.3989,-1.4854,-1.5348,-1.6422,-1.848,-1.7647,-1.786,-2.012,-1.9151,-1.8378,-1.8262,-1.7246,-1.6651,-1.6651,-1.5528,-1.4506,-1.3659,-1.3715,-1.3435,-1.2781,-1.3116,-1.3509,-1.3949,-1.5637,-1.6512,-1.6676,-1.8849,-2.0616,-2.195,-2.1857,-2.39,0.0,-2.6191,-2.7683,0.0,-3.2504,-3.3043,-3.2674,-3.2003,-3.1239,-3.0525,0.0,-2.9139,-2.769,0.0,-2.5391,-2.4267,-2.0759,0.0,0.0,0.0,0.0,0.0,0.0,-1.6346,0.0,0.0,0.0,-1.318,-1.2552,0.0,0.0,0.0,0.0,0.0,0.0,0.0,0.0,0.0,0.0,0.0,0.0,0.0,0.0,0.0,0.0,-1.8313,-1.8742,-1.8885,-1.9537,-2.0866,-2.142,-2.2035,-2.2799,-2.3202,-2.3437,-2.3505,-2.4359,-2.4741,-2.467,-2.6363,-2.7101,-2.7023,-2.8062,-2.8584,-2.857,-2.785,-2.807,-2.8844,-2.8095,-2.8327,-2.9112,-2.9251,-2.9821,-3.065,-3.1461,-3.2269,-3.3041,-1.112,-1.1402,-1.1645,-1.1727,-1.207,-1.2596,-1.3427,-1.4569,-1.573,-1.6798,-1.7208,-1.8126,-2.0146,-1.9852,-1.9887,-2.0848,-2.176,-2.1633,0.0,-2.0081,-2.0137,-2.0157,-1.768,-1.6335,-1.6405,-1.5074,-1.4184,-1.3796,-1.3697,-1.3995,-1.4681,-1.5979,-1.6899,-1.7534,-1.931,-2.1635,-2.4242,-2.4005,-2.6318,0.0,0.0,0.0,0.0,-3.1085,-3.0781,-3.1207,-3.2263,-3.2086,-3.1322,0.0,-3.0126,0.0,0.0,0.0,0.0,0.0,0.0,0.0,0.0,0.0,0.0,0.0,0.0,0.0,-1.5513,0.0,-1.3837,0.0,0.0,0.0,0.0,0.0,0.0,0.0,0.0,0.0,0.0,0.0,0.0,0.0,0.0,0.0,0.0,0.0,0.0,0.0,0.0,-1.8974,-2.024,-2.1011,-2.1893,-2.2884,-2.3241,-2.3661,-2.4183,-2.4598,-2.5034,-2.5506,-2.668,-2.7246,-2.7307,-2.8219,-2.865,-2.8657,-2.8439,-2.8523,-2.8809,-2.8585,-2.8761,-2.9211,-2.9728,-3.0202,-3.062,-3.1057,-3.1733,-3.2568,-1.1136,-1.144,-1.1637,-1.1701,-1.2197,-1.293,-1.3991,-1.5807,-1.7482,-1.8709,-1.9195,-2.0289,-2.2595,-2.2692,-2.2745,-2.3098,-2.4881,-2.4986,0.0,-2.2773,-2.2967,-2.3016,-1.9969,-1.8629,-1.9342,-1.7198,-1.5918,-1.5538,-1.4887,-1.4808,-1.5265,-1.6302,-1.7122,-1.7764,-1.9503,-2.2118,-2.5269,-2.5497,-2.8106,-3.2043,-3.2003,-3.2436,-3.2885,-3.0784,-3.0055,-3.0401,-3.2401,-3.2385,-3.1532,-3.1907,-3.0985,0.0,-2.8914,0.0,0.0,0.0,0.0,0.0,-2.4038,0.0,0.0,0.0,0.0,0.0,0.0,0.0,0.0,0.0,0.0,0.0,0.0,0.0,0.0,0.0,0.0,0.0,0.0,0.0,0.0,0.0,0.0,0.0,0.0,0.0,0.0,-1.7782,-1.8095,-1.8677,-1.9667,-2.0746,-2.1812,-2.2859,-2.3277,-2.3868,-2.4694,-2.498,-2.553,-2.6337,-2.7153,-2.7601,-2.7713,-2.8353,-2.8644,-2.8694,-2.8798,-2.8822,-2.8834,-2.8959,-2.9214,-2.9588,-3.0191,-3.0594,-3.0873,-3.0979,-3.1387,-3.2027,-1.1124,-1.1306,-1.1496,-1.1756,-1.2453,-1.3609,-1.5535,-1.7306,-1.8892,-2.0168,-2.1011,-2.2914,-2.6611,-2.6496,-2.6919,-2.8855,-2.899,-2.8327,-2.6788,0.0,-2.4485,-2.4803,-2.2542,-2.1535,-2.2071,-2.028,-1.8965,-1.8166,-1.6734,-1.5878,-1.5604,-1.676,-1.7165,-1.7049,-1.9567,-2.1882,-2.3964,-2.5643,-2.8395,-3.1654,-3.2034,-3.2057,-3.2022,0.0,-3.3226,-3.1854,-3.2781,0.0,0.0,-3.1839,-3.1385,0.0,0.0,0.0,0.0,0.0,0.0,0.0,0.0,0.0,0.0,-2.2673,0.0,0.0,0.0,0.0,-1.5327,0.0,0.0,0.0,0.0,0.0,-1.4259,-1.3542,0.0,0.0,0.0,0.0,0.0,0.0,0.0,0.0,0.0,0.0,0.0,-1.7017,-1.7828,-1.8604,-1.929,-2.0638,-2.1769,-2.2594,-2.3126,-2.3821,-2.4694,-2.5536,-2.6368,-2.7158,-2.798,-2.8396,-2.8469,-2.8632,-2.8694,-2.8706,-2.8827,-2.8905,-2.8905,-2.8964,-2.9527,-3.0364,-3.0446,-3.1014,-3.1756,-3.1756,-3.186,-3.2003,-1.2927,-1.27,-1.2472,-1.2526,-1.3279,-1.452,-1.645,-1.8923,-2.1,-2.2281,-2.2929,-2.4629,-2.8198,-2.8411,-2.8614,0.0,0.0,-2.9244,-2.8768,-2.7169,0.0,0.0,0.0,-2.4664,-2.5364,-2.2592,-2.11,-2.0962,-1.8498,-1.7597,-1.8185,-1.7809,-1.7833,-1.8303,-1.9963,-2.2301,-2.5108,0.0,0.0,0.0,0.0,-3.2763,-3.2351,0.0,0.0,-3.1638,-3.2431,-3.2787,0.0,-3.2813,-3.2554,-3.2126,-3.1298,-3.0942,-3.0752,-3.0458,-3.0273,0.0,0.0,0.0,-2.8551,-2.5826,0.0,0.0,0.0,0.0,0.0,0.0,0.0,0.0,0.0,0.0,-1.5961,-1.4561,-1.4045,0.0,0.0,0.0,0.0,0.0,0.0,0.0,0.0,0.0,0.0,-1.663,-1.7013,-1.7685,0.0,-1.9823,-2.0926,-2.2044,-2.2851,-2.3969,-2.5396,-2.5816,-2.6666,-2.7998,-2.8267,-2.8484,-2.8632,-2.8582,-2.8632,-2.881,-2.9387,-2.9345,-2.8953,-2.9591,-3.007,-3.0457,-3.1057,-3.1496,-3.1738,-3.1199,-3.1057,-3.1233,-1.3752,-1.3595,-1.3395,-1.3309,-1.4762,-1.661,-1.858,0.0,-2.3559,-2.5062,-2.5708,0.0,-3.0064,0.0,-3.0573,0.0,-3.0986,-3.0851,-3.0582,-2.8812,0.0,-3.092,-2.8075,-2.7048,0.0,0.0,-2.4127,-2.3969,-2.1019,-1.958,-1.9579,-1.8515,-1.819,-1.8602,-1.9908,-2.2148,-2.5082,-2.7564,-2.9697,0.0,0.0,-3.3608,0.0,0.0,-3.2407,-3.1434,0.0,-3.3285,-3.3596,-3.3477,-3.3535,-3.3445,-3.2674,-3.2611,-3.2827,-3.2837,-3.2731,-3.2536,-3.2051,-3.1644,0.0,-2.7409,-2.5934,0.0,-2.1989,0.0,0.0,0.0,0.0,0.0,0.0,0.0,0.0,-1.5623,-1.4784,-1.4066,0.0,-1.3371,0.0,0.0,0.0,0.0,0.0,0.0,-1.6146,-1.6683,-1.6818,-1.7329,0.0,0.0,-2.0533,-2.1616,-2.2986,-2.4371,-2.5788,-2.6185,-2.7072,-2.8411,-2.8411,-2.8642,-2.9074,-2.8714,-2.8933,-2.9635,-2.9891,-2.9905,-2.9777,-3.0147,-3.0683,-3.1288,-3.161,-3.1945,-3.2128,-3.1329,-3.0889,-3.0889,-1.3688,-1.404,-1.4301,-1.4222,-1.6863,-1.9674,-2.1662,0.0,-2.6279,0.0,-2.9018,-3.0161,-3.2177,-3.2482,-3.2752,-3.334,-3.3404,-3.3077,-3.2243,-3.0145,0.0,0.0,-2.8925,-2.8768,-3.1055,0.0,0.0,0.0,0.0,-2.1702,-1.9938,-1.8943,-1.8297,-1.8033,-1.9473,-2.1457,-2.3941,-2.7089,-2.9465,-3.1428,-3.4228,-3.437,-3.2941,-3.3492,-3.2663,-3.1428,-3.3351,-3.3498,-3.2923,-3.3799,-3.4201,-3.4186,-3.3486,-3.3346,-3.3489,-3.363,-3.3159,-3.2599,-3.2566,-3.2094,-3.0843,-2.7624,0.0,0.0,0.0,0.0,-2.2489,0.0,0.0,0.0,0.0,0.0,0.0,-1.6707,-1.5092,-1.3784,0.0,0.0,0.0,0.0,0.0,0.0,0.0,-1.6349,-1.6943,-1.707,-1.7149,-1.7501,0.0,0.0,-2.0602,-2.1318,-2.3395,-2.4899,-2.5775,-2.6619,-2.7502,-2.8398,-2.8447,-2.8935,-2.9766,-2.9047,-2.958,-3.1074,-3.0407,-3.0574,-3.1259,-3.0674,-3.1365,-3.2736,-3.2108,-3.2332,-3.2908,-3.2091,-3.1395,-3.1061,-1.5152,-1.5724,-1.6337,-1.7014,-1.8999,-2.1038,0.0,0.0,0.0,0.0,-2.8753,-2.9485,-3.3355,-3.3187,-3.3349,-3.4747,-3.3427,0.0,0.0,0.0,0.0,-3.2674,-3.0548,-3.0328,-3.2505,-2.9383,-2.8244,-2.9238,0.0,-2.2658,-2.2152,-2.0305,-1.9285,-1.9059,-2.0046,-2.1918,-2.4412,-2.6333,-2.9164,-3.2412,-3.4063,-3.3875,0.0,0.0,-3.3319,-3.2224,-3.2825,-3.3493,-3.4056,-3.4185,-3.4275,-3.4267,-3.4088,-3.4121,-3.4243,-3.4387,-3.435,-3.4157,-3.3611,-3.3261,-3.2593,-3.0593,-2.9529,-2.8645,0.0,0.0,0.0,0.0,0.0,0.0,0.0,0.0,0.0,-1.7841,-1.585,0.0,0.0,0.0,0.0,-1.5159,0.0,0.0,0.0,-1.6407,-1.6688,-1.6857,-1.693,0.0,0.0,0.0,0.0,-2.0429,-2.222,-2.3903,-2.5402,-2.5938,-2.6926,-2.8327,-2.9026,-2.9543,-2.9886,-3.0232,-3.0698,-3.1269,-3.1678,-3.1675,-3.1408,-3.1949,-3.244,-3.2864,-3.2743,-3.2816,-3.2908,-3.2143,-3.2121,-3.2557,-1.599,-1.6616,-1.7443,-1.8393,0.0,0.0,-2.438,-2.5883,0.0,-3.103,-3.0334,0.0,-3.3873,-3.4046,-3.416,-3.4706,-3.4032,0.0,-3.3684,0.0,0.0,-3.4069,-3.2014,-3.1847,-3.4058,-3.1277,0.0,-3.0033,0.0,-2.3706,-2.2293,-2.0419,-1.9545,-1.9592,-2.0295,-2.208,-2.477,-2.7436,-3.0123,-3.2659,-3.4199,-3.4158,0.0,-3.432,-3.4117,-3.3312,-3.3386,-3.3794,-3.4325,-3.43,-3.43,-3.4325,-3.4448,-3.4521,-3.4618,-3.4756,-3.4851,-3.4733,-3.3942,-3.3697,-3.3393,-3.2136,-3.1405,-3.0739,-2.9755,-2.9053,-2.8361,0.0,0.0,0.0,0.0,0.0,0.0,0.0,0.0,0.0,0.0,0.0,0.0,0.0,-1.6003,0.0,0.0,0.0,-1.6686,-1.6911,0.0,0.0,0.0,0.0,0.0,-2.023,-2.2686,-2.4502,-2.5522,-2.6462,-2.7614,-2.8914,-2.9445,-3.0143,-3.0947,-3.0989,-3.1461,-3.2251,-3.2062,-3.1931,-3.1909,-3.2225,-3.258,-3.2944,-3.3356,-3.3533,-3.352,-3.3108,-3.3007,-3.3161,-1.6657,-1.7364,-1.8301,-1.902,0.0,0.0,0.0,-2.8066,0.0,-3.2509,0.0,-3.2475,-3.4034,-3.4694,-3.4839,-3.4344,0.0,-3.4911,-3.3994,-3.3699,-3.4017,-3.513,-3.3244,-3.3195,-3.5461,-3.3478,-3.1771,0.0,0.0,-2.468,-2.1883,-2.0167,-1.9551,-1.9865,-2.053,-2.2412,0.0,-2.9261,-3.1552,-3.265,-3.4481,-3.4813,-3.4311,-3.4968,-3.4809,-3.4275,-3.4275,-3.4226,-3.4176,-3.4275,-3.43,-3.4349,-3.4594,-3.4667,-3.4691,-3.4851,-3.4899,-3.4726,-3.3964,-3.3869,-3.3733,-3.2852,-3.2574,-3.2138,-3.062,-3.0158,-2.9788,-2.8936,-2.78,-2.7082,0.0,0.0,0.0,0.0,0.0,0.0,0.0,0.0,0.0,0.0,0.0,0.0,0.0,0.0,0.0,0.0,0.0,0.0,0.0,0.0,0.0,-2.0663,-2.3791,0.0,-2.6059,0.0,-2.8829,-2.985,-2.9967,-3.0772,-3.2124,-3.1583,-3.2069,-3.3298,-3.214,-3.1973,-3.2494,-3.223,-3.2502,-3.3153,-3.393,-3.4269,-3.4305,-3.4305,-3.3876,-3.3384,-1.8203,-1.9598,-2.0476,-1.9978,0.0,-2.6961,-2.7403,-2.8207,-2.9689,-3.2315,-3.1131,-3.1275,-3.4428,-3.4105,-3.4419,-3.6283,-3.5748,0.0,0.0,0.0,0.0,-3.5542,-3.3865,-3.3962,-3.6187,-3.3039,-3.172,0.0,0.0,0.0,-2.4084,-2.149,-2.023,-2.0192,-2.1504,-2.3996,-2.7325,-2.9693,0.0,-3.355,-3.4726,-3.513,-3.5033,-3.5163,-3.4758,-3.4126,-3.4126,-3.425,-3.4423,-3.4325,-3.43,-3.4325,-3.4497,-3.4546,-3.457,-3.4828,-3.4899,-3.4866,-3.471,-3.47,-3.4471,-3.3494,-3.3243,-3.2812,-3.1148,-3.0733,-3.05,-2.9755,-2.8984,-2.8267,-2.7695,0.0,0.0,0.0,0.0,0.0,0.0,0.0,0.0,0.0,0.0,-1.6866,0.0,0.0,0.0,0.0,0.0,0.0,0.0,0.0,0.0,0.0,-2.3576,0.0,0.0,0.0,-2.9067,-3.0624,-3.1386,-3.1592,-3.1342,-3.2532,-3.2911,-3.2702,-3.3148,-3.3104,-3.2728,-3.3401,-3.3839,-3.4076,-3.433,-3.4427,-3.4374,-3.4374,-3.4265,-3.4118,-1.9258,-2.0309,-2.1159,-2.1316,0.0,0.0,0.0,-2.9636,-3.1075,-3.2329,-3.1457,-3.1766,-3.4519,-3.4651,-3.501,-3.6135,-3.6106,-3.583,-3.537,-3.5431,-3.5736,-3.6333,-3.5147,-3.5233,-3.6943,-3.433,-3.2866,-3.2656,0.0,0.0,-2.4411,0.0,-2.1727,-2.1537,-2.3977,-2.6274,0.0,0.0,0.0,-3.3144,-3.5023,-3.5299,-3.4651,-3.5065,-3.4732,-3.4101,-3.4101,-3.4226,-3.4399,-3.4325,-3.43,-3.4325,-3.4448,-3.4546,-3.4618,-3.4763,-3.4851,-3.4899,-3.4828,-3.4804,-3.4657,-3.4119,-3.3876,-3.338,-3.1895,-3.1408,-3.0969,-2.9958,-2.9129,-2.8244,-2.7121,-2.4909,0.0,0.0,0.0,0.0,0.0,0.0,0.0,0.0,0.0,0.0,0.0,0.0,0.0,0.0,0.0,0.0,0.0,0.0,0.0,0.0,0.0,0.0,0.0,0.0,0.0,-3.0808,-3.1761,-3.2268,-3.2415,-3.3132,-3.3291,-3.3017,-3.3094,-3.2936,-3.2684,-3.3284,-3.3819,-3.4305,-3.4363,-3.4708,-3.5135,-3.5135,-3.5374,-3.5581,-2.072,-2.1626,-2.256,0.0,-2.6225,0.0,-2.9145,-3.0968,-3.2376,-3.2542,-3.229,-3.2808,-3.4668,-3.5332,-3.5673,-3.5722,-3.6291,-3.6338,-3.5569,-3.6399,-3.6876,-3.672,-3.624,-3.6328,-3.7109,-3.5689,-3.4381,0.0,0.0,0.0,0.0,0.0,0.0,0.0,0.0,0.0,0.0,0.0,-3.3268,-3.3342,-3.5485,-3.5659,-3.4644,-3.5228,-3.4862,-3.4101,-3.4025,-3.4075,-3.4176,-3.4201,-3.425,-3.4325,-3.4448,-3.457,-3.4667,-3.4691,-3.4763,-3.4828,-3.4691,-3.4667,-3.4618,-3.4497,-3.4275,-3.3753,-3.2414,-3.1838,-3.1246,-2.9942,-2.8986,-2.8003,-2.6757,-2.5302,0.0,0.0,0.0,0.0,0.0,0.0,0.0,0.0,0.0,0.0,-1.6995,0.0,0.0,0.0,0.0,-1.7608,-1.8767,-1.9588,0.0,0.0,0.0,-2.4857,-2.6062,0.0,-2.9335,0.0,-3.1848,-3.2609,-3.3308,-3.3375,-3.3361,-3.3233,-3.2912,-3.2845,-3.2937,-3.3005,-3.3531,-3.4323,-3.4533,-3.5107,-3.5825,-3.5993,-3.6461,-3.6793,0.0,0.0,0.0,0.0,0.0,0.0,-2.9955,-3.1074,-3.2307,-3.3016,-3.3093,-3.3686,-3.523,-3.5475,-3.5768,-3.6338,-3.6492,-3.6523,-3.6569,-3.6662,-3.6475,-3.5854,-3.6488,-3.6565,-3.5882,-3.5864,-3.5829,0.0,0.0,0.0,0.0,0.0,0.0,0.0,0.0,0.0,0.0,-3.2285,-3.377,-3.5958,-3.6322,-3.6358,-3.6176,-3.6178,-3.5325,-3.4075,-3.3822,-3.3761,-3.3771,-3.3899,-3.4101,-3.4325,-3.4448,-3.4497,-3.4546,-3.4667,-3.4707,-3.4691,-3.4546,-3.4521,-3.4497,-3.4349,-3.4201,-3.3703,-3.2168,-3.1702,-3.1198,-2.9806,-2.8869,-2.8108,-2.7433,-2.647,-2.5305,0.0,0.0,0.0,0.0,0.0,-1.853,-1.8405,0.0,0.0,0.0,-1.9862,0.0,0.0,-1.7891,-1.7575,-1.9495,-1.9853,-2.1516,-2.4824,0.0,-2.6377,-2.8887,-2.9219,-3.0191,-3.1796,-3.2129,-3.23,-3.2371,-3.3139,-3.311,-3.2451,-3.3309,-3.3823,-3.4006,-3.3364,-3.3566,-3.4379,-3.5299,-3.5719,-3.5881,-3.6623,-3.6941,-3.6967,0.0,0.0,0.0,0.0,0.0,0.0,0.0,-3.0904,-3.1965,-3.2745,-3.2968,-3.3661,-3.5156,-3.5263,-3.5309,-3.5584,-3.6044,-3.5937,-3.5019,-3.6061,-3.6398,-3.5715,-3.6519,-3.6919,-3.6772,-3.6742,-3.6568,0.0,0.0,0.0,0.0,0.0,0.0,0.0,0.0,-3.1801,-3.3294,-3.3829,-3.4314,-3.4838,-3.5946,-3.5699,-3.4721,-3.5287,-3.4836,-3.3848,-3.3745,-3.3745,-3.3822,-3.3873,-3.4025,-3.4201,-3.425,-3.4423,-3.4618,-3.4594,-3.4643,-3.4691,-3.4618,-3.4497,-3.4349,-3.4226,-3.4025,-3.359,-3.252,-3.1788,-3.1133,-3.0272,-2.9134,-2.8186,-2.7884,-2.6889,-2.5693,0.0,0.0,0.0,0.0,0.0,0.0,-1.9888,0.0,-1.969,0.0,0.0,0.0,0.0,0.0,-1.8857,-2.0218,-2.0572,-2.2097,-2.5132,0.0,-2.6525,-2.9089,-2.9844,-3.0805,-3.1963,-3.2683,-3.3047,-3.3117,-3.3417,-3.3423,-3.3209,-3.3673,-3.3972,-3.413,-3.3875,-3.3971,-3.4342,-3.4743,-3.5537,-3.6495,-3.6873,-3.761,-3.8434,-2.6783,0.0,-2.725,0.0,-2.9001,-2.9653,-2.974,-3.0703,-3.178,-3.2751,-3.3065,-3.3817,-3.5416,-3.5492,-3.5323,-3.5033,-3.5521,-3.5368,-3.4243,-3.5493,-3.6106,-3.5671,-3.6519,0.0,-3.6897,-3.71,-3.7004,-3.6591,-3.5899,0.0,0.0,0.0,0.0,0.0,-3.2263,-3.3189,-3.3931,-3.4574,-3.452,-3.4136,-3.5453,-3.5164,-3.4026,-3.4732,-3.4474,-3.3761,-3.3684,-3.3694,-3.3771,-3.3822,-3.3873,-3.3949,-3.4101,-3.4325,-3.4521,-3.4448,-3.4472,-3.4521,-3.4521,-3.4349,-3.4176,-3.4126,-3.3899,-3.3496,-3.2616,-3.1803,-3.1052,-3.0251,-2.9234,-2.8392,-2.8081,-2.7267,-2.6278,-2.5128,0.0,0.0,0.0,0.0,0.0,0.0,-2.0514,-2.0263,-2.0785,-2.053,0.0,0.0,0.0,0.0,-2.0676,-2.1467,0.0,0.0,0.0,0.0,0.0,-3.0273,-3.1124,-3.2021,-3.2799,-3.334,-3.3657,-3.3605,-3.3643,-3.3788,-3.3842,-3.3947,-3.4074,-3.4161,-3.4221,-3.4264,-3.456,-3.5428,-3.6596,-3.7149,-3.8066,-3.9088,-2.7929,-2.8226,-2.8752,-2.8947,-2.9214,-2.9391,-2.9406,-3.0485,-3.1841,-3.332,-3.3652,-3.447,-3.6307,-3.6476,-3.6075,-3.5094,-3.5018,-3.5018,-3.5002,-3.5187,-3.5385,0.0,0.0,-3.6536,-3.5537,-3.6639,-3.715,-3.6999,0.0,0.0,-3.3447,0.0,-3.1831,-3.2147,-3.3332,-3.3899,-3.3899,-3.3915,-3.424,-3.4803,-3.5108,-3.5108,-3.4987,-3.5003,-3.4552,-3.3848,-3.3607,-3.3503,-3.3529,-3.3658,-3.3633,-3.3607,-3.4126,-3.4226,-3.4126,-3.4275,-3.4201,-3.4101,-3.4101,-3.4,-3.3924,-3.4075,-3.3899,-3.3418,-3.2264,-3.1686,-3.0958,-2.9422,-2.899,-2.87,-2.8018,-2.7786,-2.7317,-2.6172,0.0,0.0,0.0,0.0,0.0,-2.2481,-2.2814,-2.3371,-2.4163,0.0,0.0,0.0,0.0,0.0,0.0,0.0,0.0,-2.6412,-2.8222,0.0,-3.0371,-3.0588,-3.1131,-3.2003,-3.2292,-3.2835,-3.3605,-3.3534,-3.3619,-3.3807,-3.3807,-3.3868,-3.4011,-3.4148,-3.4161,-3.4198,-3.5194,-3.5609,-3.5826,-3.7548,-3.8203,-3.8346,-2.9524,-2.976,-3.0008,-3.0084,-3.0144,-3.0088,-2.9682,-3.0485,-3.1516,-3.2557,-3.3412,-3.4531,-3.6136,-3.6226,-3.5872,0.0,-3.5506,-3.5353,0.0,-3.5493,-3.606,-3.5641,-3.6594,-3.7055,-3.6882,-3.7235,-3.7375,-3.7331,0.0,0.0,0.0,-3.3319,-3.3023,-3.322,-3.3598,-3.3771,-3.3771,-3.3771,-3.3708,-3.3667,-3.4046,-3.3942,-3.3587,-3.3863,-3.3772,-3.3477,-3.3398,-3.3346,-3.3372,-3.3529,-3.3529,-3.3555,-3.3797,-3.3924,-3.4,-3.4126,-3.4126,-3.4126,-3.4226,-3.4151,-3.4025,-3.3975,-3.3528,-3.2987,-3.2513,-3.1566,-3.0465,-2.9334,-2.9075,-2.8919,-2.8568,-2.8084,-2.7623,-2.7334,-2.6288,0.0,0.0,0.0,0.0,-2.5969,-2.464,-2.3978,0.0,-2.5259,0.0,0.0,0.0,0.0,0.0,0.0,0.0,0.0,-2.942,0.0,-3.2349,-3.2589,-3.3071,-3.3836,-3.3985,-3.4185,-3.4479,-3.3903,-3.3698,-3.3788,-3.386,-3.3908,-3.4011,-3.4099,-3.4148,-3.4191,-3.4519,-3.5014,-3.5659,-3.6827,-3.7617,-3.8265,-3.0174,-3.0048,-2.9992,-3.0283,-3.0185,-3.0042,-2.9913,-3.0573,-3.1486,-3.2526,-3.3442,-3.4547,-3.5979,-3.6163,0.0,-3.5063,-3.5476,-3.5323,-3.4303,-3.5447,-3.6167,-3.6193,-3.6839,-3.7254,-3.7375,0.0,0.0,-3.7405,-3.674,-3.571,-3.4331,-3.3985,-3.3715,-3.3555,-3.3555,-3.3555,-3.3555,-3.3503,-3.3335,-3.3123,-3.3424,-3.3361,-3.3085,-3.3372,-3.345,-3.3388,-3.3388,-3.3388,-3.3414,-3.3529,-3.3503,-3.345,-3.3581,-3.3658,-3.372,-3.3949,-3.4,-3.4,-3.4176,-3.4126,-3.4025,-3.3975,-3.3376,-3.2642,-3.1982,-3.095,-2.9922,-2.9239,-2.9052,-2.8982,-2.8842,-2.8326,-2.7938,-2.7849,-2.7221,-2.6894,-2.7332,0.0,0.0,0.0,0.0,0.0,0.0,-2.6438,0.0,0.0,0.0,0.0,0.0,0.0,0.0,-2.9197,-3.0739,0.0,-3.3196,-3.3419,-3.3775,-3.4251,-3.428,-3.4502,-3.4848,-3.4308,-3.425,-3.4566,-3.4339,-3.4293,-3.4323,-3.4114,-3.4049,-3.4099,-3.4148,-3.4495,-3.5132,-3.6354,-3.7131,-3.7791,-3.005,-2.9397,0.0,0.0,-2.9611,0.0,-3.0222,-3.0761,-3.1649,-3.3104,-3.3698,-3.4486,-3.5853,-3.6289,-3.6106,-3.517,0.0,0.0,0.0,-3.5294,-3.5875,-3.6938,-3.7119,-3.7194,-3.7194,-3.7405,-3.7373,-3.7145,-3.6603,-3.5562,-3.4113,-3.4175,-3.3866,-3.3282,-3.3282,-3.3282,-3.324,-3.3123,-3.3085,-3.3069,-3.3229,-3.3282,-3.3282,-3.3424,-3.3477,-3.3477,-3.3477,-3.3477,-3.3503,-3.3633,-3.3503,-3.3309,-3.3424,-3.3372,-3.3388,-3.3771,-3.3797,-3.3761,-3.4025,-3.4,-3.3949,-3.405,-3.3419,-3.2353,-3.0965,-3.0053,-2.945,-2.9183,-2.9013,-2.8897,-2.8803,-2.8604,-2.8276,-2.7882,-2.7922,-2.7892,-2.7503,0.0,0.0,0.0,0.0,0.0,0.0,-2.7328,-2.7859,0.0,0.0,0.0,0.0,0.0,-2.8997,-3.0025,-3.2034,-3.3086,-3.3086,-3.3286,-3.3491,-3.364,-3.3655,-3.412,-3.4962,-3.4833,-3.5184,-3.5872,-3.5184,-3.4914,-3.4928,-3.4238,-3.3973,-3.3981,-3.4067,-3.4136,-3.4402,-3.6143,-3.6826,-3.7118,0.0,0.0,-3.0176,-3.0993,-3.065,-3.0523,-3.1298,-3.1233,-3.1649,-3.3104,-3.3606,-3.4394,-3.5821,-3.6148,-3.6244,-3.6137,-3.6152,-3.6152,-3.6152,-3.6307,-3.6492,-3.6754,-3.7043,-3.7194,-3.7194,-3.7405,-3.7212,-3.6571,-3.5951,-3.5117,-3.4097,-3.3621,-3.3253,-3.3005,-3.3005,-3.3005,-3.3005,-3.2951,-3.2854,-3.273,-3.3043,-3.3085,-3.3032,-3.3256,-3.3361,-3.3361,-3.3361,-3.3361,-3.3335,-3.3282,-3.3203,-3.3139,-3.3043,-3.3096,-3.3229,-3.3633,-3.372,-3.3736,-3.3899,-3.4,-3.4025,-3.3975,-3.3064,-3.1941,-3.1045,-3.0219,-2.9586,-2.9305,-2.9144,-2.8982,-2.8842,-2.8747,-2.8708,-2.8762,-2.8381,-2.8037,-2.7951,-2.685,0.0,0.0,-2.7232,-2.7196,-2.8144,-2.8828,-2.886,0.0,0.0,0.0,0.0,-2.9638,-2.9986,-3.0661,-3.2057,-3.2864,-3.3026,-3.3316,-3.405,-3.5183,-3.5278,-3.576,-3.6539,-3.5908,-3.5757,-3.5964,-3.5781,-3.5693,-3.5624,-3.4989,-3.4738,-3.4697,-3.4264,-3.4506,-3.5217,-3.6315,-3.7141,-3.7869,-3.0038,-3.0144,-3.0567,-3.1676,-3.1408,-3.1353,-3.2438,-3.2216,-3.2356,-3.3486,-3.3979,-3.4681,-3.5867,-3.6116,-3.6274,-3.6492,-3.6492,-3.6492,-3.6492,-3.6585,-3.6631,-3.6693,-3.6861,-3.7043,-3.7194,-3.73,-3.69,-3.5947,-3.59,-3.5061,-3.3564,-3.3474,-3.3205,-3.2746,-3.2703,-3.2676,-3.2676,-3.2609,-3.2539,-3.2508,-3.2715,-3.2866,-3.3005,-3.3085,-3.315,-3.3203,-3.3203,-3.3203,-3.3203,-3.3203,-3.315,-3.3096,-3.3085,-3.3058,-3.3096,-3.3581,-3.3694,-3.3745,-3.3949,-3.4,-3.3919,-3.3496,-3.2803,-3.1967,-3.1039,-3.0392,-3.0014,-2.9913,-2.9798,-2.9635,-2.9462,-2.9438,-2.9352,-2.9138,-2.8582,-2.8211,-2.8277,-2.7434,0.0,-2.8324,-2.8116,-2.8271,-2.9211,-2.9572,-2.954,-2.9087,0.0,0.0,-3.0468,-3.0679,-3.0944,-3.1306,-3.2107,-3.2621,-3.282,-3.3507,-3.4322,-3.5253,-3.5569,-3.6198,-3.7071,-3.6622,-3.6604,-3.6942,-3.6599,-3.6469,-3.6443,-3.5743,-3.5516,-3.5564,-3.5301,-3.5491,-3.6004,-3.692,-3.7549,-3.8077,-2.9822,-2.9974,-3.0573,-3.2025,-3.1867,-3.1961,-3.33,-3.3208,-3.324,-3.392,-3.4394,-3.4996,-3.5866,-3.6085,-3.6242,-3.6445,-3.6492,-3.6492,-3.6492,-3.6492,-3.6554,-3.6662,-3.6693,-3.6846,-3.7164,-3.7194,-3.6654,-3.5524,-3.5941,-3.509,-3.3041,-3.3466,-3.3246,-3.2523,-3.2413,-3.2342,-3.2342,-3.2219,-3.2247,-3.237,-3.237,-3.2633,-3.3016,-3.2897,-3.2935,-3.3085,-3.3085,-3.3085,-3.3069,-3.3176,-3.3123,-3.3043,-3.3134,-3.3043,-3.3005,-3.3503,-3.3684,-3.3745,-3.4,-3.3975,-3.3728,-3.3117,-3.2743,-3.2235,-3.1236,-3.0782,-3.0593,-3.0734,-3.0648,-3.0537,-3.0434,-3.0331,-3.0062,-2.9444,-2.8853,-2.8449,-2.8456,0.0,-2.786,-2.848,-2.8629,-2.9042,-2.9955,-2.9891,-3.0011,-3.0502,-3.0613,-3.0814,0.0,-3.1406,-3.1615,-3.1744,-3.2091,-3.244,-3.2782,-3.3895,-3.4618,-3.4981,-3.5477,-3.625,-3.7239,-3.7209,-3.752,-3.8082,-3.7466,-3.7239,-3.7294,-3.6523,-3.6285,-3.645,-3.6496,-3.657,-3.6782,-3.7585,-3.7968,-3.8172,-2.9974,-3.008,-3.0573,-3.2025,-3.1867,-3.1961,-3.33,-3.3208,-3.324,-3.392,-3.4314,-3.4838,-3.5659,-3.5926,-3.6085,-3.6242,-3.6383,-3.6492,-3.6492,-3.6492,-3.6523,-3.6523,-3.6631,-3.6785,-3.703,-3.715,-3.6847,-3.6077,-3.5315,-3.447,-3.3557,-3.2826,-3.241,-3.2247,-3.2122,-3.2066,-3.2066,-3.2038,-3.2122,-3.2247,-3.2247,-3.2413,-3.2676,-3.2645,-3.2769,-3.2924,-3.2924,-3.2924,-3.2924,-3.2757,-3.2687,-3.266,-3.2563,-3.2703,-3.2951,-3.3282,-3.3529,-3.372,-3.3873,-3.3822,-3.3729,-3.3728,-3.3162,-3.254,-3.2366,-3.1854,-3.1414,-3.1438,-3.1438,-3.1398,-3.1374,-3.0911,-3.0503,-3.0475,-2.9729,-2.8946,-2.8417,0.0,-2.8952,-2.8413,-2.904,-2.9832,-3.0678,-3.0182,-3.0179,-3.1095,-3.0768,-3.0692,-3.1015,-3.119,-3.1346,-3.1536,-3.1929,-3.2634,-3.3697,-3.4599,-3.5449,-3.6231,-3.6593,-3.7147,-3.7854,-3.7976,-3.8115,-3.8256,-3.808,-3.8059,-3.8069,-3.733,-3.7061,-3.7094,-3.667,-3.692,-3.7544,-3.7739,-3.8285,-3.892,-2.9898,-3.0083,-3.0651,-3.2057,-3.2171,-3.253,-3.3922,-3.4079,-3.4186,-3.4593,-3.4865,-3.5194,-3.5657,-3.5863,-3.6053,-3.6179,-3.6383,-3.6492,-3.6492,-3.6492,-3.6492,-3.6492,-3.6554,-3.6677,-3.6831,-3.6655,-3.6213,-3.5509,-3.4592,-3.3795,-3.3085,-3.2483,-3.2163,-3.2094,-3.2025,-3.1896,-3.1739,-3.1855,-3.1927,-3.1996,-3.1996,-3.215,-3.2385,-3.2302,-3.2413,-3.2621,-3.2539,-3.2636,-3.2718,-3.2551,-3.2551,-3.2621,-3.2648,-3.2703,-3.2827,-3.3266,-3.3607,-3.3797,-3.3813,-3.3694,-3.3607,-3.3684,-3.3377,-3.3001,-3.2668,-3.2398,-3.2207,-3.224,-3.2272,-3.2312,-3.2312,-3.2104,-3.1798,-3.1363,-3.0642,0.0,0.0,-3.0029,-3.0184,-2.9845,-3.0616,-3.1336,-3.1775,-3.1188,-3.098,-3.1517,-3.1129,-3.0975,-3.1157,-3.1312,-3.1669,-3.2175,-3.2534,-3.3247,-3.4428,-3.5332,-3.6024,-3.6504,-3.716,-3.7676,-3.8069,-3.8174,-3.8207,-3.8188,-3.8207,-3.8207,-3.8168,-3.7952,-3.7932,-3.8038,-3.7864,-3.8038,-3.8413,-3.8479,-3.8758,-3.9087,-3.0128,-3.0389,-3.0933,-3.2086,-3.2449,-3.2954,-3.4236,-3.4681,-3.4935,-3.5082,-3.5294,-3.5489,-3.5574,-3.5782,-3.5941,-3.607,-3.632,-3.6414,-3.6414,-3.6414,-3.6414,-3.6414,-3.6492,-3.6477,-3.643,-3.6241,-3.5724,-3.4823,-3.4123,-3.3434,-3.2743,-3.2311,-3.2066,-3.1996,-3.1968,-3.1783,-3.1523,-3.1712,-3.1799,-3.1799,-3.1756,-3.1912,-3.215,-3.2038,-3.215,-3.2342,-3.2259,-3.2385,-3.2551,-3.2425,-3.2496,-3.2621,-3.2773,-3.2773,-3.2812,-3.3319,-3.3633,-3.3797,-3.3745,-3.3633,-3.3503,-3.3503,-3.3503,-3.3386,-3.2905,-3.2894,-3.2994,-3.3053,-3.3135,-3.3176,-3.3176,-3.3145,-3.2878,-3.22,0.0,0.0,0.0,-3.1117,-3.1193,-3.1365,-3.1978,-3.2495,-3.2842,-3.2271,-3.1911,-3.2079,-3.1857,-3.1673,-3.1623,-3.195,-3.2529,-3.3377,-3.3592,-3.4153,-3.5082,-3.6023,-3.6595,-3.6773,-3.7523,-3.7968,-3.8068,-3.8156,-3.8156,-3.8119,-3.8189,-3.8206,-3.8168,-3.835,-3.8528,-3.8723,-3.8837,-3.891,-3.895,-3.9036,-3.9059,-3.9059,-3.1171,-3.1312,-3.1608,-3.219,-3.253,-3.289,-3.3493,-3.4321,-3.4868,-3.4765,-3.503,-3.5213,-3.5246,-3.5424,-3.5572,-3.572,-3.6038,-3.6211,-3.6211,-3.6211,-3.6211,-3.6211,-3.6383,-3.6199,-3.5598,-3.6291,-3.595,-3.4534,-3.4281,-3.381,-3.3137,-3.2256,-3.1898,-3.1996,-3.187,-3.1698,-3.1496,-3.1727,-3.1799,-3.1784,-3.1597,-3.1712,-3.2025,-3.1981,-3.2094,-3.2219,-3.2342,-3.2398,-3.2425,-3.2398,-3.2496,-3.2594,-3.2621,-3.2827,-3.3096,-3.3282,-3.3424,-3.3581,-3.3822,-3.3694,-3.3503,-3.3503,-3.3503,-3.3487,-3.3439,-3.3614,-3.3818,-3.3818,-3.3919,-3.3995,-3.3995,-3.3501,-3.3064,-3.3016,0.0,0.0,-3.1884,-3.1702,-3.1733,-3.224,-3.2259,-3.2606,-3.3594,-3.3044,-3.2685,-3.2904,-3.3111,-3.3019,-3.252,-3.3291,-3.4189,-3.5183,-3.524,-3.5357,-3.5644,-3.6573,-3.7192,-3.7506,-3.7775,-3.7933,-3.8018,-3.8139,-3.8209,-3.8209,-3.8257,-3.8322,-3.8382,-3.8462,-3.8575,-3.8707,-3.8777,-3.8822,-3.8822,-3.8877,-3.895,-3.9007,-3.1498,-3.1313,-3.1401,-3.2433,-3.2576,-3.2812,-3.3518,-3.4259,-3.4637,-3.4306,-3.4699,-3.4886,-3.4487,-3.4604,-3.4929,-3.5542,-3.5419,-3.5533,-3.6023,-3.5943,-3.5975,-3.6196,-3.6195,-3.6182,-3.6122,-3.5891,-3.5492,-3.4926,-3.4009,-3.3444,-3.3184,-3.2229,-3.187,-3.1996,-3.1741,-3.1553,-3.1509,-3.1712,-3.1799,-3.1799,-3.1798,-3.1883,-3.1996,-3.1996,-3.2066,-3.2206,-3.2163,-3.2302,-3.2523,-3.2425,-3.2578,-3.28,-3.2881,-3.2989,-3.3123,-3.3346,-3.3398,-3.344,-3.3607,-3.3529,-3.3388,-3.3388,-3.345,-3.3503,-3.3503,-3.371,-3.3899,-3.3899,-3.4,-3.4101,-3.4101,-3.389,-3.3737,-3.3835,0.0,-3.3217,-3.3405,-3.334,-3.3413,-3.3789,-3.3789,-3.3975,-3.4545,-3.3937,-3.3567,-3.3723,-3.3532,-3.3375,-3.329,-3.4174,-3.4884,-3.5258,-3.5885,-3.6269,-3.6372,-3.6851,-3.7166,-3.728,-3.7466,-3.7613,-3.7757,-3.7845,-3.7933,-3.8021,-3.8157,-3.8223,-3.8236,-3.8382,-3.8528,-3.8707,-3.8777,-3.8837,-3.8881,-3.8939,-3.8983,-3.8979,-3.2024,-3.1628,-3.151,-3.2591,-3.2511,-3.2448,-3.292,-3.3787,-3.4142,-3.3563,-3.4288,-3.4512,-3.3627,-3.3829,-3.4332,-3.5034,-3.4851,-3.5056,-3.5849,-3.5784,-3.5784,-3.5973,-3.5941,-3.5899,-3.592,-3.563,-3.5156,-3.4515,-3.3813,-3.3249,-3.2821,-3.2139,-3.1976,-3.23,-3.186,-3.1773,-3.1968,-3.1888,-3.1841,-3.1828,-3.1898,-3.194,-3.194,-3.2038,-3.2122,-3.2191,-3.2135,-3.2345,-3.2578,-3.2496,-3.2676,-3.2978,-3.3069,-3.3123,-3.3203,-3.3372,-3.3372,-3.3335,-3.3398,-3.3372,-3.3293,-3.3346,-3.345,-3.3581,-3.3633,-3.3797,-3.3949,-3.3949,-3.4075,-3.4151,-3.4101,-3.4176,-3.4226,-3.4226,-3.4226,-3.425,-3.43,-3.4325,-3.4448,-3.4715,-3.4732,-3.4828,-3.5111,-3.4678,-3.4295,-3.4214,-3.4177,-3.4372,-3.4884,-3.5301,-3.5642,-3.5904,-3.6385,-3.6684,-3.6768,-3.697,-3.7089,-3.7108,-3.7203,-3.7336,-3.754,-3.7649,-3.7757,-3.7846,-3.8123,-3.8224,-3.817,-3.835,-3.8546,-3.8707,-3.875,-3.8792,-3.8851,-3.8925,-3.8935,-3.8983,-3.284,-3.2442,-3.216,-3.2696,-3.2225,-3.1711,-3.1526,-3.2742,-3.3372,-3.2439,-3.3696,-3.4134,-3.2678,-3.3211,-3.3818,-3.4171,-3.4377,-3.4851,-3.5642,-3.5688,-3.5638,-3.5504,-3.5621,-3.5386,-3.4737,-3.5545,-3.5033,-3.2998,-3.3666,-3.3302,-3.2012,-3.187,-3.2232,-3.2968,-3.2285,-3.2361,-3.2967,-3.227,-3.1912,-3.1799,-3.1784,-3.1784,-3.1841,-3.2094,-3.2191,-3.2219,-3.2342,-3.2496,-3.2594,-3.2594,-3.2812,-3.3096,-3.3096,-3.3203,-3.3309,-3.3309,-3.3309,-3.3309,-3.3309,-3.3309,-3.3319,-3.3477,-3.3607,-3.372,-3.3873,-3.4,-3.4101,-3.4101,-3.4201,-3.425,-3.4126,-3.4325,-3.4423,-3.4151,-3.4325,-3.4448,-3.4325,-3.4423,-3.4594,-3.4875,-3.4787,-3.4875,-3.5268,-3.5175,-3.4851,-3.4264,-3.5188,-3.6295,-3.7439,-3.6681,-3.6573,-3.7478,-3.6838,-3.6544,-3.6702,-3.6888,-3.7029,-3.7108,-3.7108,-3.7206,-3.7394,-3.7595,-3.7703,-3.7721,-3.8122,-3.8307,-3.8307,-3.843,-3.8575,-3.8707,-3.8707,-3.8707,-3.8707,-3.8795,-3.8833,-3.8925,-3.2133,-3.169,-3.1349,-3.1993,-3.1826,-3.1747,-3.215,-3.2951,-3.3463,-3.3177,-3.3939,-3.3987,-3.2643,-3.3129,-3.3652,-3.3818,-3.4026,-3.4532,-3.5494,-3.5554,-3.5554,-3.5504,-3.5554,-3.5578,-3.5622,-3.5642,-3.5189,-3.4181,-3.4409,-3.4137,-3.3378,-3.2893,-3.3146,-3.4005,-3.2513,-3.229,-3.2967,-3.227,-3.1968,-3.1968,-3.215,-3.2219,-3.2219,-3.233,-3.2342,-3.2342,-3.2398,-3.2578,-3.2816,-3.2816,-3.2989,-3.3229,-3.3229,-3.3282,-3.3309,-3.3309,-3.3309,-3.3309,-3.3309,-3.3309,-3.3319,-3.3477,-3.345,-3.3477,-3.371,-3.3873,-3.4,-3.4075,-3.4275,-3.4423,-3.4399,-3.4374,-3.4399,-3.4497,-3.4349,-3.4349,-3.4667,-3.4594,-3.4618,-3.4994,-3.4994,-3.5065,-3.5268,-3.5268,-3.5207,-3.5121,-3.5543,-3.6007,-3.6409,-3.6199,-3.6182,-3.6448,-3.6396,-3.6381,-3.6423,-3.6809,-3.695,-3.6891,-3.6849,-3.6928,-3.7126,-3.7184,-3.7373,-3.7649,-3.7916,-3.8071,-3.817,-3.8303,-3.8433,-3.8559,-3.8559,-3.8624,-3.8707,-3.8795,-3.8822,-3.8837,-3.1838,-3.1571,-3.1319,-3.1744,-3.1618,-3.1569,-3.1729,-3.2513,-3.3006,-3.268,-3.367,-3.3887,-3.2561,-3.3061,-3.3554,-3.3703,-3.41,-3.462,-3.5231,-3.5261,-3.5294,-3.5359,-3.5359,-3.5489,-3.5686,-3.5489,-3.5128,-3.4583,-3.4536,-3.4133,-3.3486,-3.3018,-3.3181,-3.3766,-3.2411,-3.2248,-3.2967,-3.227,-3.1968,-3.194,-3.2219,-3.2302,-3.2247,-3.237,-3.2398,-3.2398,-3.2398,-3.2551,-3.2773,-3.287,-3.3085,-3.3309,-3.3309,-3.3309,-3.3309,-3.3309,-3.3309,-3.3309,-3.3309,-3.3319,-3.3398,-3.3555,-3.3529,-3.3555,-3.3873,-3.4,-3.4101,-3.4226,-3.4472,-3.4643,-3.4594,-3.4643,-3.4715,-3.4763,-3.4618,-3.4594,-3.4875,-3.4763,-3.478,-3.5065,-3.5088,-3.5158,-3.5321,-3.5344,-3.5412,-3.5611,-3.6,-3.6287,-3.6437,-3.6103,-3.6205,-3.6847,-3.6705,-3.684,-3.7279,-3.7259,-3.7047,-3.6687,-3.6684,-3.6766,-3.6869,-3.6989,-3.7166,-3.7429,-3.7685,-3.7916,-3.8036,-3.8154,-3.8336,-3.851,-3.8478,-3.8562,-3.8707,-3.8701,-3.8728,-3.8807,-3.1735,-3.1776,-3.1699,-3.1699,-3.1531,-3.125,-3.0772,-3.1714,-3.2275,-3.1582,-3.3198,-3.3916,-3.2569,-3.31,-3.3613,-3.367,-3.442,-3.4902,-3.4902,-3.4902,-3.4968,-3.518,-3.518,-3.5148,-3.5148,-3.5148,-3.4919,-3.4362,-3.4295,-3.3764,-3.287,-3.2736,-3.2826,-3.3035,-3.2221,-3.2323,-3.3029,-3.23,-3.1912,-3.1841,-3.2094,-3.215,-3.2066,-3.233,-3.2398,-3.2398,-3.2398,-3.2496,-3.2621,-3.2843,-3.3085,-3.3266,-3.3309,-3.3309,-3.3309,-3.3309,-3.3309,-3.3335,-3.3335,-3.3424,-3.3581,-3.3694,-3.3793,-3.3944,-3.4298,-3.4398,-3.4464,-3.4652,-3.4913,-3.5074,-3.4937,-3.5167,-3.5275,-3.5046,-3.5044,-3.5041,-3.4947,-3.4947,-3.4994,-3.5111,-3.5135,-3.5228,-3.5424,-3.5424,-3.5538,-3.5795,-3.6407,-3.6843,-3.6973,-3.6304,-3.6554,-3.803,-3.7485,-3.766,-3.8723,-3.8014,-3.7292,-3.6627,-3.6678,-3.6702,-3.6702,-3.697,-3.7089,-3.711,-3.7504,-3.7739,-3.7899,-3.8036,-3.8234,-3.8478,-3.8415,-3.8515,-3.8658,-3.8544,-3.8621,-3.8758,-3.0862,-3.0876,-3.0876,-3.0876,-3.0816,-3.0901,-3.125,-3.213,-3.2818,-3.3006,-3.3947,-3.4291,-3.334,-3.3833,-3.4041,-3.3565,-3.4284,-3.4783,-3.4902,-3.4902,-3.4935,-3.4968,-3.4968,-3.4916,-3.4798,-3.4916,-3.4691,-3.4105,-3.4427,-3.4428,-3.41,-3.4022,-3.4448,-3.5229,-3.3351,-3.2929,-3.3562,-3.234,-3.1898,-3.1968,-3.215,-3.2247,-3.2315,-3.237,-3.2398,-3.2398,-3.2398,-3.2496,-3.2648,-3.2935,-3.3112,-3.315,-3.3282,-3.3309,-3.3309,-3.3309,-3.3372,-3.345,-3.345,-3.3617,-3.3848,-3.3975,-3.4522,-3.5019,-3.4994,-3.5172,-3.5487,-3.6086,-3.6446,-3.6597,-3.6572,-3.6183,-3.5833,-3.576,-3.5304,-3.4994,-3.5198,-3.5222,-3.5274,-3.5464,-3.5487,-3.5554,-3.5689,-3.5711,-3.5778,-3.5932,-3.5909,-3.5926,-3.6077,-3.6412,-3.674,-3.7085,-3.7468,-3.781,-3.8173,-3.8111,-3.7873,-3.7499,-3.6963,-3.6702,-3.6702,-3.6809,-3.695,-3.7108,-3.7298,-3.7522,-3.7739,-3.7881,-3.8105,-3.8338,-3.8322,-3.8387,-3.8465,-3.843,-3.8446,-3.8496,-3.0598,-3.0905,-3.1052,-3.0656,-3.0829,-3.1032,-3.1061,-3.2059,-3.2733,-3.2573,-3.3518,-3.4032,-3.3532,-3.3794,-3.3949,-3.392,-3.4326,-3.4582,-3.4668,-3.4668,-3.4702,-3.4817,-3.4817,-3.4783,-3.4698,-3.475,-3.4655,-3.435,-3.4589,-3.4398,-3.3789,-3.3758,-3.3703,-3.3606,-3.2437,-3.2198,-3.2586,-3.194,-3.1697,-3.1783,-3.201,-3.2277,-3.2534,-3.2285,-3.2446,-3.2732,-3.241,-3.2441,-3.2621,-3.2784,-3.2935,-3.3032,-3.315,-3.3203,-3.3229,-3.3282,-3.3398,-3.3503,-3.3581,-3.3797,-3.4025,-3.4151,-3.4904,-3.5569,-3.5493,-3.5856,-3.6344,-3.679,-3.7051,-3.7078,-3.6754,-3.6429,-3.6143,-3.5809,-3.5449,-3.5355,-3.5753,-3.578,-3.5897,-3.6367,-3.6471,-3.6595,-3.6831,-3.724,-3.7371,-3.6996,-3.7165,-3.7163,-3.6831,-3.707,-3.7459,-3.7933,-3.8162,-3.8614,-3.9289,-3.8877,-3.8648,-3.8597,-3.7979,-3.7484,-3.7095,-3.7265,-3.7428,-3.7514,-3.7263,-3.7279,-3.7522,-3.7685,-3.7916,-3.8172,-3.8224,-3.8305,-3.8401,-3.8368,-3.8401,-3.8446,-3.0552,-3.1094,-3.1375,-3.0669,-3.0973,-3.1177,-3.0685,-3.1753,-3.2353,-3.1598,-3.2788,-3.3638,-3.347,-3.3525,-3.3781,-3.4288,-3.4346,-3.4346,-3.4414,-3.4414,-3.4481,-3.4631,-3.4664,-3.4664,-3.4664,-3.4664,-3.4664,-3.4664,-3.4664,-3.4116,-3.3103,-3.3103,-3.2547,-3.1471,-3.1353,-3.1383,-3.1499,-3.1497,-3.1509,-3.1568,-3.1855,-3.2201,-3.2522,-3.2165,-3.2444,-3.2955,-3.2418,-3.2385,-3.2578,-3.2578,-3.2746,-3.2924,-3.3058,-3.3123,-3.3203,-3.3309,-3.345,-3.3633,-3.3745,-3.3975,-3.4226,-3.4349,-3.5103,-3.5852,-3.5984,-3.6578,-3.7206,-3.7424,-3.746,-3.727,-3.6638,-3.6599,-3.6407,-3.5725,-3.5755,-3.6024,-3.6377,-3.6465,-3.6718,-3.7336,-3.7509,-3.7694,-3.797,-3.8683,-3.8819,-3.8024,-3.8591,-3.8645,-3.7867,-3.7879,-3.8265,-3.9061,-3.8991,-3.9446,-4.0527,-3.9717,-3.935,-3.9395,-3.9187,-3.861,-3.7702,-3.8003,-3.8098,-3.7962,-3.7521,-3.7382,-3.7472,-3.7661,-3.7882,-3.8148,-3.816,-3.8239,-3.8352,-3.8289,-3.8354,-3.8465,-3.0189,-3.0504,-3.0669,-3.0401,-3.055,-3.0699,-3.0612,-3.1344,-3.1813,-3.1526,-3.2788,-3.3558,-3.3258,-3.3595,-3.3934,-3.4128,-3.4128,-3.4196,-3.438,-3.4414,-3.4414,-3.4448,-3.4448,-3.4448,-3.4448,-3.4448,-3.4448,-3.4448,-3.4448,-3.417,-3.3604,-3.3604,-3.3382,-3.2986,-3.2391,-3.2214,-3.2318,-3.1735,-3.1597,-3.1756,-3.1813,-3.1944,-3.2118,-3.2153,-3.2252,-3.2341,-3.2345,-3.2398,-3.2425,-3.2551,-3.2746,-3.2924,-3.3058,-3.3256,-3.345,-3.3477,-3.372,-3.4025,-3.405,-3.4325,-3.4618,-3.4643,-3.53,-3.615,-3.6779,-3.7507,-3.8219,-3.8858,-3.852,-3.8046,-3.7956,-3.7527,-3.6945,-3.6219,-3.6829,-3.7208,-3.6653,-3.7229,-3.7715,-3.781,-3.7879,-3.7963,-3.801,-3.8118,-3.8105,-3.7838,-3.7973,-3.7911,-3.7584,-3.8245,-3.8656,-3.8682,-3.9148,-3.9542,-3.9833,-3.9825,-3.9556,-3.9086,-3.9897,-3.9633,-3.8451,-3.8682,-3.8485,-3.8031,-3.8471,-3.8461,-3.8168,-3.8188,-3.8404,-3.8653,-3.8133,-3.8055,-3.8242,-3.8225,-3.8242,-3.835,-3.0142,-3.0371,-3.0538,-3.0357,-3.0538,-3.0702,-3.0598,-3.1362,-3.1687,-3.1062,-3.1957,-3.2509,-3.2173,-3.2853,-3.3373,-3.3427,-3.3756,-3.402,-3.4122,-3.4122,-3.4142,-3.423,-3.423,-3.4312,-3.4414,-3.4414,-3.4414,-3.4414,-3.4414,-3.4114,-3.3573,-3.3208,-3.2966,-3.2832,-3.2279,-3.2106,-3.2227,-3.2422,-3.2169,-3.1671,-3.2031,-3.245,-3.2779,-3.2199,-3.2465,-3.3084,-3.2675,-3.2523,-3.2551,-3.2718,-3.2897,-3.3032,-3.3176,-3.3346,-3.3503,-3.3581,-3.3848,-3.4126,-3.4201,-3.4742,-3.5325,-3.5415,-3.6324,-3.7218,-3.7119,-3.7682,-3.8295,-3.8626,-3.8112,-3.7466,-3.7052,-3.6804,-3.6587,-3.6254,-3.6688,-3.7218,-3.7649,-3.8117,-3.8561,-3.8966,-3.9032,-3.9089,-3.9188,-3.9171,-3.9146,-3.9089,-3.9106,-3.9074,-3.895,-3.9194,-3.9337,-3.9421,-3.9475,-3.959,-3.9824,-3.9875,-3.9809,-3.9622,-3.9808,-3.9384,-3.8504,-3.8679,-3.8378,-3.7773,-3.7627,-3.7509,-3.7477,-3.7536,-3.7715,-3.7982,-3.8257,-3.8474,-3.8652,-3.8773,-3.886,-3.9056]},{"header":{"parameterUnit":"m.s-1","parameterCategory":1,"la1":30.6,"la2":28.766,"lo1":-90.7593,"lo2":-88.6598,"dy":0.0162,"dx":0.0183,"nx":116,"ny":114,"refTime":"2023-03-05T18:00:00:Z","depth":0,"parameterNumber":3,"parameterNumberName":"V-component_of_WINDS"},"data":[0.0,0.0,0.0,0.0,0.0,0.0,0.0,0.0,0.0,0.0,0.0,0.0,0.0,0.0,0.0,0.0,0.0,0.0,0.0,0.0,0.0,0.0,0.0,0.0,0.0,0.0,0.0,0.0,0.0,0.0,0.0,0.0,0.0,0.0,0.0,0.0,0.0,0.0,0.0,0.0,0.0,0.0,0.0,0.0,0.0,0.0,0.0,0.0,0.0,0.0,0.0,0.0,0.0,0.0,0.0,0.0,0.0,0.0,0.0,0.0,0.0,0.0,0.0,0.0,0.0,0.0,0.0,0.0,0.0,0.0,0.0,0.0,0.0,0.0,0.0,0.0,0.0,0.0,0.0,0.0,0.0,0.0,0.0,0.0,0.0,0.0,0.0,0.0,0.0,0.0,0.0,0.0,0.0,0.0,0.0,0.0,0.0,0.0,0.0,0.0,0.0,0.0,0.0,0.0,0.0,0.0,0.0,0.0,0.0,0.0,0.0,0.0,0.0,0.0,0.0,0.0,0.0,0.0,0.0,0.0,0.0,0.0,0.0,0.0,0.0,0.0,0.0,0.0,0.0,0.0,0.0,0.0,0.0,0.0,0.0,0.0,0.0,0.0,0.0,0.0,0.0,0.0,0.0,0.0,0.0,0.0,0.0,0.0,0.0,0.0,0.0,0.0,0.0,0.0,0.0,0.0,0.0,0.0,0.0,0.0,0.0,0.0,0.0,0.0,0.0,0.0,0.0,0.0,0.0,0.0,0.0,0.0,0.0,0.0,0.0,0.0,0.0,0.0,0.0,0.0,0.0,0.0,0.0,0.0,0.0,0.0,0.0,0.0,0.0,0.0,0.0,0.0,0.0,0.0,0.0,0.0,0.0,0.0,0.0,0.0,0.0,0.0,0.0,0.0,0.0,0.0,0.0,0.0,0.0,0.0,0.0,0.0,0.0,0.0,0.0,0.0,0.0,0.0,0.0,0.0,0.0,0.0,0.0,0.0,0.0,0.0,0.0,0.0,0.0,0.0,0.0,0.0,0.0,0.0,0.0,0.0,0.0,0.0,0.0,0.0,0.0,0.0,0.0,0.0,0.0,0.0,0.0,0.0,0.0,0.0,0.0,0.0,0.0,0.0,0.0,0.0,0.0,0.0,0.0,0.0,0.0,0.0,0.0,0.0,0.0,0.0,0.0,0.0,0.0,0.0,0.0,0.0,0.0,0.0,0.0,0.0,0.0,0.0,0.0,0.0,0.0,0.0,0.0,0.0,0.0,0.0,0.0,0.0,0.0,0.0,0.0,0.0,0.0,0.0,0.0,0.0,0.0,0.0,0.0,0.0,0.0,0.0,0.0,0.0,0.0,0.0,0.0,0.0,0.0,0.0,0.0,0.0,0.0,0.0,0.0,0.0,0.0,0.0,0.0,0.0,0.0,0.0,0.0,0.0,0.0,0.0,0.0,0.0,0.0,0.0,0.0,0.0,0.0,0.0,0.0,0.0,0.0,0.0,0.0,0.0,0.0,0.0,0.0,0.0,0.0,0.0,0.0,0.0,0.0,0.0,0.0,0.0,0.0,0.0,0.0,0.0,0.0,0.0,0.0,0.0,0.0,0.0,0.0,0.0,0.0,0.0,0.0,0.0,0.0,0.0,0.0,0.0,0.0,0.0,0.0,0.0,0.0,0.0,0.0,0.0,0.0,0.0,0.0,0.0,0.0,0.0,0.0,0.0,0.0,0.0,0.0,0.0,0.0,0.0,0.0,0.0,0.0,0.0,0.0,0.0,0.0,0.0,0.0,0.0,0.0,0.0,0.0,0.0,0.0,0.0,0.0,0.0,0.0,0.0,0.0,0.0,0.0,0.0,0.0,0.0,0.0,0.0,0.0,0.0,0.0,0.0,0.0,0.0,0.0,0.0,0.0,0.0,0.0,0.0,0.0,0.0,0.0,0.0,0.0,0.0,0.0,0.0,0.0,0.0,0.0,0.0,0.0,0.0,0.0,0.0,0.0,0.0,0.0,0.0,0.0,0.0,0.0,0.0,0.0,0.0,0.0,0.0,0.0,0.0,0.0,0.0,0.0,0.0,0.0,0.0,0.0,0.0,0.0,0.0,0.0,0.0,0.0,0.0,0.0,0.0,0.0,0.0,0.0,0.0,0.0,0.0,0.0,0.0,0.0,0.0,0.0,0.0,0.0,0.0,0.0,0.0,0.0,0.0,0.0,0.0,0.0,0.0,0.0,0.0,0.0,0.0,0.0,0.0,0.0,0.0,0.0,0.0,0.0,0.0,0.0,0.0,0.0,0.0,0.0,0.0,0.0,0.0,0.0,0.0,0.0,0.0,0.0,0.0,0.0,0.0,0.0,0.0,0.0,0.0,0.0,0.0,0.0,0.0,0.0,0.0,0.0,0.0,0.0,0.0,0.0,0.0,0.0,0.0,0.0,0.0,0.0,0.0,0.0,0.0,0.0,0.0,0.0,0.0,0.0,0.0,0.0,0.0,0.0,0.0,0.0,0.0,0.0,0.0,0.0,0.0,0.0,0.0,0.0,0.0,0.0,0.0,0.0,0.0,0.0,0.0,0.0,0.0,0.0,0.0,0.0,0.0,0.0,0.0,0.0,0.0,0.0,0.0,0.0,0.0,0.0,0.0,0.0,0.0,0.0,0.0,0.0,0.0,0.0,0.0,0.0,0.0,0.0,0.0,0.0,0.0,0.0,0.0,0.0,0.0,0.0,0.0,0.0,0.0,0.0,0.0,0.0,0.0,0.0,0.0,0.0,0.0,0.0,0.0,0.0,0.0,0.0,0.0,0.0,0.0,0.0,0.0,0.0,0.0,0.0,0.0,0.0,0.0,0.0,0.0,0.0,0.0,0.0,0.0,0.0,0.0,0.0,0.0,0.0,0.0,0.0,0.0,0.0,0.0,0.0,0.0,0.0,0.0,0.0,0.0,0.0,0.0,0.0,0.0,0.0,0.0,0.0,0.0,0.0,0.0,0.0,0.0,0.0,0.0,0.0,0.0,0.0,0.0,0.0,0.0,0.0,0.0,0.0,0.0,0.0,0.0,0.0,0.0,0.0,0.0,0.0,0.0,0.0,0.0,0.0,0.0,0.0,0.0,0.0,0.0,0.0,0.0,0.0,0.0,0.0,0.0,0.0,0.0,0.0,0.0,0.0,0.0,0.0,0.0,0.0,0.0,0.0,0.0,0.0,0.0,0.0,0.0,0.0,0.0,0.0,0.0,0.0,0.0,0.0,0.0,0.0,0.0,0.0,0.0,0.0,0.0,0.0,0.0,0.0,0.0,0.0,0.0,0.0,0.0,0.0,0.0,0.0,0.0,0.0,0.0,0.0,0.0,0.0,0.0,0.0,0.0,0.0,0.0,0.0,0.0,0.0,0.0,0.0,0.0,0.0,0.0,0.0,0.0,0.0,0.0,0.0,0.0,0.0,0.0,0.0,0.0,0.0,0.0,0.0,0.0,0.0,0.0,0.0,0.0,0.0,0.0,0.0,0.0,0.0,0.0,0.0,0.0,0.0,0.0,0.0,0.0,0.0,0.0,0.0,0.0,0.0,0.0,0.0,0.0,0.0,0.0,0.0,0.0,0.0,0.0,0.0,0.0,0.0,0.0,0.0,0.0,0.0,0.0,0.0,0.0,0.0,0.0,0.0,0.0,0.0,0.0,0.0,0.0,0.0,0.0,0.0,0.0,0.0,0.0,0.0,0.0,0.0,0.0,0.0,0.0,0.0,0.0,0.0,0.0,0.0,0.0,0.0,0.0,0.0,0.0,0.0,0.0,0.0,0.0,0.0,0.0,0.0,0.0,0.0,0.0,0.0,0.0,0.0,0.0,0.0,0.0,0.0,0.0,0.0,0.0,0.0,0.0,0.0,0.0,0.0,0.0,0.0,0.0,0.0,0.0,0.0,0.0,0.0,0.0,0.0,0.0,0.0,0.0,0.0,0.0,0.0,0.0,0.0,0.0,0.0,0.0,0.0,0.0,0.0,0.0,0.0,0.0,0.0,0.0,0.0,0.0,0.0,0.0,0.0,0.0,0.0,0.0,0.0,0.0,0.0,0.0,0.0,0.0,0.0,0.0,0.0,0.0,0.0,0.0,0.0,0.0,0.0,0.0,0.0,0.0,0.0,0.0,0.0,0.0,0.0,0.0,0.0,0.0,0.0,0.0,0.0,0.0,0.0,0.0,0.0,0.0,0.0,0.0,0.0,0.0,0.0,0.0,0.0,0.0,0.0,0.0,0.0,0.0,0.0,0.0,0.0,0.0,0.0,0.0,0.0,0.0,0.0,0.0,0.0,0.0,0.0,0.0,0.0,0.0,0.0,0.0,0.0,0.0,0.0,0.0,0.0,0.0,0.0,0.0,0.0,0.0,0.0,0.0,0.0,0.0,0.0,0.0,0.0,0.0,0.0,0.0,0.0,0.0,0.0,0.0,0.0,0.0,0.0,0.0,0.0,0.0,0.0,0.0,0.0,0.0,0.0,0.0,0.0,0.0,0.0,0.0,0.0,0.0,0.0,0.0,0.0,0.0,0.0,0.0,0.0,0.0,0.0,0.0,0.0,0.0,0.0,0.0,0.0,0.0,0.0,0.0,0.0,0.0,0.0,0.0,0.0,0.0,0.0,0.0,0.0,0.0,0.0,0.0,0.0,0.0,0.0,0.0,0.0,0.0,0.0,0.0,0.0,0.0,0.0,0.0,0.0,0.0,0.0,0.0,0.0,0.0,0.0,0.0,0.0,0.0,0.0,0.0,0.0,0.0,0.0,0.0,0.0,0.0,0.0,0.0,0.0,0.0,0.0,0.0,0.0,0.0,0.0,0.0,0.0,0.0,0.0,0.0,0.0,0.0,0.0,0.0,0.0,0.0,0.0,0.0,0.0,0.0,0.0,0.0,0.0,0.0,0.0,0.0,0.0,0.0,0.0,0.0,0.0,0.0,0.0,0.0,0.0,0.0,0.0,0.0,0.0,0.0,0.0,0.0,0.0,0.0,0.0,0.0,0.0,0.0,0.0,0.0,0.0,0.0,0.0,0.0,0.0,0.0,0.0,0.0,0.0,0.0,0.0,0.0,0.0,0.0,0.0,0.0,0.0,0.0,0.0,0.0,0.0,0.0,0.0,0.0,0.0,0.0,0.0,0.0,0.0,0.0,0.0,0.0,0.0,0.0,0.0,0.0,0.0,0.0,0.0,0.0,0.0,0.0,0.0,0.0,0.0,0.0,0.0,0.0,0.0,0.0,0.0,0.0,0.0,0.0,0.0,0.0,0.0,0.0,0.0,0.0,0.0,0.0,0.0,0.0,0.0,0.0,0.0,0.0,0.0,0.0,0.0,0.0,0.0,0.0,0.0,0.0,0.0,0.0,0.0,0.0,0.0,0.0,0.0,0.0,0.0,0.0,0.0,0.0,0.0,0.0,0.0,0.0,0.0,0.0,0.0,0.0,0.0,0.0,0.0,0.0,0.0,0.0,0.0,0.0,0.0,0.0,0.0,0.0,0.0,0.0,0.0,0.0,0.0,0.0,0.0,0.0,0.0,0.0,0.0,0.0,0.0,0.0,0.0,0.0,0.0,0.0,0.0,0.0,0.0,0.0,0.0,0.0,0.0,0.0,0.0,0.0,0.0,0.0,0.0,0.0,0.0,0.0,0.0,0.0,0.0,0.0,0.0,0.0,0.0,0.0,0.0,0.0,0.0,0.0,0.0,0.0,0.0,0.0,0.0,0.0,0.0,0.0,0.0,0.0,0.0,0.0,0.0,0.0,0.0,0.0,0.0,0.0,0.0,0.0,0.0,0.0,0.0,0.0,0.0,0.0,0.0,0.0,0.0,0.0,0.0,0.0,0.0,0.0,0.0,0.0,0.0,0.0,0.0,0.0,0.0,0.0,0.0,0.0,0.0,0.0,0.0,0.0,0.0,0.0,0.0,0.0,0.0,0.0,0.0,0.0,0.0,0.0,0.0,0.0,0.0,0.0,0.0,0.0,0.0,0.0,0.0,0.0,0.0,0.0,0.0,0.0,0.0,0.0,0.0,0.0,0.0,0.0,0.0,0.0,0.0,0.0,0.0,0.0,0.0,0.0,0.0,0.0,0.0,0.0,1.08,0.0,0.0,0.0,0.0,0.0,0.0,0.0,0.0,0.0,0.0,0.0,0.0,0.0,0.0,0.0,0.0,0.0,0.0,0.0,0.0,0.0,0.0,0.0,0.0,0.0,0.0,0.0,0.0,0.0,0.0,0.0,0.0,0.0,0.0,0.0,0.0,0.0,0.0,0.0,0.7478,0.8226,0.8991,0.9087,0.9253,0.9515,0.0,0.0,0.0,0.0,0.0,0.0,0.0,0.0,0.0,0.0,0.0,0.0,0.0,0.0,0.0,0.0,0.0,0.0,0.0,0.0,0.0,0.0,0.0,0.0,0.0,0.0,0.0,0.0,0.0,0.0,0.0,0.0,0.0,0.0,0.0,0.0,0.0,0.0,0.0,0.0,0.0,0.0,0.0,0.0,0.0,0.0,0.0,0.0,0.0,0.0,0.0,0.0,0.0,0.0,0.0,0.0,0.0,0.0,0.0,0.0,0.0,0.0,0.0,0.0,0.0,0.0,0.0,0.0,0.0,0.0,0.0,1.0879,0.0,0.0,0.0,0.0,0.0,0.0,0.0,0.0,0.0,0.0,0.0,0.0,0.0,0.0,0.0,0.0,0.0,0.0,0.0,0.0,0.0,0.0,0.0,0.0,0.0,0.0,0.0,0.0,0.0,0.0,0.0,0.0,0.0,0.0,0.0,0.7368,0.7528,0.7653,0.8434,0.9521,1.0857,1.1832,1.1676,1.0608,1.1215,0.0,0.0,0.0,0.0,0.0,0.0,0.0,0.0,0.0,0.0,0.0,0.0,0.0,0.0,0.0,0.0,0.0,0.0,0.0,0.0,0.0,0.0,0.0,0.0,0.0,0.0,0.0,0.0,0.0,0.0,0.0,0.0,0.0,0.0,0.0,0.0,0.0,0.0,0.0,0.0,0.0,0.0,0.0,0.0,0.0,0.0,0.0,0.0,0.0,0.0,0.0,0.0,0.0,0.0,0.0,0.0,0.0,0.0,0.0,0.0,0.0,0.0,0.0,1.2687,1.3016,1.3629,1.3719,1.3609,1.3304,1.2098,1.1058,1.0201,0.0,0.0,0.0,0.0,0.0,0.0,0.0,0.0,0.0,0.0,0.0,0.0,0.0,0.0,0.0,0.0,0.0,0.0,0.0,0.0,0.0,0.0,0.0,0.612,0.6062,0.67,0.7118,0.0,0.0,0.0,0.0,0.0,0.0,0.0,0.7812,0.8447,0.9046,1.056,1.1463,1.1749,1.2638,1.2998,1.2845,1.2449,1.1902,1.1357,0.0,0.0,0.0,0.0,0.0,0.0,0.0,0.0,0.0,0.0,0.0,0.0,0.0,0.0,0.0,0.0,0.0,0.0,0.0,0.0,0.0,0.0,0.0,0.0,0.0,0.0,0.0,0.0,0.0,0.0,0.0,0.0,0.0,0.0,0.0,0.0,0.0,0.0,0.0,0.0,0.0,1.0948,1.0195,0.0,0.0,0.0,0.0,0.0,0.0,0.0,0.0,0.0,0.0,0.0,0.0,0.0,1.2406,1.2528,1.2645,1.2678,1.2604,1.2607,1.2575,1.2531,1.322,1.2981,1.2076,1.2446,0.0,1.0705,1.0682,0.0,0.0,0.0,0.0,0.0,0.0,0.0,0.0,0.0,0.0,0.0,0.0,0.0,0.0,0.0,0.0,0.0,0.0,0.0,0.0,0.0,0.6414,0.6884,0.6819,0.7067,0.7435,0.7941,0.0,0.0,0.0,0.0,0.8404,0.8288,0.8589,0.9264,1.0313,1.1492,1.2332,1.2811,1.3343,1.3645,1.3745,1.3583,1.3179,1.2598,1.2554,0.0,0.0,0.0,0.0,0.0,0.0,0.0,0.0,0.0,0.0,0.0,0.0,0.0,0.0,0.0,0.0,0.0,0.0,0.0,0.0,0.0,0.0,0.0,0.0,0.0,0.0,0.0,0.0,0.0,0.0,0.0,0.0,0.0,0.0,0.0,0.0,0.0,0.0,0.0,1.0483,1.0754,1.082,1.0799,1.0973,0.0,0.0,0.0,0.0,0.0,0.0,0.0,0.0,0.0,1.2725,1.3199,1.3673,1.4168,1.4123,1.4054,1.3953,1.391,1.3773,1.3537,1.3773,1.3535,1.2936,1.3043,1.2366,1.1158,1.0586,1.038,1.0343,0.0,0.0,0.0,0.0,0.0,0.957,0.0,0.0,0.0,0.0,0.0,0.0,0.0,0.0,0.0,0.0,0.0,0.0,0.6446,0.7165,0.7611,0.7553,0.7646,0.7981,0.8664,0.8613,0.0,0.0,0.0,0.9244,0.9081,0.9327,1.0055,1.1304,1.2086,1.2809,1.3428,1.3717,1.3905,1.403,1.4225,1.4011,1.3472,1.3208,1.2866,1.2488,0.0,0.0,0.0,0.0,0.0,0.0,0.0,0.0,0.0,0.0,0.0,0.0,0.0,0.0,0.0,0.0,0.0,0.0,0.0,0.0,0.0,0.0,0.0,0.0,0.0,0.0,0.0,0.0,0.0,0.0,0.0,0.0,0.0,0.0,0.0,0.0,0.0,1.0714,1.1074,1.167,1.1397,1.1574,0.0,0.0,0.0,0.0,0.0,0.0,1.2919,1.2971,1.3382,1.4217,1.4287,1.4603,1.5236,1.5204,1.5092,1.4924,1.4839,1.4648,1.4366,1.4142,1.3853,1.3534,1.3185,1.248,1.1485,1.0676,1.0524,1.0748,0.9731,0.9852,1.0494,0.9681,0.9447,0.9506,0.0,0.0,0.0,0.0,0.0,0.0,0.0,0.0,0.0,0.0,0.0,0.7072,0.7138,0.7815,0.8257,0.8257,0.889,0.9274,0.9262,0.9248,0.9156,0.895,0.8862,0.8807,0.872,0.9839,1.0897,1.1868,1.2605,1.3048,1.3227,1.3548,1.3749,1.3827,1.4024,1.3787,1.328,1.4264,1.3777,1.2388,1.3233,0.0,0.0,0.0,0.0,0.0,0.0,0.0,0.0,0.0,0.0,0.0,0.0,0.0,0.0,0.0,0.0,0.0,0.0,0.0,0.0,0.0,0.0,0.0,0.0,0.0,0.0,0.0,0.0,0.0,0.0,0.0,0.0,0.0,0.0,0.0,0.0,0.0,0.0,1.2637,1.3321,0.0,0.0,0.0,0.0,1.2692,1.2638,1.2968,1.3798,1.384,1.4239,1.5108,1.5132,1.514,1.5106,1.5103,1.4973,1.4705,1.4578,1.4343,1.4026,1.3754,1.3336,1.2829,1.2505,1.2102,1.1659,1.1362,1.0692,0.9877,0.9932,0.9766,0.9532,0.9989,0.9671,0.9087,0.0,0.0,0.0,0.0,0.0,0.0,0.0,0.0,0.0,0.7074,0.7498,0.782,0.7831,0.8548,0.8988,0.8948,0.9064,0.931,0.972,0.9219,0.9174,0.9778,0.9412,0.9455,1.0049,1.0906,1.1742,1.2531,1.3399,1.3924,1.4112,1.444,1.4714,1.4889,1.4644,1.4488,1.437,1.4538,1.4288,1.3761,1.363,1.2962,0.0,0.0,0.0,0.0,0.0,0.0,0.0,0.0,0.0,0.0,0.0,0.0,0.0,0.0,0.0,0.0,0.0,0.0,0.0,0.0,0.0,0.0,0.0,0.0,0.0,0.0,0.0,0.0,0.0,0.0,0.0,0.0,0.0,0.0,0.0,0.0,0.0,1.3409,1.3259,0.0,1.4145,1.3768,1.3698,1.4206,1.4269,1.4396,1.4657,1.4677,1.4798,1.5054,1.5078,1.5045,1.4972,1.496,1.4826,1.45,1.4331,1.4018,1.3607,1.3336,1.294,1.2459,1.2077,1.1659,1.123,1.09,1.076,1.0621,0.9749,0.9723,1.0106,0.9559,0.9478,0.9622,0.0,0.0,0.0,0.0,0.0,0.0,0.0,0.0,0.0,0.7833,0.8256,0.8554,0.8566,0.9019,0.9401,0.9564,0.9406,0.9569,1.0202,0.9603,0.9502,1.0105,0.9791,1.0016,1.0927,1.1531,1.2249,1.3073,1.3697,1.411,1.437,1.4721,1.5005,1.5244,1.5039,1.5019,1.5158,1.5,1.4759,1.4424,1.3971,1.3368,1.2663,0.0,0.0,0.0,0.0,0.0,0.0,0.0,0.0,0.0,0.0,0.0,0.0,0.0,0.0,0.0,0.0,0.0,0.0,0.0,0.0,0.0,0.0,0.0,0.0,0.0,0.0,0.0,0.0,0.0,0.0,0.0,0.0,0.0,0.0,0.0,1.3403,1.4239,1.379,1.3859,1.4963,1.4555,1.4472,1.5018,1.5106,1.5103,1.5045,1.5026,1.5008,1.4933,1.4972,1.4932,1.4799,1.4808,1.4631,1.4265,1.4036,1.3719,1.3286,1.2949,1.255,1.2107,1.1717,1.1253,1.0765,1.046,1.0445,1.0554,0.9771,0.9811,1.0194,0.9342,0.93,0.9626,0.0,0.0,0.0,0.0,0.0,0.0,0.0,0.0,0.9331,0.9457,0.9332,0.9249,0.9284,0.9262,0.9489,1.0044,0.9986,1.0144,1.0682,1.0455,1.0148,0.9845,0.9968,1.0428,1.1263,1.1722,1.2442,1.3439,1.3449,1.3631,1.3953,1.429,1.4584,1.4851,1.5108,1.5341,1.5532,1.5706,1.5181,1.4218,1.4356,1.3964,1.3303,0.0,0.0,0.0,0.0,0.0,0.0,0.0,0.0,0.0,0.0,0.0,0.0,0.0,0.0,0.0,0.0,0.0,0.0,0.0,0.0,0.0,0.0,0.0,0.0,0.0,0.0,0.0,0.0,0.0,0.0,0.0,0.0,0.0,1.388,1.3954,1.4251,1.5089,1.5071,1.4996,1.5003,1.4936,1.4919,1.499,1.4994,1.4959,1.4907,1.4889,1.4863,1.4808,1.4923,1.4867,1.4619,1.4584,1.4388,1.3984,1.3706,1.3393,1.3072,1.2584,1.2153,1.1756,1.1358,1.0885,1.0374,1.011,0.9814,0.9554,1.0008,0.9982,0.9656,0.9406,0.9186,0.9018,0.0,0.0,0.0,0.0,0.0,0.0,0.0,0.8959,0.9057,0.9005,0.9498,0.9635,0.9068,0.991,1.0366,0.999,1.0239,1.0615,1.1104,1.0435,1.0211,1.0644,1.099,1.1717,1.2914,1.3108,1.3584,1.4348,1.4586,1.4747,1.4848,1.5324,1.5648,1.5814,1.5687,1.5746,1.5923,1.5674,1.5134,1.4457,1.4778,1.4192,1.3161,0.0,0.0,0.0,0.0,0.0,0.0,0.0,0.0,0.0,0.0,0.0,0.0,0.0,0.0,0.0,0.0,0.0,0.0,0.0,0.0,0.0,0.0,0.0,0.0,0.0,0.0,0.0,0.0,0.0,0.0,0.0,0.0,1.3597,1.3891,1.4365,1.4795,1.5035,1.4972,1.4936,1.4931,1.4813,1.4752,1.478,1.4822,1.4822,1.4752,1.4743,1.4794,1.4866,1.467,1.4598,1.4665,1.4332,1.4045,1.3771,1.3025,1.2689,1.2711,1.1904,1.15,1.142,1.1059,1.0631,1.0186,1.0212,1.0012,0.9729,0.9857,0.9672,0.937,0.9585,0.9541,0.9367,0.0,0.0,0.0,0.0,0.0,0.0,0.0,0.906,0.9011,0.894,0.9321,0.9417,0.8908,0.987,1.0448,1.022,1.0615,1.1099,1.1598,1.1193,1.106,1.1315,1.1992,1.2701,1.3452,1.3697,1.4075,1.4572,1.4777,1.4917,1.504,1.5418,1.5696,1.5909,1.5891,1.6038,1.6261,1.6141,1.5745,1.5241,1.5531,1.4744,1.3436,1.3767,1.3503,1.2955,1.3015,1.3013,1.2947,1.2673,0.0,0.0,0.0,0.0,0.0,0.0,0.0,0.0,0.0,0.0,0.0,0.0,0.0,0.0,0.0,0.0,0.0,0.0,0.0,0.0,0.0,0.0,0.0,0.0,1.3701,1.3901,1.4551,1.5128,1.5595,1.5916,1.5565,1.529,1.5315,1.4883,1.4622,1.4653,1.4688,1.4678,1.4616,1.4582,1.4634,1.4771,1.4526,1.4597,1.4985,1.427,1.3916,1.3905,1.2933,1.2465,1.2455,1.1676,1.1298,0.0,1.0775,1.0361,0.9969,0.9908,0.9781,0.0,0.0,0.0,0.0,0.0,0.9345,0.9161,0.0,0.0,0.0,0.0,0.0,0.0,0.0,0.9107,0.906,0.9021,0.8998,0.8936,0.8773,0.9565,1.0236,1.0542,1.1087,1.1582,1.202,1.2251,1.2238,1.1918,1.2853,1.3403,1.3406,1.3827,1.416,1.4413,1.4429,1.4572,1.4793,1.4921,1.5165,1.5463,1.5812,1.615,1.6474,1.6747,1.6597,1.6202,1.6408,1.5491,1.4069,1.4692,1.4626,1.4165,1.4163,1.4136,1.4015,1.3316,0.0,0.0,0.0,0.0,0.0,0.0,0.0,0.0,0.0,0.0,0.0,0.0,0.0,0.0,0.0,0.0,0.0,0.0,0.0,0.0,0.0,0.0,0.0,0.0,1.3739,1.4232,1.5735,1.6142,1.6508,1.705,1.6338,1.5781,1.5726,1.4967,1.4493,1.455,1.4561,1.4539,1.4464,0.0,0.0,0.0,0.0,1.4793,1.5475,1.4381,1.3958,1.416,1.3069,1.2466,1.2236,1.1657,1.1306,1.1113,1.0533,1.0097,0.9762,0.9479,0.94,0.9515,0.9891,0.9903,0.965,0.9192,0.8902,0.0,0.0,0.0,0.0,0.0,0.0,0.0,0.0,0.8936,0.8784,0.8559,0.9127,0.9274,0.8553,1.0209,1.1107,1.0495,1.1461,1.1989,1.1721,1.2033,1.2327,1.2513,1.3098,1.3605,1.4014,1.4216,1.4351,1.4413,1.4572,1.4683,1.473,1.4905,1.5028,1.5119,1.5551,1.591,1.6191,1.6514,1.6381,1.6015,1.6743,1.6315,1.5199,1.4758,1.4564,1.4458,1.4024,1.3751,1.3559,1.3612,1.3545,1.3392,1.3288,1.3334,0.0,0.0,0.0,0.0,0.0,0.0,0.0,0.0,0.0,0.0,0.0,0.0,0.0,0.0,0.0,0.0,0.0,0.0,0.0,1.5138,1.5223,1.5647,1.7176,1.7446,1.7101,1.614,1.5797,1.5398,1.4744,1.4441,1.4257,1.4275,1.4337,1.4331,1.4256,1.4245,0.0,1.5219,1.5006,1.5239,1.596,1.4736,1.4083,1.4012,0.0,0.0,1.195,1.1093,1.0764,1.0861,1.0361,0.9957,0.9642,0.9744,0.983,0.988,0.974,0.9735,0.9725,0.932,0.9031,0.8822,0.0,0.0,0.0,0.0,0.0,0.0,0.0,0.8886,0.8725,0.8533,0.8818,0.898,0.8808,1.0097,1.0884,1.071,1.1469,1.1848,1.1626,1.2228,1.2656,1.2761,1.3468,1.3956,1.4189,1.43,1.4381,1.4413,1.4529,1.4608,1.4608,1.4765,1.4889,1.4966,1.5299,1.5624,1.5925,1.6219,1.6302,1.6238,1.6719,1.6403,1.5578,1.4984,1.4336,1.3724,1.3472,1.3312,1.3219,1.3352,1.3327,1.3236,1.3142,1.3253,1.3449,0.0,0.0,0.0,0.0,0.0,0.0,0.0,0.0,0.0,0.0,0.0,0.0,0.0,0.0,1.2951,0.0,0.0,1.4164,1.5273,1.537,1.5808,1.7301,1.7176,1.6906,1.6776,1.6362,1.5771,1.4979,1.4403,1.4114,1.4152,1.4152,1.4325,1.473,1.4652,1.4981,1.5824,1.5527,1.5723,1.6491,1.4905,1.4185,1.4336,1.2613,1.1805,1.1779,1.1034,1.0717,1.0717,1.0148,0.9763,0.9558,0.9732,0.9855,0.9933,0.9771,0.9714,0.9684,0.9266,0.9004,0.8884,0.0,0.0,0.0,0.0,0.0,0.0,0.0,0.0,0.873,0.8546,0.8435,0.8521,0.8916,0.9584,1.0233,1.09,1.133,1.1615,1.1725,1.246,1.2913,1.2969,1.378,1.4222,1.4203,1.4284,1.4351,1.4415,1.4499,1.4562,1.4562,1.47,1.481,1.4917,1.5117,1.5403,1.5695,1.5968,1.6232,1.6474,1.6541,1.6104,1.536,1.5133,1.4205,1.3011,1.2938,1.2882,1.2842,1.2887,1.2869,1.2806,1.2626,1.2748,1.2968,1.3007,1.3034,0.0,0.0,0.0,0.0,0.0,0.0,0.0,0.0,1.3035,1.3154,1.3072,1.313,1.3401,1.3951,1.4056,1.4351,1.51,1.5228,1.5661,1.6939,1.661,1.6484,1.7117,1.6679,1.6047,1.5393,1.4503,1.4066,1.4243,1.4218,1.4533,1.5378,1.5255,1.5521,1.6351,1.6046,1.6223,1.6973,1.5087,1.4319,1.4619,1.2866,1.1917,1.1637,1.1167,1.0825,1.0609,1.0044,0.9743,0.9674,0.9804,0.9888,0.989,0.9904,0.9818,0.9614,0.9165,0.8986,0.896,0.0,0.0,0.0,0.0,0.0,0.0,0.0,0.0,0.0,0.8299,0.8223,0.8204,0.8141,0.8781,0.9632,1.0654,1.1154,1.1641,1.2192,1.2373,1.2812,1.3565,1.3875,1.4095,1.4203,1.4332,1.4417,1.4485,1.4671,1.4763,1.4763,1.489,1.495,1.4917,1.5162,1.5403,1.5638,1.5911,1.6136,1.6326,1.6461,1.5617,1.4332,1.494,1.4456,1.3362,1.2776,1.2445,1.2332,1.2498,1.2429,1.2312,1.2388,1.2445,1.2505,1.2685,1.2336,1.2089,1.3017,1.2788,1.2458,1.325,1.2924,1.2565,0.0,1.3345,1.3491,1.3579,1.3626,1.3673,1.381,1.3743,1.4125,1.5504,1.568,1.5923,1.6734,1.6818,1.6371,1.5185,1.5177,1.5205,1.5068,1.437,1.4169,1.4771,1.4807,1.5105,1.5791,1.5762,1.5995,1.6639,1.6545,1.6747,1.7243,1.5498,1.4556,1.4409,1.2665,1.1718,1.1511,1.1201,1.0837,1.0426,1.0229,1.0167,1.0233,1.0417,1.0273,0.993,1.0217,1.0008,0.9487,0.9136,0.9085,0.9136,0.0,0.0,0.0,0.0,0.0,0.0,0.0,0.0,0.0,0.0,0.8149,0.8214,0.8546,0.9415,1.0134,1.0557,1.098,1.1326,1.1596,1.198,1.2475,1.3048,1.352,1.3881,1.4078,1.4287,1.4415,1.4433,1.4685,1.4808,1.4808,1.4903,1.495,1.4966,1.5162,1.5344,1.5551,1.5696,1.5911,1.6136,1.6191,1.5336,1.4105,1.4762,1.3977,1.2542,1.271,1.2685,0.0,1.2329,1.2107,1.1908,1.1929,1.1988,1.2077,1.2246,1.2178,1.2164,1.2699,1.268,1.2594,1.2968,1.2863,1.2731,1.2969,1.3449,1.3731,1.332,1.3641,1.3871,1.3471,1.3676,1.4248,0.0,1.5805,1.6183,1.657,1.6254,1.592,1.5771,1.4804,1.4169,1.4173,1.433,1.4524,1.477,1.5158,1.5708,1.6494,1.6362,1.6559,1.7205,1.7047,1.6969,1.7002,1.5771,1.5053,1.4795,1.3081,1.2176,1.2001,1.1251,1.0808,1.0556,1.0397,1.0474,1.0699,1.0623,1.0479,1.0306,1.0379,1.0204,0.9851,0.9395,0.9224,0.9196,0.0,0.0,0.0,0.0,0.0,0.0,0.0,0.0,0.0,0.0,0.0,0.8264,0.8878,0.9938,1.0535,1.0394,1.0756,1.1061,1.123,1.1589,1.2089,1.2739,1.3132,1.3559,1.395,1.4176,1.4319,1.4381,1.4651,1.4777,1.4763,1.4872,1.495,1.5013,1.5133,1.5313,1.5477,1.5551,1.5697,1.5868,1.573,1.4958,1.3965,1.4397,1.3615,1.2346,1.2968,1.2996,1.2665,1.2321,1.2078,1.1866,1.1652,1.1685,1.1794,1.1891,1.2187,1.2505,1.255,1.2757,1.2916,1.2786,1.2785,1.2852,1.2964,1.3349,1.3547,1.3173,1.358,1.3815,1.315,1.3554,1.4245,1.5081,1.5424,1.5764,1.6298,1.5536,1.5153,1.5796,1.4435,1.3514,1.3701,1.4177,1.4512,1.4606,1.5241,1.5969,1.6826,1.6817,1.7003,1.7462,1.7293,1.7034,1.6725,1.5848,1.5291,1.5008,1.3332,1.2568,1.2565,1.1587,1.1149,1.1159,1.092,1.0974,1.1195,1.0965,1.0772,1.0633,1.0631,1.0501,1.0216,0.9913,0.9712,0.9558,0.0,0.0,0.0,0.0,0.0,0.0,0.0,0.0,0.0,0.0,0.0,0.0,0.0,0.0,1.0471,1.014,1.0482,1.0949,1.1558,1.1241,1.168,1.3124,1.2896,1.3103,1.3878,1.398,1.4111,1.43,1.4572,1.4699,1.4714,1.489,1.5013,1.5013,1.5133,1.5283,1.5404,1.5463,1.5551,1.5565,1.5054,1.4382,1.3706,1.3731,1.3625,1.348,1.3625,1.3176,1.2509,1.2492,1.2444,1.2291,1.1761,1.1641,1.1703,1.1703,1.231,1.2901,1.2597,1.2895,1.3177,1.2718,1.2516,1.2602,1.332,1.2994,1.2734,1.3446,1.3547,1.3393,1.2969,1.3295,1.3919,1.4865,1.4314,1.4331,1.5889,1.4854,1.4021,1.4247,1.3697,1.3487,0.0,1.3775,1.3854,1.4376,1.5023,1.5727,1.6485,1.6999,1.7264,1.7216,1.7138,1.6898,1.6499,1.5643,1.5071,1.4796,1.3187,1.2629,1.3046,1.2301,1.2105,1.2332,1.2001,1.1826,1.177,1.163,1.1223,1.073,1.1126,1.0903,1.0437,1.0736,1.0694,1.0395,0.0,0.0,0.0,0.0,0.0,0.0,0.0,0.0,0.0,0.0,0.0,0.0,0.0,0.0,0.0,0.0,1.0666,1.0907,1.0927,1.1057,1.137,1.1919,1.2099,1.2522,1.3285,1.3469,1.3767,1.4235,1.4556,1.4699,1.4699,1.481,1.4887,1.492,1.4932,1.5056,1.5254,1.5209,1.5254,1.5345,1.4773,1.4348,1.4088,1.4158,1.3826,1.3469,0.0,1.4126,1.3509,1.3103,1.2594,1.2121,1.2079,1.2112,1.2226,1.2482,1.2777,1.2898,1.2438,1.2753,1.3197,1.3035,1.3304,1.3531,1.3284,1.3475,1.3488,1.2806,1.3041,1.3183,1.2619,1.3031,1.3725,1.4538,1.4874,1.5212,1.5767,1.5288,1.4923,1.4993,1.3988,0.0,0.0,0.0,0.0,1.4824,1.557,1.6132,1.642,1.6851,1.7068,1.7002,1.6857,1.6636,1.6367,1.5947,1.5592,1.5326,1.4052,1.2994,1.2114,1.211,1.229,1.2507,1.2087,1.1935,1.1975,1.1653,1.1263,1.0844,1.0929,1.0932,1.0807,1.0498,1.0702,1.1018,0.0,0.0,0.0,0.0,0.0,0.0,0.0,0.0,0.0,0.0,0.0,0.0,0.0,0.0,0.0,0.0,0.0,1.065,1.0631,1.0806,1.1031,1.1282,1.1485,1.1911,1.2633,1.2826,1.3088,1.3447,1.3787,1.3909,1.3818,1.3999,1.4103,1.4119,1.4133,1.4349,1.4742,1.4639,1.4826,1.5119,1.453,1.4284,1.424,1.4107,1.3862,0.0,1.434,1.4436,1.4151,1.3572,1.3078,1.2628,1.228,1.2066,1.2047,1.2402,1.2659,1.2708,1.2233,1.2603,1.3121,1.3159,1.3513,1.3778,1.349,1.3667,1.3655,1.2741,1.314,1.347,1.2848,1.3472,1.4253,1.4762,1.4793,1.5025,1.5839,1.5136,1.4766,1.5324,1.4311,1.3922,0.0,0.0,0.0,1.4682,1.5345,1.581,1.5996,1.6543,1.6828,1.676,1.6633,1.6434,1.6205,1.5996,1.5591,1.4979,1.4408,1.3481,1.225,1.2554,1.2769,1.2857,1.2398,1.2152,1.2077,1.1664,1.1255,1.091,1.0874,1.0883,1.0866,1.0483,1.0727,1.1085,0.0,0.0,0.0,0.0,0.0,0.0,0.0,0.0,0.0,0.0,0.0,0.0,0.0,0.0,0.0,0.0,0.0,0.0,1.0688,1.0535,1.0674,1.1243,1.1082,1.1286,1.1955,1.2085,1.2142,1.2109,1.244,1.2468,1.2212,1.2608,1.2747,1.2706,1.2816,1.3235,1.3824,1.3824,1.422,1.4803,1.4254,1.4127,1.417,1.3645,1.3791,1.4213,1.3939,1.414,1.442,1.3899,1.378,1.3629,1.2339,1.1605,1.1304,1.157,1.2059,1.2403,1.2017,1.2433,1.3016,1.3119,1.3179,1.3386,1.3925,1.3619,1.3263,1.3247,1.381,1.4152,1.3646,0.0,1.5319,1.5462,1.4149,1.3888,1.6078,1.4501,1.3701,0.0,0.0,0.0,0.0,0.0,0.0,1.4013,0.0,1.4869,1.5243,1.608,1.6528,1.6488,1.6488,1.6326,1.6011,1.5782,1.5067,1.388,1.422,1.4035,1.3386,1.352,1.3514,1.3357,1.2903,1.2467,1.2059,1.1664,1.1274,1.093,1.0955,1.0826,1.0634,1.0726,1.0749,1.0647,0.0,0.0,0.0,0.0,0.0,0.0,0.0,0.0,0.0,0.0,0.0,0.0,0.0,0.0,0.0,0.0,0.0,0.0,1.0932,1.0825,1.0773,1.0786,1.0736,1.0938,1.1466,1.1561,1.1787,1.2165,1.2368,1.2426,1.2355,1.2454,1.2524,1.2552,1.2524,1.2662,1.2868,1.2855,1.33,1.396,1.3417,1.3827,1.4743,1.4198,1.4385,1.4903,1.4586,1.4485,1.4458,1.4223,1.3669,1.2983,1.2367,1.2074,1.1994,1.2208,1.2387,1.2396,1.1951,1.2328,1.2994,1.3543,1.37,1.3891,1.4537,1.4263,1.3893,1.4,1.4171,1.4304,1.4327,1.4491,0.0,1.5264,1.4952,0.0,1.6041,1.5417,0.0,1.5495,0.0,1.4127,1.4652,1.3784,0.0,0.0,1.4587,1.4782,1.4786,1.565,1.6191,1.6275,1.6177,1.6052,1.5927,1.5418,1.4639,1.3602,1.3943,1.3723,1.3045,1.3319,1.3306,1.3,1.2644,1.2276,1.192,1.1567,1.1317,1.109,1.081,1.0785,1.0846,1.0368,1.0446,1.0695,0.0,0.0,0.0,0.0,0.0,0.0,0.0,0.0,0.0,0.0,0.0,0.0,0.0,0.0,0.0,0.0,0.0,0.0,0.0,1.0601,1.0586,1.0679,1.0681,1.0781,1.099,1.1092,1.1228,1.14,1.1536,1.1549,1.1441,1.1522,1.1562,1.1535,1.1549,1.175,1.2061,1.2061,1.2539,0.0,0.0,1.3884,1.4687,1.4688,1.492,1.5207,1.4902,1.4671,1.4444,1.4133,1.3491,1.2789,1.2652,1.2193,1.1793,1.2236,1.224,1.2115,1.2129,1.2231,1.2646,1.3968,1.3843,1.3597,1.4304,1.4306,1.4098,1.3895,1.4421,1.4857,1.4651,1.4947,1.5223,0.0,0.0,0.0,1.5793,1.5386,1.5139,0.0,1.4832,0.0,1.4672,1.4073,1.3777,0.0,1.4357,1.461,1.4775,1.5363,1.574,1.5855,1.5754,1.5624,1.5463,1.5013,1.4444,1.3802,1.3791,1.3562,1.3158,1.3183,1.3047,1.2785,0.0,1.2138,1.1829,1.1541,1.1298,1.1118,1.0755,1.0636,1.0635,1.0164,1.0152,1.0285,0.0,0.0,0.0,0.0,0.0,0.0,0.0,0.0,0.0,0.0,0.0,0.0,0.0,0.0,0.0,0.0,0.0,0.0,0.0,0.0,0.0,1.0599,1.0615,1.0572,1.0524,1.0632,1.0599,1.0437,1.048,1.0406,1.0237,1.0333,1.0358,1.0287,1.0437,1.0828,1.1361,1.1374,1.1884,1.2733,1.3389,1.387,1.4253,0.0,0.0,1.5037,1.4753,1.4512,1.4261,1.3777,1.3248,1.2816,1.2869,1.2078,1.1256,1.1915,1.1876,1.1737,1.2311,1.2092,1.2145,1.4051,1.357,1.2864,1.3695,1.4044,1.4069,1.3654,1.4751,1.5622,1.5003,1.5662,1.6072,1.531,0.0,1.4901,1.5506,1.4978,1.4731,1.5271,1.5041,1.4777,1.4651,1.443,1.4104,1.3635,1.3866,1.4269,1.4811,1.5076,1.521,1.5285,1.5225,1.5074,1.4799,1.4549,1.4324,1.4092,1.3695,1.3463,1.3412,1.3017,1.2768,1.2609,0.0,0.0,1.1684,1.1452,1.1236,1.0993,1.0715,1.0486,1.0322,1.0078,0.9921,0.9783,0.0,0.0,0.0,0.0,0.0,0.0,0.0,0.0,0.0,0.0,0.8169,0.8128,0.0,0.0,0.0,0.0,0.0,0.0,0.0,0.0,0.0,0.0,0.9594,0.9727,1.0106,1.0082,1.0247,1.0644,1.017,1.0114,1.0436,0.9971,0.9915,1.0237,1.0424,1.0527,1.0594,1.0769,1.1282,1.1999,1.2279,1.2882,1.3582,0.0,0.0,0.0,1.3525,1.3415,1.3387,1.3191,1.3024,1.2814,1.2387,1.1797,1.131,1.1551,1.161,1.1641,1.1807,1.1781,1.1911,1.2838,1.2469,1.2216,1.3451,1.3933,1.4289,1.4844,1.5699,1.6373,1.6416,1.6399,1.6338,1.6186,1.5886,1.5635,1.5609,1.533,1.5093,0.0,1.4685,1.4429,1.43,1.3668,0.0,0.0,0.0,1.3436,1.3981,1.4411,1.4674,1.4737,1.4674,1.4517,1.4246,1.4133,1.3934,1.3628,1.3493,1.3271,1.2983,1.2703,1.2473,1.2264,0.0,0.0,1.1133,1.12,1.1025,1.0677,1.0631,1.0582,1.0505,1.0137,0.998,0.9902,0.0,0.0,0.0,0.0,0.0,0.0,0.0,0.8272,0.8252,0.839,0.8415,0.8377,0.8267,0.8543,0.8717,0.0,0.0,0.0,0.0,0.0,0.0,0.0,0.0,0.0,0.0,1.0061,1.0123,0.0,0.0,0.9787,0.9673,0.0,0.0,0.9905,1.039,1.0597,1.0572,1.0729,1.11,1.1587,1.2058,1.2599,0.0,0.0,0.0,0.0,0.0,1.3381,1.3394,1.3248,1.3221,1.3192,1.28,1.25,1.2318,1.2453,1.2341,1.224,1.2592,1.2169,1.1877,1.2866,1.2376,1.1944,1.3071,1.3809,1.4404,1.4884,1.5571,1.6098,1.6111,1.5934,1.575,1.5641,1.5784,1.5784,1.5492,1.5403,1.5239,1.4948,1.4699,1.4493,1.4268,1.384,1.3513,0.0,0.0,1.343,1.3825,1.4097,1.4214,1.4176,1.4192,1.4078,1.3835,1.3881,1.3749,1.3497,1.3323,1.3094,1.2785,1.2478,1.221,1.1975,1.1815,0.0,1.1256,1.122,1.1084,1.0893,1.0673,1.0602,1.0544,1.0157,1.0,0.995,0.0,0.0,0.0,0.0,0.0,0.0,0.0,0.8393,0.8425,0.8467,0.8585,0.8604,0.8425,0.8399,0.8367,0.0,0.0,0.0,0.0,0.0,0.0,0.0,0.0,0.0,0.0,0.0,0.0,0.0,0.0,0.0,0.0,0.0,0.0,0.0,0.0,0.0,1.0611,1.0865,1.112,0.0,0.0,0.0,0.0,0.0,0.0,0.0,0.0,1.3253,1.3243,1.3262,1.3319,1.3346,1.3116,1.315,1.3247,1.3208,1.2952,1.2778,1.3249,1.252,1.1842,1.2826,1.2335,1.1822,1.27,1.3647,1.4437,1.4742,1.5241,1.5571,1.5487,1.5309,1.5128,1.4966,1.5475,1.5741,1.5343,1.5314,1.5149,1.47,1.4606,0.0,1.4092,1.3877,0.0,0.0,0.0,0.0,1.3741,1.3832,1.3815,1.3687,1.3721,1.3657,1.348,1.3573,1.351,1.3344,1.3082,1.285,1.2573,1.2228,1.1957,1.173,1.1634,0.0,0.0,1.1217,1.1151,1.1036,1.0724,1.0582,1.0515,1.0233,1.0056,0.9928,0.0,0.0,0.0,0.0,0.0,0.0,0.0,0.853,0.8538,0.8663,0.8634,0.864,0.8745,0.8699,0.862,0.0,0.0,0.0,0.0,0.0,0.0,0.0,0.0,0.0,0.0,0.0,0.0,0.0,0.0,0.0,0.0,0.0,0.0,0.0,0.0,0.0,0.0,0.0,0.0,0.0,0.0,0.0,0.0,0.0,0.0,0.0,0.0,1.2065,1.2144,1.2668,1.2781,1.267,1.2585,1.2941,1.3265,1.2671,1.2553,1.2621,1.2667,1.217,1.1611,1.1672,1.164,1.1766,1.2403,1.3404,1.4402,1.5021,1.5257,1.5329,1.5316,1.5204,1.5102,1.5073,1.5489,1.5682,1.5344,1.5149,1.4737,1.3901,0.0,0.0,1.328,1.292,0.0,0.0,0.0,0.0,1.3242,1.3391,1.3391,1.3267,1.321,1.3163,1.3146,1.303,1.2931,1.2855,1.265,1.2455,1.2228,1.1836,1.1608,1.1522,1.1335,0.0,0.0,1.1034,1.093,1.0659,1.061,1.0525,1.0429,1.051,1.0201,0.9738,0.0,0.0,0.0,0.0,0.0,0.0,0.8533,0.8579,0.8622,0.8643,0.8693,0.8712,0.8687,0.8723,0.8699,0.8573,0.0,0.0,0.0,0.0,0.0,0.0,0.0,0.0,0.0,0.0,0.0,0.9725,0.9981,0.0,0.0,0.0,0.0,0.0,0.0,0.0,0.0,0.0,0.0,0.0,0.0,0.0,0.0,0.0,0.0,0.0,0.0,0.0,1.2037,1.2152,1.2467,1.2686,1.2138,1.2979,1.3959,1.2853,1.2849,1.3106,1.2712,1.2019,1.141,1.1387,1.1466,1.174,1.2511,1.3479,1.4417,1.523,1.508,1.5012,1.5666,1.4806,1.4179,1.4671,1.4658,1.4555,1.4472,1.4427,1.4269,1.3914,1.3997,0.0,0.0,0.0,0.0,0.0,0.0,0.0,1.2532,1.2873,1.3012,1.296,1.2885,1.285,1.285,1.2838,1.2768,1.2615,1.2419,1.2144,1.1836,1.1549,1.1367,1.1258,1.1223,0.0,0.0,1.1084,1.0966,1.0759,1.0645,1.0486,1.0342,1.0455,1.0156,0.9771,0.0,0.0,0.0,0.0,0.0,0.8533,0.8558,0.862,0.8661,0.8606,0.8711,0.877,0.8665,0.8759,0.8782,0.8677,0.8536,0.0,0.0,0.0,0.0,0.0,0.0,0.0,0.0,0.0,1.0218,0.9583,1.0269,0.9734,0.0,0.0,0.0,0.0,0.0,0.0,0.0,0.0,0.0,0.0,0.0,0.0,0.0,0.0,0.0,0.0,0.0,0.0,0.0,0.0,0.0,1.2464,1.1859,1.2793,1.3972,1.3119,1.3382,1.3847,1.3376,1.2658,1.2042,1.2044,1.2091,1.2361,1.3178,1.3922,1.4667,1.5503,1.4993,1.4645,1.5371,1.4258,1.339,1.386,1.3908,1.3866,1.3812,1.3861,1.3895,1.3865,0.0,1.3454,0.0,1.2633,0.0,0.0,0.0,0.0,0.0,1.2259,1.2538,1.2615,1.2627,1.2621,1.2621,1.2561,1.2478,1.2383,1.2066,1.1763,1.1468,1.1207,1.1048,1.0983,0.0,0.0,0.0,1.0976,1.0899,1.0888,1.063,1.0488,1.0428,1.039,1.018,0.9942,0.0,0.0,0.0,0.0,0.0,0.0,0.8687,0.8649,0.8599,0.8593,0.871,0.8804,0.8804,0.8852,0.8863,0.8806,0.8669,0.0,0.0,0.0,0.0,0.0,0.0,0.0,0.0,0.0,1.0498,1.1673,1.1079,1.0377,0.9557,0.8978,0.8743,0.0,0.0,0.0,0.0,0.0,0.0,0.0,0.0,0.0,0.0,0.0,0.0,0.0,0.0,0.0,0.0,0.0,0.0,0.0,0.0,1.228,1.2903,1.3359,1.4114,1.4796,1.4767,1.43,1.3775,1.3767,1.3731,1.3857,1.4537,1.4836,1.5194,1.5929,1.509,1.4194,1.4133,1.357,1.3004,1.266,1.3456,1.397,1.3648,1.365,1.3646,0.0,0.0,1.2965,1.3091,0.0,0.0,0.0,0.0,0.0,0.0,1.1586,1.1936,1.221,1.233,1.2395,1.2395,1.2072,1.1963,1.2095,1.1497,1.1217,1.1199,1.0783,1.063,0.0,0.0,0.0,0.0,1.0602,1.0592,1.0859,1.0534,1.0527,1.0671,1.0473,1.0348,1.0264,0.0,0.0,0.0,0.0,0.0,0.0,0.0,0.8716,0.8663,0.8663,0.8669,0.8651,0.8596,0.8699,0.8736,0.8677,0.8624,0.0,0.0,0.0,0.0,0.0,0.0,0.0,0.0,0.0,1.0608,1.054,1.1227,1.0722,0.9129,0.9481,0.9469,0.9158,0.9445,0.0,0.0,0.0,0.0,0.0,0.0,0.0,0.0,0.0,0.0,0.0,0.0,0.0,0.0,0.0,0.0,0.0,0.0,0.0,0.0,1.3106,1.3523,1.3836,1.3451,1.3048,1.2725,1.2814,1.2792,1.2927,1.3646,1.4005,1.4395,1.5194,1.4418,1.369,1.3977,1.3187,1.2636,1.3069,1.2877,1.2801,0.0,0.0,0.0,1.3081,1.2643,1.2443,0.0,0.0,0.0,0.0,0.0,0.0,0.0,1.1527,1.1723,1.1993,1.1998,1.1979,1.1993,1.1756,1.1523,1.1338,1.0973,1.0745,1.0649,1.0467,0.0,0.0,0.0,0.0,0.0,1.0147,1.0118,1.0361,1.0395,1.0349,1.0325,1.0674,1.0532,1.0183,0.0,0.0,0.0,0.0,0.0,0.0,0.0,0.8776,0.8735,0.8741,0.87,0.8658,0.8614,0.8717,0.8742,0.8687,0.8678,0.0,0.0,0.0,0.0,0.0,0.0,0.0,0.9465,1.025,1.0702,1.08,1.1561,1.1197,0.9779,1.0305,1.0271,0.9749,0.9819,1.0527,0.0,0.0,0.0,0.0,0.0,0.0,1.2571,0.0,0.0,0.0,0.0,0.0,0.0,0.0,0.0,0.0,0.0,0.0,0.0,0.0,1.2897,1.3203,1.3244,1.3042,1.2833,1.2947,1.2885,1.2912,1.3409,1.364,1.3891,1.4345,1.3727,1.3187,1.3392,1.2523,1.2037,1.2818,1.2498,1.2403,0.0,0.0,0.0,1.2466,0.0,0.0,0.0,0.0,0.0,0.0,0.0,0.0,0.0,1.1276,1.1351,1.1523,1.1619,1.1667,1.1616,1.1386,1.1142,1.0886,1.0544,1.0332,1.0293,1.0127,0.0,0.0,0.0,0.0,0.0,0.9862,0.9886,1.0074,1.0252,1.0377,1.0468,1.0669,1.064,1.0466,0.0,0.0,0.0,0.0,0.0,0.0,0.0,0.8852,0.8816,0.8806,0.8812,0.8817,0.8799,0.8869,0.8869,0.8805,0.0,0.0,0.0,0.0,0.0,0.0,0.0,0.0,1.0083,1.0103,1.0746,1.2112,1.2044,1.1744,1.1212,1.1302,1.1059,1.0608,1.0575,1.0986,1.1793,1.2592,1.2929,1.2917,1.2904,1.2829,0.0,0.0,0.0,0.0,0.0,0.0,0.0,0.0,0.0,0.0,0.0,0.0,0.0,0.0,0.0,0.0,0.0,1.3873,1.3715,1.378,1.367,1.353,1.3589,1.3604,0.0,1.3473,1.3082,1.2697,1.2543,1.1772,1.1421,1.2202,1.2388,1.264,0.0,1.3154,0.0,0.0,1.262,0.0,0.0,0.0,0.0,0.0,0.0,0.0,0.0,1.0897,1.0878,1.0878,1.1236,1.1356,1.1234,1.0981,1.0783,1.0649,1.0215,1.0028,1.0069,0.982,0.0,0.0,0.0,0.0,0.0,0.97,0.9782,1.0006,1.0152,1.0502,1.0897,1.0496,1.0644,1.0965,0.0,0.0,0.0,0.0,0.0,0.0,0.0,0.0,0.0,0.0,0.8919,0.8931,0.8886,0.888,0.8874,0.0,0.0,0.0,0.0,0.0,0.0,0.0,0.0,0.0,1.0293,1.0136,1.0724,1.2174,1.2164,1.1839,1.1284,1.1551,1.1669,1.1605,1.0539,1.0482,1.125,1.199,1.2631,1.3123,1.2959,1.2904,0.0,0.0,0.0,0.0,1.2603,1.2389,0.0,0.0,0.0,0.0,0.0,0.0,0.0,0.0,1.2155,0.0,1.2405,0.0,1.2741,1.2807,1.2756,1.2667,0.0,1.2753,1.2851,1.2875,1.2519,1.2298,1.2659,1.2163,1.2146,1.3512,1.3067,1.2722,1.3251,0.0,0.0,1.2269,1.2455,0.0,0.0,0.0,0.0,0.0,0.0,0.0,0.0,1.0859,1.0725,1.0678,1.0668,1.0639,1.0601,1.0505,1.0341,1.0147,1.0099,0.9967,0.9802,0.9821,0.0,0.0,0.0,0.0,0.9418,0.9337,0.9547,0.9945,1.0061,1.0203,1.0358,1.0655,1.0722,1.0582,0.0,0.0,0.0,0.0,0.0,0.0,0.0,0.0,0.0,0.0,0.0,0.8986,0.8942,0.8908,0.0,0.0,0.0,0.0,0.0,0.0,0.0,0.0,0.0,0.909,1.0374,1.0221,1.085,1.2287,1.2287,1.2199,1.2036,1.2246,1.2083,1.1538,1.0478,1.0423,1.1171,1.1523,1.2108,1.2731,1.2589,0.0,0.0,0.0,0.0,0.0,1.2761,1.2538,0.0,1.2523,1.2266,1.1915,0.0,0.0,0.0,0.0,1.208,1.2023,1.1891,1.1937,1.2056,1.2118,1.2071,1.2024,1.1989,1.2059,1.2118,1.2036,1.2094,1.2236,1.2436,1.2235,1.243,1.3641,1.3092,0.0,0.0,0.0,1.2318,1.2204,1.2222,0.0,0.0,0.0,0.0,0.0,0.0,0.0,0.0,1.0732,1.0467,1.0322,1.0264,1.0235,1.0264,1.037,1.0315,1.0082,1.0215,1.019,1.0022,0.9991,0.977,0.0,0.0,0.0,0.926,0.9254,0.9418,0.9731,0.991,0.9994,1.0092,1.0299,1.0352,1.0231,0.0,0.0,0.0,0.0,0.0,0.0,0.0,0.0,0.0,0.0,0.0,0.0,0.0,0.0,0.0,0.0,0.0,0.0,0.0,0.0,0.0,0.0,0.8575,0.9145,1.0365,1.033,1.0986,1.2419,1.2433,1.26,1.2894,1.3022,1.2448,1.1303,1.0702,1.0775,1.1302,1.123,1.1582,1.2198,1.2136,0.0,0.0,0.0,0.0,0.0,0.0,0.0,0.0,1.2903,1.2519,1.1981,1.267,0.0,0.0,0.0,0.0,0.0,1.1859,1.1725,1.1648,1.1637,1.1575,1.1541,1.1631,1.166,1.1618,1.1506,1.2045,1.2497,1.2381,1.2307,1.2546,0.0,0.0,0.0,1.2465,1.2259,1.2084,1.2054,0.0,0.0,0.0,0.0,0.0,0.0,0.0,0.0,0.0,1.0617,1.0283,1.0075,1.0101,1.013,1.0151,1.0403,1.037,1.0076,1.0361,1.0421,1.0226,1.0126,0.996,0.0,0.0,0.0,0.9252,0.933,0.9438,0.9572,0.9739,0.9851,0.9921,0.9829,0.9829,0.9825,0.0,0.0,0.0,0.0,0.0,0.0,0.0,0.0,0.0,0.0,0.0,0.0,0.0,0.0,0.0,0.0,0.0,0.0,0.0,0.0,0.0,0.8435,0.8435,0.9053,1.0381,1.0272,1.0968,1.2479,1.2594,1.2747,1.2915,1.3269,1.3059,1.2359,1.2142,1.1764,1.1295,1.1226,1.1584,1.2206,1.2191,0.0,0.0,0.0,0.0,0.0,0.0,0.0,0.0,1.2483,1.2293,1.2159,1.2287,0.0,0.0,0.0,0.0,0.0,1.1944,1.1869,1.1772,1.1441,1.127,1.1296,1.1745,1.1845,1.2038,1.2677,1.3007,1.3263,1.3572,1.3031,1.2886,0.0,0.0,1.2798,0.0,0.0,1.2258,0.0,0.0,0.0,0.0,0.0,0.0,0.0,0.0,0.0,0.0,1.0754,1.0655,1.0347,1.0573,1.0595,1.0431,1.027,0.992,0.9446,1.016,1.0145,0.9493,0.9775,0.97,0.0,0.0,0.9369,0.9463,0.9528,0.9629,0.9751,0.9777,0.9732,0.9666,0.9758,0.9532,0.9148,0.0,0.0,0.0,0.0,0.0,0.0,0.0,0.0,0.0,0.0,0.0,0.0,0.0,0.0,0.0,0.0,0.0,0.0,0.0,0.0,0.8495,0.8501,0.8824,0.9471,1.0487,1.087,1.1636,1.2825,1.2882,1.3018,1.321,1.3082,1.3117,1.326,1.2369,1.1766,1.1399,1.1345,1.1445,1.17,0.0,0.0,0.0,0.0,0.0,0.0,0.0,0.0,0.0,0.0,1.2691,1.2308,1.2675,0.0,0.0,0.0,0.0,0.0,1.2122,1.2012,1.1927,1.1817,1.1664,1.1587,1.1752,1.1911,1.2115,1.247,1.2841,1.3143,1.3372,1.3287,1.3269,1.3513,0.0,1.2269,1.222,1.1954,0.0,0.0,0.0,0.0,0.0,0.0,0.0,0.0,0.0,0.0,0.0,0.0,1.0365,0.9919,1.0228,1.0306,1.0079,1.0302,1.0315,1.0051,1.0501,1.045,0.9954,1.0073,0.9905,0.9528,0.0,0.9428,0.9438,0.9368,0.9386,0.948,0.9401,0.9297,0.9159,0.9087,0.885,0.8572,0.0,0.0,0.0,0.0,0.0,0.0,0.0,0.0,0.0,0.0,0.0,0.0,0.0,0.0,0.0,0.0,0.0,0.0,0.0,0.8843,0.8717,0.8561,0.9197,0.991,1.066,1.1434,1.2281,1.3159,1.3185,1.3328,1.3584,1.2901,1.3064,1.3849,1.2466,1.1813,1.1771,1.1681,1.1592,1.1534,0.0,0.0,0.0,0.0,0.0,0.0,0.0,0.0,0.0,0.0,0.0,0.0,0.0,0.0,0.0,1.2262,1.2359,1.2389,1.2216,1.2166,1.2149,1.2207,1.2063,1.1929,1.2047,1.2205,1.2346,1.2491,1.2861,1.3122,1.3119,1.3425,0.0,1.2761,1.2305,1.1991,1.1837,0.0,0.0,0.0,0.0,0.0,0.0,0.0,0.0,0.0,0.0,0.0,0.0,0.0,1.02,0.9815,1.0152,1.025,1.0072,1.051,1.0666,1.052,1.0706,1.0626,1.0267,1.02,1.0007,0.9699,0.9549,0.9445,0.9392,0.9188,0.9136,0.9133,0.9001,0.8798,0.8566,0.8364,0.8201,0.8121,0.0,0.0,0.0,0.0,0.0,0.0,0.0,0.0,0.0,0.0,0.0,0.0,0.0,0.0,0.0,0.0,0.0,0.0,0.0,0.9719,0.926,0.8444,0.9287,1.0126,1.0855,1.1609,1.2448,1.3387,1.3444,1.3613,1.3848,1.3001,1.3106,1.3948,1.2966,1.2554,1.2607,1.2474,1.2375,1.2324,1.2383,0.0,0.0,0.0,0.0,0.0,0.0,0.0,0.0,0.0,0.0,0.0,0.0,0.0,1.2205,1.2205,1.2338,1.2445,1.2184,1.2324,1.2509,1.2347,1.2101,1.2124,1.2995,1.3054,1.3087,1.3654,1.3789,1.3753,1.3517,1.3539,1.3216,1.2072,1.2407,1.2668,0.0,0.0,0.0,0.0,0.0,0.0,0.0,0.0,0.0,0.0,0.0,0.0,0.0,0.0,0.0,1.0717,1.091,1.107,1.1173,1.0981,1.0565,0.996,1.0335,1.0187,0.9568,0.9753,0.9688,0.9439,0.9418,0.9392,0.9387,0.9261,0.9119,0.9008,0.8863,0.8461,0.7955,0.7938,0.7835,0.7801,0.0,0.0,0.0,0.0,0.0,0.0,0.0,0.0,0.0,0.0,0.0,0.0,0.0,0.0,0.0,0.0,0.0,0.0,0.0,1.0296,1.0095,0.9304,1.0046,1.0679,1.1138,1.1865,1.2713,1.3646,1.3636,1.3675,1.3781,1.3437,1.3467,1.3806,1.3405,1.2929,1.2475,1.2892,1.2731,1.2255,1.2713,1.3017,0.0,0.0,0.0,0.0,0.0,0.0,0.0,0.0,1.2505,1.2363,1.2292,1.2241,1.219,1.22,1.2282,1.2323,1.2096,1.2373,1.2761,1.2838,1.2856,1.288,1.3071,1.3128,1.3178,1.3353,1.3306,1.3207,1.3138,0.0,1.262,1.224,1.2197,0.0,0.0,0.0,0.0,0.0,0.0,0.0,0.0,0.0,0.0,0.0,0.0,0.0,0.0,0.0,0.0,1.0351,1.0593,1.0798,1.0934,1.0906,1.0731,1.0409,1.0259,1.0059,0.9809,0.9725,0.9621,0.951,0.9439,0.9361,0.9263,0.9035,0.8877,0.8725,0.8559,0.8184,0.7716,0.7805,0.7777,0.7739,0.0,0.0,0.0,0.0,0.0,0.0,0.0,0.0,0.0,0.0,0.0,0.0,0.0,0.0,0.0,0.0,0.0,0.0,1.0501,1.1003,1.0841,0.9775,1.0458,1.097,1.1192,1.1738,1.2491,1.3459,1.3586,1.3507,1.3229,1.3238,1.3326,1.35,1.3172,1.2843,1.2575,1.3017,1.2882,1.2406,1.2905,1.3061,0.0,0.0,0.0,0.0,0.0,0.0,0.0,0.0,1.2419,1.2266,1.2272,1.2216,1.2133,1.2091,1.2208,1.2334,1.2255,1.2642,1.3103,1.3313,1.3468,1.3541,1.3353,1.3301,1.3293,1.3254,1.3012,1.2785,1.2773,1.2478,0.0,0.0,0.0,0.0,0.0,0.0,0.0,0.0,0.0,0.0,0.0,0.0,0.0,0.0,0.0,0.0,0.0,0.0,0.0,0.0,1.0579,1.074,1.0891,1.0898,1.082,1.0616,1.036,1.0128,0.9999,0.9673,0.9536,0.9543,0.9387,0.929,0.9185,0.8956,0.8666,0.8361,0.8238,0.7892,0.7506,0.7736,0.7788,0.7729,0.0,0.0,0.0,0.0,0.0,0.0,0.0,0.0,0.0,0.0,0.0,0.0,0.0,0.0,0.0,0.0,0.0,0.0,1.136,1.1873,1.1444,0.97,1.0396,1.0869,1.1009,1.1134,1.1692,1.2704,1.3233,1.305,1.2211,1.2214,1.2529,1.3049,1.2182,1.2281,1.3074,1.2884,1.2827,1.2898,1.2898,1.286,1.2782,0.0,0.0,0.0,0.0,0.0,0.0,0.0,1.2313,1.2205,1.2195,1.2112,1.197,1.1837,1.2129,1.254,1.2666,1.3139,1.3607,1.3681,1.3847,1.4,1.4,1.3735,1.3514,1.3581,1.3173,1.275,1.2544,1.2455,0.0,1.2131,0.0,0.0,0.0,0.0,0.0,0.0,0.0,0.0,0.0,0.0,0.0,0.0,0.0,0.0,0.0,0.0,0.0,0.0,1.107,1.1167,1.1293,1.1023,1.0769,1.0496,1.0616,1.0437,0.9999,0.9603,0.9413,0.9387,0.9263,0.9211,0.9185,0.9061,0.8573,0.7895,0.79,0.761,0.7271,0.7735,0.7819,0.773,0.0,0.0,0.0,0.0,0.0,0.0,0.0,0.0,0.0,0.0,0.0,0.0,0.0,0.0,0.0,0.0,0.0,0.0,1.1501,1.2392,1.2496,1.1418,1.1498,1.1589,1.1629,1.1217,1.1456,1.2417,1.244,1.2531,1.2695,1.2641,1.2668,1.2729,1.2329,1.2348,1.2655,1.2406,1.2422,1.261,1.2571,1.2594,1.2646,0.0,0.0,0.0,0.0,0.0,0.0,0.0,0.0,0.0,1.2133,1.2292,1.241,1.1983,1.2447,1.295,1.2415,1.2898,1.3515,1.3441,1.3576,1.3835,1.4246,1.3917,1.3476,1.334,1.3082,1.2773,1.2473,1.249,0.0,0.0,0.0,0.0,0.0,0.0,0.0,0.0,0.0,0.0,0.0,0.0,0.0,0.0,0.0,0.0,0.0,0.0,0.0,0.0,1.1237,1.1167,1.1293,1.1023,1.0718,1.0368,1.0265,1.0205,1.0213,1.0043,0.9862,0.9688,0.9543,0.9439,0.9309,0.889,0.8335,0.7791,0.8017,0.781,0.7457,0.7939,0.795,0.774,0.0,0.0,0.0,0.0,0.0,0.0,0.0,0.0,0.0,0.0,1.368,1.3719,0.0,0.0,0.0,0.0,0.0,0.0,0.0,1.2532,1.2621,1.1967,1.2146,1.2005,1.145,1.1031,1.1082,1.162,1.1794,1.2004,1.2228,1.2533,1.2565,1.2362,1.2266,1.2241,1.2241,1.2024,1.2071,1.2251,1.2287,1.2353,1.2447,0.0,0.0,0.0,0.0,0.0,0.0,0.0,0.0,0.0,1.2033,1.2192,1.2295,1.1903,1.2349,1.2895,1.2514,1.3037,1.3621,1.3483,1.3536,1.3619,1.3756,1.3769,1.3648,1.3267,1.296,1.265,1.2365,1.23,0.0,0.0,0.0,0.0,0.0,0.0,0.0,0.0,0.0,0.0,0.0,0.0,0.0,0.0,0.0,0.0,0.0,0.0,0.0,0.0,1.154,1.1423,1.1368,1.1124,1.082,1.0547,1.0411,1.0385,1.0445,1.012,0.9914,0.9799,0.9595,0.9484,0.9361,0.8811,0.8335,0.7904,0.8023,0.7891,0.7635,0.7876,0.7842,0.7699,0.0,0.0,0.0,0.0,0.0,0.0,0.0,0.0,0.0,0.0,1.3649,1.3721,0.0,0.0,0.0,0.0,0.0,0.0,0.0,0.0,1.2124,1.1758,1.2412,1.2153,1.0799,1.0759,1.0727,1.064,1.1324,1.1537,1.1302,1.2091,1.2293,1.205,1.2064,1.2021,1.1949,1.1766,1.1772,1.1902,1.2023,1.2122,1.2205,1.2348,0.0,0.0,0.0,0.0,0.0,0.0,0.0,0.0,1.1938,1.1925,1.1912,1.1674,1.2106,1.2678,1.2857,1.3394,1.3874,1.3732,1.3648,1.3463,1.2873,1.3416,1.3852,1.3254,0.0,1.2443,1.2228,1.2029,0.0,0.0,0.0,0.0,0.0,0.0,0.0,0.0,0.0,0.0,0.0,0.0,0.0,0.0,0.0,0.0,0.0,0.0,0.0,1.1879,1.1908,1.1803,1.1553,1.1251,1.1049,0.0,1.0896,1.0794,1.065,0.9984,0.9725,0.9799,0.9524,0.9387,0.9335,0.8837,0.8448,0.8193,0.8013,0.789,0.7798,0.769,0.7688,0.7666,0.0,0.0,0.0,0.0,0.0,0.0,0.0,0.0,0.0,0.0,0.0,0.0,0.0,0.0,0.0,0.0,0.0,0.0,0.0,0.0,1.2206,1.2016,1.2416,1.2235,1.1351,1.134,1.1183,1.0903,1.1172,1.1511,1.1902,1.2045,1.2173,1.2303,1.2007,1.2041,1.2338,1.1777,1.1681,1.1891,1.1869,1.1997,1.2195,1.2236,1.2302,0.0,0.0,0.0,0.0,0.0,0.0,0.0,1.1837,1.2108,1.2355,1.1818,1.265,1.3643,1.3121,1.3441,1.3881,1.3719,1.3656,1.3509,1.3165,1.3251,1.3233,1.2685,1.2579,1.2478,1.2174,1.2383,0.0,0.0,0.0,0.0,0.0,0.0,0.0,0.0,0.0,0.0,0.0,0.0,0.0,0.0,0.0,0.0,0.0,0.0,0.0,1.2517,1.2203,1.2026,1.1977,1.1502,1.12,0.0,1.0845,1.0624,1.0368,1.0334,1.0128,0.9799,0.9524,0.9335,0.9211,0.8903,0.8586,0.8339,0.8297,0.8159,0.7963,0.8043,0.7909,0.7666,0.0,0.0,0.0,0.0,0.0,0.0,0.0,0.0,0.0,0.0,0.0,0.0,0.0,0.0,0.0,0.0,0.0,0.0,0.0,0.0,1.1918,1.2361,1.2528,1.2268,1.1564,1.1806,1.1655,1.1105,1.1352,1.171,1.2148,1.2049,1.2197,1.2536,1.2396,1.2303,1.2256,1.2021,1.1831,1.1663,1.17,1.1995,1.2423,1.2251,1.2479,1.2838,1.2462,0.0,0.0,0.0,0.0,0.0,0.0,0.0,1.2154,1.209,1.278,1.3544,1.3375,1.36,1.3802,1.3399,1.3216,1.3049,1.2784,1.2561,1.2366,1.2156,1.2246,1.23,1.212,0.0,0.0,0.0,0.0,0.0,0.0,0.0,0.0,0.0,0.0,0.0,0.0,0.0,0.0,0.0,0.0,0.0,0.0,1.3087,1.3011,1.2808,1.2406,1.215,1.2101,1.1703,1.1452,1.1377,1.1049,1.0718,1.0393,1.0239,1.0076,0.987,0.955,0.9361,0.9263,0.8929,0.8725,0.857,0.833,0.824,0.8182,0.8085,0.7859,0.7591,0.0,0.0,0.0,0.0,0.0,0.0,0.0,0.0,0.0,0.0,0.0,0.0,0.0,0.0,0.0,0.0,0.0,0.0,0.0,0.0,0.0,1.2664,1.2614,1.2329,1.1782,1.2179,1.2042,1.1351,1.1651,1.1977,1.2334,1.2168,1.2386,1.2924,1.2914,1.2676,1.2295,1.2388,1.2156,1.1742,1.1835,1.227,1.2835,1.2588,1.2901,1.3435,1.2932,1.2567,1.2318,1.2338,0.0,0.0,0.0,0.0,1.1793,1.2343,1.2771,1.3189,1.3656,1.3845,1.3735,1.3052,1.2738,1.2532,1.23,1.1945,1.1689,1.1781,1.1932,1.2041,0.0,0.0,0.0,0.0,0.0,0.0,0.0,0.0,0.0,0.0,0.0,0.0,0.0,0.0,0.0,0.0,0.0,0.0,1.3433,1.3338,1.3156,1.2929,1.2578,1.2348,1.22,1.1902,1.1719,1.1728,1.1276,1.0871,1.0522,1.0058,0.9895,0.9973,0.9569,0.9413,0.9368,0.9037,0.8877,0.8807,0.846,0.8322,0.8323,0.8027,0.773,0.7428,0.0,0.0,0.0,0.0,0.0,0.0,0.0,0.0,0.0,0.0,1.3661,1.3622,0.0,0.0,0.0,0.0,0.0,0.0,0.0,0.0,0.0,1.2671,1.2581,1.2497,1.2476,1.2372,1.2184,1.1896,1.1824,1.2177,1.2881,1.2578,1.2931,1.3797,1.3174,1.3116,1.3427,1.283,1.2756,1.3042,1.3003,1.3174,1.3488,1.3612,1.3779,1.3889,1.3773,1.3315,1.2898,1.3449,1.2759,0.0,0.0,0.0,1.1737,1.2331,1.295,1.354,1.4011,1.403,1.3735,1.3,1.265,1.2496,1.2473,1.2144,1.1872,0.0,1.1815,0.0,0.0,0.0,0.0,0.0,0.0,0.0,0.0,0.0,0.0,0.0,0.0,0.0,0.0,0.0,0.0,0.0,0.0,0.0,1.3563,1.3563,1.3392,1.3085,1.2905,1.2759,1.2627,1.2126,1.1877,1.1877,1.1226,1.0845,1.0667,1.018,0.9973,0.9973,0.9569,0.9413,0.9382,0.9336,0.918,0.8985,0.9151,0.8794,0.8132,0.8022,0.7665,0.7204,0.0,0.0,0.0,0.0,0.0,0.0,0.0,0.0,0.0,0.0,0.0,1.3528,0.0,0.0,0.0,0.0,0.0,0.0,0.0,0.0,0.0,1.2671,1.2616,1.2574,1.2597,1.2403,1.2236,1.2112,1.1902,1.2275,1.3151,1.3019,1.3417,1.4276,1.4062,1.3856,1.3629,1.3458,1.3211,1.2967,1.2981,1.3247,1.3654,1.355,1.3754,1.409,1.3915,1.3559,1.3201,1.33,1.274,1.208,1.2609,0.0,0.0,0.0,1.4083,1.4427,1.4558,1.4355,1.3964,1.3246,1.2988,1.2904,1.2992,1.2659,1.2412,1.2586,1.2547,0.0,0.0,0.0,0.0,0.0,0.0,0.0,0.0,0.0,0.0,0.0,0.0,0.0,0.0,0.0,0.0,0.0,0.0,1.3597,1.3597,1.3467,1.33,1.3166,1.2837,1.2652,1.2578,1.22,1.1952,1.1778,1.1251,1.0947,1.0794,1.0257,0.9999,0.9973,0.974,0.9569,0.9498,0.951,0.9452,0.9325,0.9258,0.8968,0.859,0.8366,0.7889,0.733,0.0,0.0,0.0,0.0,0.0,0.0,0.0,0.0,0.0,0.0,0.0,0.0,0.0,0.0,0.0,0.0,0.0,0.0,0.0,0.0,0.0,0.0,0.0,1.2607,1.26,1.2398,1.2256,1.2169,1.2089,1.2458,1.3271,1.3432,1.3919,1.4722,1.4869,1.458,1.3985,1.4184,1.3868,1.3228,1.3362,1.3628,1.3907,1.388,1.4147,1.447,1.4282,1.4009,1.3728,1.3586,1.3176,1.2757,1.2861,1.3071,0.0,0.0,0.0,1.5232,1.499,1.4688,1.4289,1.3593,1.3323,1.3243,1.3332,0.0,1.2785,0.0,0.0,0.0,0.0,0.0,0.0,0.0,0.0,0.0,0.0,0.0,0.0,0.0,0.0,0.0,0.0,0.0,0.0,0.0,0.0,1.3515,1.3549,1.3338,1.3194,1.318,1.2764,1.2529,1.2455,1.2126,1.1856,1.1668,1.1285,1.1087,1.1039,1.0376,1.0102,1.0094,0.9855,0.9706,0.9655,0.9744,0.9714,0.9615,0.9518,0.9266,0.8931,0.8683,0.8117,0.7466,0.0,0.0,0.0,0.0,0.0,0.0,0.0,0.0,0.0,0.0,0.0,0.0,1.321,1.3095,1.3049,1.3111,1.297,0.0,0.0,0.0,0.0,0.0,0.0,0.0,1.26,1.2398,1.2236,1.2107,1.246,1.2836,1.321,1.38,1.4482,1.5265,1.5262,1.5172,1.5012,1.504,1.4869,1.462,1.5015,1.4878,1.4553,1.5424,1.5575,1.5333,1.5323,1.5067,1.4768,1.5145,1.4656,1.3896,1.3769,1.3953,1.4177,0.0,0.0,0.0,1.5135,1.4922,1.469,1.396,1.3529,1.3268,0.0,0.0,1.2772,0.0,0.0,0.0,0.0,0.0,0.0,0.0,0.0,0.0,0.0,0.0,0.0,0.0,0.0,0.0,0.0,0.0,0.0,0.0,0.0,1.329,1.3396,1.329,1.3156,1.3109,1.2832,1.2578,1.2298,1.1794,1.1558,1.1604,1.1249,1.1239,1.1435,1.0657,1.0349,1.0435,0.9858,0.9673,0.9818,1.0141,1.0038,0.9757,1.0309,0.9825,0.8809,0.8777,0.8247,0.7484,0.0,0.0,0.0,0.0,0.0,0.0,0.0,0.0,0.0,0.0,0.0,0.0,0.0,1.365,1.346,1.3019,1.3048,0.0,0.0,0.0,0.0,0.0,0.0,0.0,1.2538,1.2413,1.2282,1.2107,1.2165,1.2424,1.288,1.3134,1.3951,1.5178,1.5163,1.5145,1.5126,1.5393,1.5221,1.4885,1.5641,1.5723,1.5467,1.6115,1.6035,1.5608,1.5745,1.5545,1.5172,1.4673,1.4564,1.4573,1.4141,1.451,1.5204,1.5604,1.5845,1.5925,1.5653,1.5374,1.4956,1.4077,1.3866,1.3756,1.3293,1.3138,1.3097,0.0,0.0,0.0,0.0,0.0,0.0,0.0,0.0,0.0,0.0,0.0,0.0,0.0,0.0,0.0,0.0,0.0,0.0,0.0,0.0,0.0,1.342,1.3266,1.3084,1.2856,1.2578,1.2274,1.1927,1.1728,1.1669,1.1709,1.1301,1.1251,1.1455,1.0667,1.0372,1.0473,1.0095,0.9936,0.9999,1.0117,1.0151,1.0091,1.0245,0.9849,0.9202,0.8924,0.8436,0.7889,0.0,0.0,0.0,0.0,0.0,0.0,0.0,0.0,0.0,1.435,0.0,0.0,0.0,0.0,1.3429,1.2948,1.3085,1.3119,1.2913,1.2906,0.0,0.0,0.0,0.0,1.2505,1.2419,1.2396,1.2438,1.2233,1.2483,1.3137,1.3099,1.3762,1.4977,1.5107,1.5303,1.5557,1.5871,1.5648,1.5147,1.5913,1.5966,1.5696,1.6516,1.6503,1.6056,0.0,0.0,0.0,1.502,1.5189,1.5607,1.468,1.4877,1.5602,1.6499,1.6514,1.6207,1.6012,1.5591,1.5081,1.4558,1.4102,1.3742,1.3657,0.0,1.3356,0.0,0.0,0.0,0.0,0.0,0.0,0.0,0.0,0.0,0.0,0.0,0.0,0.0,0.0,0.0,0.0,0.0,0.0,0.0,0.0,0.0,1.3088,1.2983,1.2801,1.252,1.2332,1.2026,1.1569,1.1578,1.1592,1.1655,1.1288,1.1261,1.1477,1.0855,1.0617,1.0694,1.04,1.0186,1.0121,1.0276,1.0313,1.0302,1.0288,0.9969,0.9454,0.9087,0.8598,0.8052,0.0,0.0,0.0,0.0,0.0,0.0,0.0,0.0,1.5186,1.5219,0.0,0.0,0.0,0.0,0.0,1.2913,1.3095,1.3105,1.2898,1.2889,1.2841,1.2726,1.2636,1.2575,1.251,1.2394,1.2587,1.3084,1.2766,1.3072,1.3984,1.3706,1.3984,1.4717,1.5101,1.57,1.6405,1.6549,1.6153,1.5492,1.5954,1.5733,1.5264,1.6759,1.7088,1.679,1.6954,1.7153,0.0,1.6393,0.0,0.0,1.553,1.5114,1.538,1.6391,1.6607,1.645,0.0,0.0,0.0,1.5358,0.0,0.0,1.4187,0.0,1.3497,0.0,0.0,0.0,0.0,0.0,0.0,0.0,0.0,0.0,0.0,0.0,0.0,0.0,0.0,0.0,0.0,0.0,0.0,0.0,0.0,1.2777,1.2441,1.2418,1.2324,1.2116,1.2101,1.1852,1.1301,1.1301,1.1345,1.1414,1.1269,1.132,1.1495,1.1227,1.11,1.107,1.0755,1.0419,1.0137,1.0609,1.0597,1.0329,1.0504,1.0136,0.9486,0.9332,0.8759,0.8017,0.0,0.0,0.0,0.0,0.0,0.0,1.4617,1.4488,1.463,0.0,0.0,0.0,1.5284,1.4208,1.3478,1.3489,1.3141,1.2822,1.262,1.2617,1.2766,1.312,1.2654,1.2608,1.3065,1.2991,1.2948,1.2955,1.2766,1.3125,1.3983,1.3175,1.3562,1.4923,1.483,1.5311,1.6217,1.6636,1.6654,1.6456,1.6906,1.7261,1.7497,1.7767,1.7922,0.0,0.0,1.7984,1.8034,0.0,1.7066,1.7845,1.6784,1.6633,1.6788,1.649,1.6656,1.67,1.5598,0.0,0.0,0.0,0.0,0.0,0.0,0.0,0.0,0.0,0.0,0.0,0.0,0.0,0.0,0.0,0.0,0.0,0.0,0.0,0.0,0.0,0.0,0.0,0.0,0.0,0.0,0.0,1.3551,1.3374,1.292,1.2527,1.226,1.2101,1.2002,1.1703,1.115,1.1352,1.1498,1.1598,1.1331,1.1451,1.1905,1.1361,1.0916,1.0574,1.0602,1.0344,0.9987,1.0466,1.0601,1.0504,1.0268,0.9881,0.9454,0.9081,0.8705,0.8327,0.0,0.0,0.0,0.0,0.0,1.4506,1.5248,1.5242,1.5445,0.0,0.0,0.0,1.5285,1.459,1.4138,1.4073,1.3593,1.32,1.2966,1.2701,1.2667,1.291,1.2748,1.2845,1.3204,1.3425,1.3462,1.3287,1.3109,1.3388,1.407,1.3359,1.3662,1.4816,1.514,1.5523,1.5977,1.6701,1.6869,1.6617,1.7136,1.7566,1.7943,1.8412,1.882,0.0,0.0,0.0,1.9048,1.7935,1.7825,0.0,0.0,1.7606,1.7352,1.706,1.697,1.6799,1.5961,1.5312,1.4656,0.0,0.0,0.0,1.2653,1.3021,0.0,0.0,0.0,0.0,0.0,0.0,0.0,0.0,0.0,0.0,0.0,0.0,0.0,0.0,0.0,0.0,0.0,0.0,0.0,1.3537,1.3411,1.3211,1.2831,1.2483,1.22,1.2026,1.209,1.1761,1.1023,1.1379,1.1444,1.1272,1.118,1.1293,1.1646,1.1279,1.0981,1.0774,1.0596,1.0421,1.0287,1.0456,1.0503,1.0434,0.9977,0.9652,0.9364,0.8958,0.8603,0.8344,0.0,0.0,1.4221,1.5102,1.5586,1.591,1.6039,1.6447,1.6741,0.0,1.6095,1.5452,1.4924,1.4863,1.4865,1.4885,1.4352,1.3949,1.3764,1.3125,1.2742,1.2687,1.3067,1.324,1.3183,1.37,1.3908,1.3784,1.3587,1.3769,1.4285,1.401,1.4138,1.4637,1.5688,1.6013,1.5813,1.6696,1.681,1.6433,1.6905,1.7238,1.7568,0.0,1.9571,1.9997,2.015,2.0205,2.0107,1.9482,1.8707,0.0,0.0,0.0,0.0,0.0,1.7414,1.6806,1.6694,1.5724,1.4767,0.0,0.0,0.0,1.3393,1.3441,1.3421,0.0,0.0,0.0,0.0,0.0,0.0,0.0,0.0,0.0,0.0,0.0,0.0,0.0,0.0,0.0,0.0,1.4517,1.3953,1.3317,1.2874,1.26,1.2457,1.2306,1.2129,1.1902,1.2169,1.1852,1.0896,1.1297,1.1244,1.074,1.0898,1.1024,1.1106,1.1138,1.1207,1.1217,1.0652,1.0523,1.0701,1.0431,1.0322,1.0238,0.9716,0.9396,0.9247,0.896,0.8609,0.8278,0.0,1.4879,1.49,1.5569,1.5282,1.528,1.6253,1.6089,1.5975,1.6345,1.6123,1.6105,1.6562,1.5759,1.5568,1.653,1.5158,1.4377,1.4709,1.4147,1.4016,1.4468,1.4077,1.3788,1.3662,1.3735,1.3744,1.3721,1.3511,1.3921,1.4842,1.4567,1.4681,1.5168,1.5716,1.6038,1.6192,1.6228,1.6511,1.6951,1.7057,1.7812,1.8893,1.909,1.9672,2.0504,2.0754,2.0876,2.0787,2.0026,1.9369,1.8912,0.0,0.0,0.0,1.8251,0.0,0.0,0.0,0.0,0.0,0.0,0.0,0.0,1.2898,1.3058,1.3226,0.0,0.0,0.0,0.0,0.0,0.0,0.0,0.0,0.0,0.0,0.0,0.0,0.0,0.0,0.0,0.0,1.3445,1.2977,1.304,1.2198,1.1992,1.2763,1.2168,1.1842,1.1893,1.1849,1.1471,1.0752,1.0843,1.0912,1.0953,1.086,1.113,1.1647,1.1563,1.1294,1.097,1.0559,1.0345,1.0211,0.988,0.9983,1.0238,0.9716,0.9332,0.9077,0.9119,0.8958,0.8818,1.5616,1.5509,1.5566,1.6276,1.5986,1.5817,1.6311,1.6396,1.6439,1.6538,1.6668,1.6908,1.7347,1.6804,1.6532,1.6864,1.6128,1.5575,1.5401,1.4835,1.4615,1.4892,1.4509,1.4275,1.4247,1.4482,1.4456,1.4157,1.425,1.4371,1.4569,1.4931,1.5131,1.524,1.6032,1.6494,1.6659,1.6791,1.7405,1.8236,1.7621,0.0,1.9074,1.9232,1.9868,2.0699,2.0661,2.0764,2.0852,2.052,1.9983,0.0,1.9409,1.9106,1.8726,0.0,1.7971,1.7137,0.0,0.0,0.0,1.4313,0.0,0.0,0.0,1.3372,1.3656,0.0,0.0,0.0,0.0,0.0,0.0,0.0,0.0,0.0,0.0,0.0,0.0,0.0,0.0,0.0,0.0,1.3441,1.3064,1.2736,1.226,1.2158,1.2529,1.2263,1.202,1.1819,1.1711,1.131,1.0624,1.0759,1.0821,1.074,1.0842,1.1085,1.1405,1.1383,1.1258,1.1076,1.0514,1.0335,1.0438,1.002,0.9971,1.011,0.9594,0.9332,0.9233,0.9203,0.9131,0.9063,1.6229,1.6189,1.6244,1.6847,1.6743,1.6548,1.6471,1.6868,1.712,1.6954,1.7211,1.755,1.7886,1.7627,1.7432,1.7434,1.7199,1.6881,1.6463,1.5752,1.5331,1.5272,1.5197,1.5048,1.4823,1.5242,1.5169,1.4577,1.4848,1.4744,1.4298,1.5263,1.5565,1.5325,1.6563,1.712,1.7133,1.7546,1.8383,1.9383,0.0,1.8368,1.9197,1.9646,2.0336,2.0995,2.0665,2.0642,2.0783,2.072,2.0346,1.9883,1.9853,1.9349,0.0,0.0,0.0,0.0,0.0,0.0,0.0,0.0,0.0,1.4284,0.0,0.0,0.0,0.0,0.0,0.0,0.0,0.0,0.0,0.0,0.0,0.0,0.0,0.0,0.0,0.0,0.0,0.0,0.0,1.3548,1.3173,1.2292,1.2288,1.2333,1.2286,1.2297,1.2126,1.1744,1.1567,1.115,1.0522,1.077,1.0801,1.0556,1.0892,1.11,1.1144,1.1145,1.122,1.1305,1.0523,1.0391,1.0748,1.0295,1.0078,1.0015,0.9568,0.9464,0.9536,0.941,0.9332,0.9331,1.7251,1.7093,1.6919,1.6841,1.6646,1.6624,1.6963,1.7013,1.7121,1.7391,1.7271,1.7534,1.856,1.7763,1.7938,1.9902,1.8293,1.7632,1.8665,1.7665,1.7018,1.7018,1.7057,1.6504,1.5271,1.5299,1.5052,1.451,1.4314,1.4455,1.4926,1.574,1.605,1.5964,1.7272,1.7724,1.746,1.77,1.8422,0.0,1.8811,1.9339,0.0,2.0807,2.1305,2.1832,2.1535,2.127,2.093,0.0,2.012,2.0303,0.0,2.0287,1.9783,2.0003,0.0,0.0,0.0,0.0,0.0,0.0,1.5546,0.0,0.0,0.0,1.3799,1.3372,0.0,0.0,0.0,0.0,0.0,0.0,0.0,0.0,0.0,0.0,0.0,0.0,0.0,0.0,0.0,0.0,1.2352,1.1655,1.146,1.1739,1.26,1.1996,1.1685,1.1868,1.1285,1.0835,1.0496,1.0592,1.0694,1.0759,1.1123,1.1434,1.1715,1.1409,1.1368,1.1507,1.0725,1.053,1.0748,1.0295,1.017,1.0238,0.9894,0.9726,0.9701,0.992,1.002,1.0102,1.7371,1.7186,1.7023,1.6943,1.6652,1.6602,1.7071,1.7401,1.7898,1.8779,1.8697,1.8852,1.9625,1.9339,1.9247,1.9655,1.9294,1.9055,0.0,1.8645,1.8412,1.839,1.7758,1.7213,1.6767,1.6094,1.5718,1.5593,1.4947,1.491,1.5471,1.5979,1.6212,1.6279,1.7463,1.8154,1.8392,1.8797,1.9563,0.0,0.0,0.0,0.0,2.0624,2.0762,2.1248,2.1813,2.1796,2.1426,0.0,2.0753,0.0,0.0,0.0,0.0,0.0,0.0,0.0,0.0,0.0,0.0,0.0,0.0,0.0,1.4722,0.0,1.436,0.0,0.0,0.0,0.0,0.0,0.0,0.0,0.0,0.0,0.0,0.0,0.0,0.0,0.0,0.0,0.0,0.0,0.0,0.0,0.0,1.1799,1.2162,1.1887,1.1702,1.166,1.1023,1.0721,1.0799,1.0728,1.0853,1.109,1.1325,1.139,1.1346,1.1437,1.1466,1.1397,1.0988,1.0878,1.0951,1.0546,1.0291,1.013,1.0128,1.0069,0.9986,0.9904,0.9967,1.0113,1.7314,1.7162,1.7052,1.6985,1.6826,1.6888,1.7471,1.8064,1.8789,1.9672,1.9747,1.9982,2.0614,2.0566,2.039,2.0168,2.0419,2.0415,0.0,1.9709,1.9573,1.9485,1.8622,1.8187,1.8235,1.7273,1.6774,1.6809,1.5894,1.5673,1.6156,1.6374,1.6571,1.6747,1.7832,1.8641,1.9172,1.9742,2.0561,2.1511,2.1535,2.152,2.1407,2.0862,2.0753,2.1041,2.1958,2.205,2.1672,2.1572,2.1295,0.0,2.034,0.0,0.0,0.0,0.0,0.0,1.8403,0.0,0.0,0.0,0.0,0.0,0.0,0.0,0.0,0.0,0.0,0.0,0.0,0.0,0.0,0.0,0.0,0.0,0.0,0.0,0.0,0.0,0.0,0.0,0.0,0.0,0.0,1.1882,1.1977,1.2013,1.2052,1.1918,1.1812,1.171,1.0947,1.0689,1.0995,1.0927,1.1035,1.1383,1.1561,1.1503,1.1232,1.1419,1.1428,1.1303,1.109,1.1028,1.0996,1.0719,1.0417,1.0116,1.0285,1.0311,1.0218,0.9954,0.9896,0.9945,1.7252,1.7203,1.7124,1.6946,1.7219,1.7696,1.835,1.9136,1.9606,1.9519,1.9852,2.0407,2.1262,2.0841,2.1126,2.2645,2.1796,2.1346,2.179,0.0,2.05,2.0175,2.0119,1.9863,1.9355,1.8747,1.8234,1.7851,1.6991,1.6732,1.7067,1.713,1.7278,1.7502,1.865,1.9274,1.9536,2.0125,2.1059,2.2011,2.1455,2.142,2.1752,0.0,2.2096,2.179,2.2163,0.0,0.0,2.1324,2.1369,0.0,0.0,0.0,0.0,0.0,0.0,0.0,0.0,0.0,0.0,1.7358,0.0,0.0,0.0,0.0,1.5194,0.0,0.0,0.0,0.0,0.0,1.4384,1.3993,0.0,0.0,0.0,0.0,0.0,0.0,0.0,0.0,0.0,0.0,0.0,1.1723,1.1884,1.2197,1.2647,1.2066,1.185,1.2172,1.1217,1.0793,1.0995,1.107,1.1261,1.1598,1.1913,1.1981,1.1756,1.1459,1.1303,1.1272,1.0958,1.0807,1.0807,1.0649,1.0528,1.0381,1.0261,1.0227,1.028,1.028,1.0084,0.9822,1.8081,1.8265,1.8232,1.7479,1.7702,1.8173,1.8799,1.9467,2.0147,2.0868,2.0828,2.1175,2.2279,2.2197,2.2255,0.0,0.0,2.2237,2.2375,2.166,0.0,0.0,0.0,2.0833,2.0909,1.9856,1.9124,1.8751,1.8098,1.7868,1.8027,1.8043,1.8266,1.8625,1.9027,1.9773,2.0789,0.0,0.0,0.0,0.0,2.184,2.2548,0.0,0.0,2.2205,2.2603,2.2639,0.0,2.2081,2.1906,2.1772,2.146,2.1117,2.084,2.0787,2.0468,0.0,0.0,0.0,1.9213,1.8042,0.0,0.0,0.0,0.0,0.0,0.0,0.0,0.0,0.0,0.0,1.4787,1.4247,1.4045,0.0,0.0,0.0,0.0,0.0,0.0,0.0,0.0,0.0,0.0,1.2,1.1968,1.1957,0.0,1.1794,1.1599,1.1414,1.1114,1.1081,1.134,1.1259,1.1457,1.192,1.2035,1.1872,1.1459,1.1584,1.1459,1.1167,1.1244,1.1081,1.0789,1.0697,1.0574,1.0413,1.0467,1.0386,1.0274,1.01,0.9904,0.9735,1.8543,1.8972,1.9042,1.8069,1.8229,1.8815,1.9794,0.0,2.0798,2.169,2.1716,0.0,2.2965,0.0,2.3038,0.0,2.3138,2.309,2.2993,2.251,0.0,2.2932,2.2183,2.1903,0.0,0.0,2.047,2.0112,1.9558,1.9199,1.9032,1.8965,1.9169,1.9559,1.9478,2.0206,2.1517,2.1632,2.1925,0.0,0.0,2.2403,0.0,0.0,2.2639,2.2525,0.0,2.2983,2.2875,2.2634,2.2407,2.2189,2.1832,2.1432,2.1064,2.1121,2.0852,2.0429,2.0174,2.0159,0.0,1.8357,1.8159,0.0,1.6645,0.0,0.0,0.0,0.0,0.0,0.0,0.0,0.0,1.4347,1.4184,1.3914,0.0,1.2524,0.0,0.0,0.0,0.0,0.0,0.0,1.1704,1.1927,1.1804,1.1716,0.0,0.0,1.1382,1.1223,1.1149,1.1235,1.1515,1.1487,1.1701,1.2096,1.2096,1.19,1.1563,1.1674,1.1653,1.1524,1.1512,1.1367,1.1096,1.0824,1.0715,1.0697,1.0538,1.0457,1.04,1.0142,0.9851,0.9591,1.8711,1.9325,1.9594,1.8703,1.8852,1.9631,2.1287,0.0,2.1518,0.0,2.2468,2.2935,2.3432,2.3276,2.347,2.4223,2.4102,2.3921,2.3804,2.3658,0.0,0.0,2.306,2.3037,2.298,0.0,0.0,0.0,0.0,2.0685,2.0113,1.9962,2.0056,2.0294,2.0077,2.063,2.1747,2.179,2.2204,2.2834,2.3196,2.302,2.2587,2.3234,2.3191,2.2834,2.2922,2.2915,2.2786,2.2959,2.2852,2.2627,2.2164,2.1915,2.1696,2.1476,2.1125,2.0768,2.0747,2.0397,1.9744,1.8457,0.0,0.0,0.0,0.0,1.7373,0.0,0.0,0.0,0.0,0.0,0.0,1.4301,1.3799,1.3195,0.0,0.0,0.0,0.0,0.0,0.0,0.0,1.1689,1.1727,1.1541,1.1459,1.1529,0.0,0.0,1.1215,1.1575,1.1379,1.1347,1.1543,1.1713,1.1887,1.2127,1.2112,1.2059,1.1989,1.1736,1.1876,1.2241,1.1748,1.1584,1.1649,1.0975,1.0953,1.1232,1.0588,1.0466,1.0653,1.0388,0.9936,0.9496,1.9836,2.0308,2.077,2.0778,2.0419,2.0584,0.0,0.0,0.0,0.0,2.318,2.3454,2.4401,2.4334,2.4509,2.5245,2.5189,0.0,0.0,0.0,0.0,2.5242,2.4408,2.3962,2.4107,2.3268,2.2567,2.2083,0.0,2.1833,2.1485,2.1443,2.1559,2.1733,2.1124,2.1445,2.2419,2.2096,2.2277,2.2801,2.2706,2.2742,0.0,0.0,2.29,2.2932,2.2825,2.2644,2.2541,2.2734,2.274,2.2681,2.2563,2.2371,2.2184,2.196,2.1726,2.1447,2.1104,2.1037,2.0814,1.9915,1.9684,1.9458,0.0,0.0,0.0,0.0,0.0,0.0,0.0,0.0,0.0,1.4805,1.4271,0.0,0.0,0.0,0.0,1.2004,0.0,0.0,0.0,1.214,1.1986,1.1748,1.1608,0.0,0.0,0.0,0.0,1.1528,1.1752,1.1983,1.2253,1.1752,1.1743,1.2243,1.2246,1.2124,1.1848,1.2138,1.2131,1.1847,1.1923,1.1764,1.1471,1.1235,1.1131,1.1036,1.0718,1.0623,1.0653,1.0289,1.0166,1.0148,2.0744,2.1172,2.1637,2.1969,0.0,0.0,2.2884,2.2799,0.0,2.408,2.4237,0.0,2.495,2.5078,2.5219,2.5564,2.5587,0.0,2.5788,0.0,0.0,2.6024,2.5294,2.4938,2.5029,2.4272,0.0,2.2941,0.0,2.2743,2.1955,2.2138,2.2189,2.2096,2.148,2.1698,2.2549,2.2416,2.2596,2.3028,2.2959,2.2986,0.0,2.3095,2.3012,2.2841,2.2732,2.2687,2.2665,2.2703,2.2703,2.2665,2.2478,2.2365,2.2214,2.2035,2.1883,2.1704,2.1312,2.1261,2.112,2.0621,2.0492,2.0298,1.9555,1.9412,1.9355,0.0,0.0,0.0,0.0,0.0,0.0,0.0,0.0,0.0,0.0,0.0,0.0,0.0,1.2447,0.0,0.0,0.0,1.1957,1.1704,0.0,0.0,0.0,0.0,0.0,1.1243,1.1747,1.205,1.2139,1.192,1.1971,1.2311,1.2309,1.2255,1.219,1.2403,1.2432,1.234,1.2067,1.1859,1.1693,1.1096,1.0901,1.0983,1.0919,1.0815,1.073,1.0479,1.0407,1.0376,2.1512,2.2026,2.24,2.2667,0.0,0.0,0.0,2.3707,0.0,2.472,0.0,2.5372,2.5357,2.5614,2.5779,2.5822,0.0,2.601,2.6025,2.6152,2.622,2.6173,2.5973,2.5877,2.5823,2.5284,2.4655,0.0,0.0,2.342,2.2172,2.2447,2.2392,2.2062,2.1634,2.1833,0.0,2.2759,2.3029,2.3343,2.3588,2.3482,2.3143,2.3531,2.3313,2.274,2.274,2.2815,2.2889,2.274,2.2703,2.2628,2.2252,2.2138,2.2101,2.1883,2.1807,2.1752,2.1533,2.1318,2.113,2.0879,2.0952,2.0871,1.998,2.0008,2.0139,1.9794,1.8929,1.8353,0.0,0.0,0.0,0.0,0.0,0.0,0.0,0.0,0.0,0.0,0.0,0.0,0.0,0.0,0.0,0.0,0.0,0.0,0.0,0.0,0.0,1.1103,1.1636,0.0,1.191,0.0,1.2311,1.2402,1.2375,1.2472,1.2614,1.26,1.2754,1.2991,1.2137,1.1915,1.2028,1.0901,1.0639,1.0972,1.0984,1.0887,1.0775,1.0775,1.064,1.0446,2.2329,2.2997,2.3452,2.3288,0.0,2.4436,2.4674,2.4144,2.4042,2.4908,2.493,2.5157,2.6003,2.617,2.653,2.7403,2.7493,0.0,0.0,0.0,0.0,2.7088,2.6637,2.6355,2.6352,2.5409,2.4783,0.0,0.0,0.0,2.3616,2.3197,2.3018,2.3025,2.2809,2.2722,2.2827,2.3095,0.0,2.3492,2.3644,2.364,2.3575,2.3662,2.3389,2.2964,2.2964,2.2777,2.2515,2.2665,2.2703,2.2665,2.2402,2.2327,2.2289,2.1921,2.1807,2.1787,2.1742,2.1683,2.1645,2.1544,2.1537,2.141,2.0812,2.0729,2.0621,2.0117,1.955,1.9111,1.8945,0.0,0.0,0.0,0.0,0.0,0.0,0.0,0.0,0.0,0.0,1.3118,0.0,0.0,0.0,0.0,0.0,0.0,0.0,0.0,0.0,0.0,1.211,0.0,0.0,0.0,1.2451,1.2881,1.288,1.2684,1.2307,1.2856,1.2799,1.2308,1.2229,1.2008,1.167,1.1338,1.1077,1.0785,1.0496,1.0443,1.055,1.055,1.064,1.0717,2.3053,2.3622,2.4074,2.3987,0.0,0.0,0.0,2.4813,2.4718,2.5145,2.5303,2.5667,2.6368,2.6709,2.7107,2.7727,2.7956,2.7993,2.7821,2.7806,2.7732,2.7628,2.7153,2.6913,2.6841,2.6164,2.5505,2.4945,0.0,0.0,2.3419,0.0,2.335,2.3046,2.3053,2.3093,0.0,0.0,0.0,2.3424,2.3902,2.3809,2.3372,2.3596,2.3427,2.3001,2.3001,2.2815,2.2553,2.2665,2.2703,2.2665,2.2478,2.2327,2.2214,2.1987,2.1883,2.1807,2.1921,2.1959,2.1973,2.2052,2.221,2.2146,2.1311,2.1335,2.1284,2.0445,1.9927,1.9457,1.8814,1.785,0.0,0.0,0.0,0.0,0.0,0.0,0.0,0.0,0.0,0.0,0.0,0.0,0.0,0.0,0.0,0.0,0.0,0.0,0.0,0.0,0.0,0.0,0.0,0.0,0.0,1.2998,1.2994,1.2833,1.2565,1.3093,1.3114,1.2633,1.2374,1.2069,1.1735,1.1258,1.0948,1.0775,1.0588,1.0528,1.0533,1.0533,1.0688,1.0878,2.3835,2.4391,2.4891,0.0,2.4941,0.0,2.5447,2.5471,2.5466,2.5539,2.5857,2.6273,2.6783,2.7234,2.7559,2.7846,2.81,2.8199,2.8041,2.7993,2.7914,2.7797,2.7557,2.7375,2.7209,2.6894,2.6322,0.0,0.0,0.0,0.0,0.0,0.0,0.0,0.0,0.0,0.0,0.0,2.3621,2.3618,2.4161,2.3939,2.3313,2.3705,2.3514,2.3001,2.3113,2.3038,2.2889,2.2852,2.2777,2.2665,2.2478,2.2289,2.2138,2.2101,2.1987,2.1921,2.2101,2.2138,2.2214,2.2402,2.274,2.2713,2.1659,2.1779,2.1777,2.0675,2.0202,1.9699,1.8823,1.8173,0.0,0.0,0.0,0.0,0.0,0.0,0.0,0.0,0.0,0.0,1.3398,0.0,0.0,0.0,0.0,1.1544,1.1614,1.1654,0.0,0.0,0.0,1.2563,1.2817,0.0,1.2717,0.0,1.2989,1.2927,1.2911,1.3273,1.331,1.3049,1.2469,1.2036,1.1664,1.0923,1.0693,1.0781,1.0764,1.0691,1.0612,1.0662,1.08,1.0986,0.0,0.0,0.0,0.0,0.0,0.0,2.6212,2.6017,2.5929,2.6262,2.6323,2.6675,2.7524,2.7654,2.7882,2.839,2.8447,2.8407,2.8187,2.8195,2.7925,2.7387,2.7683,2.7679,2.7285,2.7148,2.6999,0.0,0.0,0.0,0.0,0.0,0.0,0.0,0.0,0.0,0.0,2.3349,2.3756,2.4368,2.4212,2.4122,2.4115,2.4287,2.3771,2.3038,2.3409,2.353,2.3482,2.3298,2.3001,2.2665,2.2478,2.2402,2.2327,2.2138,2.2111,2.2101,2.2327,2.2365,2.2402,2.2628,2.2852,2.2787,2.1954,2.1941,2.1845,2.0871,2.0403,1.9957,1.9254,1.8924,1.8469,0.0,0.0,0.0,0.0,0.0,1.5411,1.5409,0.0,0.0,0.0,1.4397,0.0,0.0,1.2586,1.191,1.2034,1.1782,1.1865,1.2411,0.0,1.2794,1.3241,1.2933,1.3049,1.3619,1.3022,1.2805,1.2997,1.3179,1.3042,1.2742,1.2412,1.1853,1.1131,1.064,1.0583,1.0798,1.0666,1.0623,1.0628,1.0805,1.0899,1.095,0.0,0.0,0.0,0.0,0.0,0.0,0.0,2.6278,2.635,2.6754,2.6697,2.6895,2.7777,2.7987,2.8149,2.8368,2.8542,2.8458,2.798,2.811,2.7929,2.7343,2.7707,2.7695,2.7272,2.7312,2.7121,0.0,0.0,0.0,0.0,0.0,0.0,0.0,0.0,2.3317,2.3313,2.3468,2.3694,2.4,2.4246,2.4193,2.4031,2.4139,2.383,2.3372,2.3519,2.3519,2.3409,2.3335,2.3113,2.2852,2.2777,2.2515,2.2214,2.2252,2.2176,2.2101,2.2214,2.2402,2.2628,2.2815,2.3113,2.3194,2.2613,2.2466,2.2207,2.1295,2.0638,2.0151,1.9935,1.9312,1.8667,0.0,0.0,0.0,0.0,0.0,0.0,1.5468,0.0,1.5246,0.0,0.0,0.0,0.0,0.0,1.2452,1.2573,1.2178,1.2186,1.2668,0.0,1.2937,1.3642,1.3209,1.3155,1.3526,1.3163,1.2934,1.2754,1.2953,1.283,1.2458,1.2215,1.1781,1.1254,1.0966,1.0793,1.0787,1.0746,1.0822,1.1027,1.0922,1.1185,1.1567,2.6608,0.0,2.672,0.0,2.6691,2.6641,2.6544,2.6514,2.6725,2.7299,2.7196,2.7324,2.8045,2.8295,2.835,2.8306,2.8509,2.845,2.7977,2.8043,2.7893,2.7433,2.7707,0.0,2.7365,2.7452,2.7319,2.6891,2.6382,0.0,0.0,0.0,0.0,0.0,2.328,2.3293,2.332,2.3486,2.367,2.3847,2.4139,2.4111,2.3936,2.3982,2.3805,2.353,2.3641,2.3593,2.3482,2.3409,2.3335,2.3224,2.3001,2.2665,2.2365,2.2478,2.244,2.2365,2.2365,2.2628,2.2889,2.2964,2.3298,2.3399,2.268,2.258,2.2354,2.1528,2.0901,2.0534,2.0496,1.9856,1.9224,1.8807,0.0,0.0,0.0,0.0,0.0,0.0,1.5776,1.5654,1.545,1.54,0.0,0.0,0.0,0.0,1.2983,1.2582,0.0,0.0,0.0,0.0,0.0,1.3399,1.3252,1.3387,1.3085,1.2882,1.2709,1.29,1.2746,1.2298,1.215,1.1855,1.1484,1.1223,1.1037,1.0968,1.0938,1.1043,1.1232,1.1092,1.1366,1.1764,2.703,2.7257,2.7584,2.735,2.7065,2.6873,2.6828,2.6734,2.7015,2.7959,2.7926,2.7976,2.843,2.8498,2.844,2.8292,2.8293,2.8293,2.8281,2.8051,2.7833,0.0,0.0,2.7845,2.7702,2.7547,2.7615,2.7881,0.0,0.0,2.5839,0.0,2.3932,2.3571,2.3394,2.3298,2.3298,2.3309,2.3698,2.4256,2.3848,2.3848,2.399,2.4001,2.3692,2.3372,2.3751,2.3897,2.3861,2.3677,2.3714,2.3751,2.2964,2.2815,2.2964,2.274,2.2852,2.3001,2.3001,2.315,2.3261,2.3038,2.3298,2.3237,2.1916,2.2033,2.2184,2.1376,2.1305,2.1237,2.078,2.0796,2.0445,1.9103,0.0,0.0,0.0,0.0,0.0,1.7095,1.6614,1.644,1.6841,0.0,0.0,0.0,0.0,0.0,0.0,0.0,0.0,1.2989,1.3235,0.0,1.3801,1.3459,1.3335,1.3379,1.272,1.2563,1.29,1.3083,1.2863,1.2305,1.2305,1.2077,1.1669,1.126,1.1223,1.136,1.1266,1.1185,1.121,1.1256,1.1316,1.1313,2.7592,2.751,2.7558,2.7446,2.738,2.7151,2.6726,2.6793,2.7096,2.7561,2.7604,2.7901,2.8615,2.8816,2.8726,0.0,2.8497,2.8437,0.0,2.8043,2.792,2.7472,2.7575,2.7545,2.7353,2.7302,2.7342,2.7435,0.0,0.0,0.0,2.4319,2.3828,2.3587,2.3526,2.3482,2.3482,2.3482,2.3878,2.4405,2.3839,2.3988,2.4515,2.4098,2.3923,2.3934,2.4043,2.4116,2.408,2.3861,2.3861,2.3824,2.3446,2.3261,2.315,2.2964,2.2964,2.2964,2.2815,2.2927,2.3113,2.3187,2.3043,2.2831,2.2555,2.2103,2.1631,2.1264,2.1221,2.1302,2.1381,2.1115,2.0721,2.0226,1.9408,0.0,0.0,0.0,0.0,1.7973,1.7454,1.7103,0.0,1.7523,0.0,0.0,0.0,0.0,0.0,0.0,0.0,0.0,1.3485,0.0,1.3815,1.3291,1.3194,1.3542,1.3216,1.308,1.302,1.2887,1.2599,1.2298,1.2157,1.1966,1.1669,1.1409,1.126,1.1192,1.1133,1.125,1.1415,1.1479,1.1501,1.1517,2.7954,2.7716,2.7604,2.7749,2.7538,2.7289,2.7112,2.7048,2.719,2.7718,2.7629,2.7851,2.8812,2.8895,0.0,2.833,2.8472,2.8413,2.8027,2.807,2.7941,2.7522,2.7509,2.7441,2.7342,0.0,0.0,2.7301,2.6754,2.5945,2.4886,2.4465,2.4104,2.3824,2.3824,2.3824,2.3824,2.3897,2.4164,2.4454,2.4007,2.4127,2.4538,2.408,2.397,2.4091,2.4091,2.4091,2.4055,2.3861,2.3897,2.397,2.3787,2.3677,2.3556,2.3224,2.315,2.315,2.2889,2.2964,2.3113,2.3187,2.2885,2.2539,2.2394,2.1722,2.1147,2.1195,2.1253,2.1348,2.1635,2.154,2.1244,2.0843,2.0051,1.9405,1.9227,0.0,0.0,0.0,0.0,0.0,0.0,1.8256,0.0,0.0,0.0,0.0,0.0,0.0,0.0,1.4319,1.3887,0.0,1.392,1.3375,1.3219,1.3449,1.3374,1.3287,1.3203,1.3084,1.3019,1.301,1.2668,1.2397,1.2197,1.1788,1.1558,1.1409,1.126,1.1333,1.1457,1.155,1.1618,1.1599,2.8145,2.7897,0.0,0.0,2.7613,0.0,2.7815,2.7395,2.7331,2.8274,2.7902,2.7926,2.8969,2.8736,2.8464,2.8353,0.0,0.0,0.0,2.8074,2.7903,2.7898,2.7655,2.7522,2.7522,2.7301,2.7278,2.7424,2.6777,2.6016,2.5185,2.5001,2.4662,2.4236,2.4236,2.4236,2.4261,2.4454,2.4538,2.4526,2.4309,2.4236,2.4236,2.4007,2.3934,2.3934,2.3934,2.3934,2.3897,2.3714,2.3897,2.42,2.4007,2.408,2.4091,2.3482,2.3446,2.353,2.3113,2.315,2.3224,2.3075,2.2754,2.234,2.1531,2.0995,2.0765,2.1106,2.1273,2.1431,2.1655,2.1949,2.1894,2.1059,2.0614,2.0125,1.9392,0.0,0.0,0.0,0.0,0.0,0.0,1.8651,1.8703,0.0,0.0,0.0,0.0,0.0,1.4935,1.4848,1.4388,1.4129,1.4129,1.3702,1.3404,1.3294,1.3257,1.3354,1.3508,1.3677,1.3904,1.413,1.3638,1.3359,1.3102,1.2377,1.2072,1.1992,1.1564,1.1422,1.1427,1.1569,1.1611,1.1659,0.0,0.0,2.7894,2.8276,2.784,2.7543,2.7996,2.7451,2.7331,2.8274,2.8012,2.8101,2.9008,2.8882,2.8636,2.8488,2.8436,2.8436,2.8436,2.8239,2.8128,2.8139,2.7725,2.7522,2.7522,2.7301,2.7036,2.6754,2.618,2.5631,2.5173,2.4765,2.4606,2.4646,2.4646,2.4646,2.4646,2.4718,2.4814,2.4945,2.4562,2.4538,2.461,2.4273,2.4127,2.4127,2.4127,2.4127,2.4164,2.4236,2.4345,2.4465,2.4562,2.449,2.4309,2.3714,2.3556,2.3567,2.3298,2.315,2.3113,2.3187,2.2512,2.1697,2.1138,2.072,2.0572,2.0903,2.1126,2.1348,2.1635,2.1761,2.1683,2.1186,2.0715,2.0324,2.0076,1.9064,0.0,0.0,1.9201,1.8911,1.9118,1.9675,1.9558,0.0,0.0,0.0,0.0,1.7025,1.6323,1.5455,1.4948,1.4589,1.4317,1.363,1.3585,1.417,1.3985,1.4041,1.4301,1.4145,1.3995,1.3895,1.3825,1.3836,1.3853,1.2995,1.2601,1.2543,1.1714,1.1546,1.1698,1.1799,1.1844,1.194,2.8072,2.7987,2.8133,2.8773,2.8342,2.8169,2.8889,2.8315,2.8065,2.8789,2.8449,2.8398,2.9045,2.8922,2.8724,2.851,2.851,2.851,2.851,2.8391,2.8299,2.8219,2.7966,2.7725,2.7522,2.7412,2.6933,2.6117,2.6083,2.5708,2.5006,2.4996,2.4965,2.4957,2.4981,2.5016,2.5016,2.5135,2.5194,2.517,2.4933,2.4766,2.4646,2.4538,2.4418,2.4345,2.4345,2.4345,2.4345,2.4345,2.4418,2.449,2.4538,2.4574,2.449,2.3787,2.3593,2.3519,2.3224,2.315,2.3095,2.3021,2.265,2.2073,2.1183,2.0986,2.1016,2.1092,2.1255,2.1481,2.1751,2.1783,2.167,2.1267,2.0671,2.0216,2.0124,1.9388,0.0,1.9787,1.9641,1.9521,1.9703,2.004,1.9878,1.8935,0.0,0.0,1.7813,1.7446,1.6932,1.621,1.5616,1.5125,1.4784,1.4137,1.3954,1.4154,1.4416,1.4579,1.4603,1.4518,1.4511,1.4505,1.4417,1.432,1.4172,1.3542,1.3147,1.29,1.2241,1.2048,1.2178,1.2085,1.211,1.2189,2.83,2.8197,2.8385,2.9346,2.8882,2.8778,2.9918,2.9316,2.8895,2.9422,2.8988,2.8784,2.9108,2.8961,2.8764,2.8538,2.851,2.851,2.851,2.851,2.8431,2.8259,2.8219,2.8018,2.7563,2.7522,2.6938,2.5869,2.6293,2.5965,2.4955,2.5333,2.5396,2.5182,2.5324,2.5382,2.5382,2.5571,2.5535,2.5347,2.5347,2.504,2.4598,2.479,2.4706,2.4538,2.4538,2.4538,2.4526,2.4381,2.4454,2.4562,2.4406,2.4562,2.4646,2.3897,2.3641,2.3519,2.315,2.3187,2.3235,2.2814,2.2874,2.2781,2.1619,2.1554,2.1721,2.152,2.1609,2.1732,2.1909,2.1885,2.1691,2.1245,2.0628,2.0152,1.9972,0.0,1.9598,1.9665,1.9861,2.0054,2.0205,2.0161,1.9911,1.9479,1.9083,1.8607,0.0,1.7588,1.721,1.7012,1.6263,1.5691,1.5243,1.4914,1.4517,1.4045,1.4741,1.4969,1.4763,1.4892,1.5112,1.5338,1.509,1.4763,1.4409,1.402,1.3657,1.3267,1.279,1.2637,1.262,1.2439,1.2337,1.2403,2.8197,2.8112,2.8385,2.9346,2.8882,2.8778,2.9918,2.9316,2.8895,2.9422,2.9113,2.8975,2.933,2.9157,2.8961,2.8764,2.8618,2.851,2.851,2.851,2.8471,2.8471,2.8299,2.8099,2.7841,2.7615,2.7203,2.6635,2.6611,2.6271,2.5633,2.5589,2.555,2.5535,2.5723,2.5793,2.5793,2.5828,2.5723,2.5535,2.5535,2.5324,2.5016,2.4993,2.4862,2.4754,2.4754,2.4754,2.4754,2.4909,2.4969,2.5004,2.5099,2.4981,2.4718,2.4236,2.3861,2.3556,2.3335,2.3409,2.3508,2.3235,2.3059,2.2891,2.2663,2.2304,2.2047,2.2013,2.2013,2.2036,2.207,2.1745,2.1408,2.1141,2.0913,2.0599,2.013,0.0,2.032,2.0034,2.0193,2.0455,2.0741,2.0358,2.0117,2.0145,1.946,1.8808,1.8269,1.8008,1.7735,1.7436,1.6621,1.5961,1.5357,1.5495,1.5552,1.5566,1.511,1.515,1.5535,1.5391,1.5255,1.5166,1.5289,1.5184,1.4948,1.4423,1.4087,1.3777,1.2941,1.2758,1.2927,1.2719,1.2624,1.2693,2.8249,2.8052,2.8272,2.9311,2.9158,2.9226,3.0277,2.9952,2.9652,2.9808,2.958,2.9401,2.9394,2.9236,2.9,2.8843,2.8618,2.851,2.851,2.851,2.851,2.851,2.8431,2.8271,2.807,2.7559,2.7041,2.6516,2.6304,2.5932,2.5445,2.5551,2.5641,2.5758,2.5875,2.6002,2.6164,2.6084,2.6027,2.591,2.591,2.5688,2.5359,2.5465,2.5324,2.5087,2.5194,2.5099,2.4992,2.5147,2.5147,2.5087,2.5052,2.4981,2.4849,2.4225,2.3751,2.3446,2.3457,2.3593,2.3751,2.3641,2.3534,2.3322,2.2981,2.2685,2.2447,2.2366,2.2388,2.2364,2.2364,2.2116,2.1803,2.1505,2.1208,0.0,0.0,2.0687,2.0599,2.0368,2.0553,2.0741,2.0783,2.0254,1.9927,1.9885,1.9029,1.8337,1.7988,1.7716,1.7599,1.7652,1.6981,1.6396,1.5871,1.6055,1.6039,1.592,1.5678,1.5558,1.5526,1.5423,1.534,1.5284,1.534,1.534,1.5228,1.4711,1.4324,1.3986,1.3315,1.3051,1.304,1.2782,1.2687,1.2747,2.8404,2.8153,2.8283,2.9337,2.9345,2.9542,3.0423,3.0481,3.0368,3.0228,3.0011,2.9779,2.9586,2.9365,2.917,2.8949,2.8697,2.8578,2.8578,2.8578,2.8578,2.8578,2.851,2.8371,2.808,2.7621,2.7042,2.642,2.6242,2.5888,2.5409,2.5643,2.5793,2.591,2.5945,2.6141,2.6393,2.6258,2.6213,2.6213,2.6236,2.6015,2.5688,2.5828,2.5688,2.5382,2.5488,2.5359,2.5147,2.5276,2.5218,2.5087,2.4921,2.4921,2.4838,2.4152,2.3714,2.3446,2.3519,2.3714,2.3897,2.3897,2.3897,2.3759,2.3255,2.3033,2.2889,2.277,2.272,2.2694,2.2694,2.2462,2.2229,2.1976,0.0,0.0,0.0,2.1137,2.099,2.0662,2.0866,2.1002,2.0822,2.0263,1.9844,1.961,1.8765,1.8148,1.7801,1.7574,1.7616,1.7934,1.7487,1.7075,1.6639,1.675,1.6533,1.6085,1.6121,1.5873,1.5477,1.5416,1.5416,1.5401,1.5333,1.5291,1.5228,1.4817,1.4405,1.4046,1.361,1.3398,1.3222,1.2966,1.2833,1.2833,2.8688,2.8505,2.8585,2.9368,2.9226,2.9291,3.0025,3.0298,3.0444,3.0622,3.0318,3.0075,3.0037,2.9856,2.965,2.938,2.8988,2.8803,2.8803,2.8803,2.8803,2.8803,2.8618,2.8282,2.775,2.7973,2.771,2.686,2.7025,2.6833,2.6299,2.6179,2.6062,2.591,2.6097,2.6305,2.6487,2.627,2.6213,2.6201,2.6396,2.6258,2.5875,2.5898,2.5758,2.5571,2.5382,2.5312,2.5276,2.5312,2.5218,2.5123,2.5087,2.4849,2.449,2.4236,2.4007,2.3787,2.3409,2.3593,2.3897,2.3897,2.3897,2.3886,2.3852,2.3537,2.3243,2.3243,2.3095,2.2984,2.2984,2.2597,2.2302,2.2269,0.0,0.0,2.1607,2.1839,2.1759,2.1037,2.115,2.1225,2.1094,2.0648,2.0226,1.9869,1.9407,1.8824,1.8119,1.8217,1.8322,1.8364,1.8296,1.8113,1.7674,1.7641,1.7293,1.665,1.6278,1.5955,1.565,1.5458,1.5389,1.5389,1.5215,1.4999,1.4734,1.4524,1.4279,1.4088,1.3779,1.3652,1.3652,1.3434,1.3222,1.3052,2.8299,2.8009,2.8027,2.9012,2.9203,2.935,2.985,3.031,3.0442,3.0019,3.0163,3.0126,2.9781,2.9555,2.9504,2.9625,2.9068,2.8774,2.8976,2.9106,2.9067,2.8791,2.8855,2.8652,2.8222,2.8105,2.7917,2.7595,2.6991,2.6603,2.6396,2.6274,2.6097,2.591,2.6223,2.6418,2.644,2.6258,2.6213,2.6213,2.6154,2.605,2.591,2.591,2.5793,2.5618,2.5641,2.5465,2.5182,2.5276,2.5111,2.4885,2.4778,2.4634,2.4454,2.4116,2.4043,2.4018,2.3751,2.3861,2.4091,2.4091,2.397,2.3897,2.3897,2.3604,2.3298,2.3298,2.315,2.3001,2.3001,2.2859,2.2702,2.2555,0.0,2.2564,2.232,2.2382,2.2273,2.1734,2.1734,2.1697,2.1377,2.095,2.062,2.0363,1.9653,1.9027,1.8501,1.8555,1.8597,1.8599,1.8581,1.843,1.8184,1.7874,1.7578,1.7335,1.7025,1.6697,1.6319,1.6113,1.5955,1.5797,1.5465,1.5249,1.511,1.4734,1.4405,1.4088,1.3779,1.361,1.3483,1.3313,1.3185,1.3137,2.8208,2.7859,2.7816,2.8834,2.8954,2.9025,2.9317,2.9958,3.0206,2.9563,3.007,3.0199,2.949,2.9407,2.9452,2.9593,2.905,2.8834,2.916,2.9302,2.9302,2.9131,2.917,2.9005,2.8572,2.8405,2.809,2.7578,2.7017,2.6566,2.6225,2.62,2.6183,2.6156,2.6263,2.6367,2.6469,2.6228,2.6131,2.6179,2.6062,2.598,2.598,2.5828,2.5723,2.5606,2.5676,2.5442,2.5111,2.5218,2.5016,2.4682,2.4526,2.4454,2.4345,2.408,2.408,2.4164,2.4043,2.408,2.4189,2.4116,2.397,2.3787,2.3714,2.3446,2.3224,2.3224,2.3038,2.2927,2.3001,2.2889,2.2815,2.2815,2.2815,2.2777,2.2703,2.2665,2.2478,2.2063,2.2073,2.1921,2.1464,2.1199,2.0965,2.0609,1.9982,1.9447,1.9089,1.9017,1.9001,1.9091,1.889,1.8692,1.8482,1.8031,1.774,1.77,1.7546,1.7261,1.6812,1.6517,1.6319,1.6162,1.5548,1.5298,1.5276,1.4817,1.4412,1.4088,1.3913,1.3737,1.3568,1.3355,1.3264,1.3185,2.861,2.8264,2.8142,2.8863,2.8511,2.8179,2.8386,2.9223,2.972,2.953,3.0207,3.0332,2.9295,2.9577,2.9658,2.925,2.9038,2.905,2.9381,2.9419,2.9509,2.9792,2.956,2.917,2.8699,2.8977,2.8306,2.6721,2.7262,2.6967,2.5923,2.6097,2.6394,2.6697,2.6144,2.6205,2.6636,2.6131,2.6015,2.6213,2.6201,2.6201,2.6131,2.5758,2.5606,2.5571,2.5382,2.5218,2.5123,2.5123,2.4838,2.449,2.449,2.4345,2.42,2.42,2.42,2.42,2.42,2.42,2.4152,2.3934,2.3751,2.3556,2.3335,2.315,2.3001,2.3001,2.2852,2.2777,2.2964,2.2665,2.2515,2.2927,2.2665,2.2478,2.2665,2.2515,2.2252,2.1845,2.1949,2.1845,2.1244,2.1397,2.1253,2.0639,2.0419,2.0171,1.9907,1.9709,1.9703,1.9875,1.933,1.8922,1.87,1.8241,1.791,1.77,1.77,1.7448,1.6992,1.6591,1.6394,1.6353,1.5499,1.509,1.509,1.4608,1.4279,1.4088,1.4088,1.4088,1.4088,1.3786,1.3561,1.3355,2.7994,2.773,2.7674,2.8243,2.8343,2.846,2.8948,2.9604,2.9999,2.9938,3.0492,3.0468,2.9392,2.9699,2.9904,2.9658,2.9448,2.9428,2.9651,2.9702,2.9702,2.9792,2.9702,2.9459,2.8975,2.9381,2.9072,2.8052,2.8176,2.7829,2.7029,2.6696,2.6662,2.6807,2.6328,2.6323,2.6636,2.6131,2.5945,2.5945,2.5688,2.5571,2.5571,2.543,2.5382,2.5382,2.5312,2.5111,2.4897,2.4897,2.4634,2.4309,2.4309,2.4236,2.42,2.42,2.42,2.42,2.42,2.42,2.4152,2.3934,2.397,2.3934,2.3604,2.3335,2.315,2.3038,2.274,2.2515,2.2553,2.259,2.2553,2.2402,2.2628,2.2628,2.2138,2.2252,2.2214,2.1655,2.1655,2.154,2.1244,2.1244,2.1155,2.0843,2.0469,2.0165,1.9923,1.986,1.985,1.9893,1.9454,1.9192,1.9112,1.8402,1.8072,1.8193,1.8322,1.8161,1.7708,1.7587,1.718,1.6566,1.6046,1.5624,1.5276,1.4992,1.4657,1.4321,1.4321,1.4201,1.4088,1.3786,1.3652,1.361,2.7738,2.7687,2.7708,2.8023,2.8282,2.8425,2.8569,2.9274,2.9719,2.9555,3.0383,3.0579,2.9512,2.9833,3.0014,2.9818,2.9839,2.9896,3.0024,3.0049,3.0011,2.9934,2.9934,2.9779,2.9482,2.9779,2.9541,2.8762,2.8787,2.8325,2.7298,2.7037,2.693,2.6919,2.6422,2.6406,2.6636,2.6131,2.5945,2.598,2.5571,2.5465,2.5535,2.5347,2.5312,2.5312,2.5312,2.5147,2.4921,2.4825,2.4538,2.42,2.42,2.42,2.42,2.42,2.42,2.42,2.42,2.4152,2.4043,2.3824,2.3861,2.3824,2.3335,2.315,2.3001,2.2815,2.244,2.2176,2.2252,2.2176,2.2063,2.1987,2.2214,2.2252,2.1845,2.1987,2.1997,2.154,2.1502,2.1387,2.1118,2.1079,2.0964,2.0664,2.0575,2.0426,2.0197,2.0115,2.0172,2.0424,2.0033,1.9743,1.9666,1.8984,1.8623,1.8643,1.8692,1.8531,1.8282,1.7991,1.7578,1.7057,1.6484,1.5997,1.5658,1.5367,1.4908,1.4398,1.4482,1.437,1.4088,1.399,1.3857,1.3695,2.7708,2.7928,2.8045,2.8045,2.8204,2.8137,2.7646,2.8556,2.9188,2.8876,3.0089,3.0605,2.9649,2.9935,3.0066,2.9855,3.0186,3.0406,3.0406,3.0406,3.033,3.0113,3.0113,3.0152,3.0152,3.0152,2.9758,2.9025,2.9226,2.8583,2.7156,2.7347,2.7362,2.7171,2.6561,2.6468,2.6746,2.6156,2.6015,2.6131,2.5758,2.5688,2.5793,2.543,2.5312,2.5312,2.5312,2.5218,2.5087,2.4861,2.4538,2.4225,2.42,2.42,2.42,2.42,2.42,2.4164,2.4164,2.4007,2.3787,2.3593,2.3553,2.3438,2.2917,2.2767,2.2703,2.2557,2.2188,2.197,2.215,2.1709,2.1458,2.1793,2.1686,2.1578,2.1731,2.1731,2.1655,2.1464,2.1425,2.1272,2.0867,2.0867,2.0673,2.0303,2.065,2.0792,2.06,2.0435,2.0628,2.1189,2.0885,2.0608,2.0319,1.9947,1.9516,1.9016,1.8789,1.87,1.87,1.8031,1.774,1.7651,1.6845,1.636,1.6087,1.5658,1.5061,1.4482,1.465,1.4496,1.4166,1.4363,1.4153,1.3773,2.7546,2.7618,2.7618,2.7618,2.7686,2.7824,2.8137,2.8677,2.9227,2.9719,3.0366,3.0538,3.0019,3.0464,3.0583,3.009,3.0399,3.0571,3.0406,3.0406,3.0368,3.033,3.033,3.0419,3.0584,3.0419,3.0024,2.9387,3.0059,2.973,2.8487,2.8611,2.865,2.8591,2.7371,2.7084,2.7483,2.654,2.6062,2.5945,2.5688,2.5535,2.5418,2.5347,2.5312,2.5312,2.5312,2.5218,2.5052,2.4706,2.4502,2.4418,2.4236,2.42,2.42,2.42,2.408,2.397,2.397,2.3703,2.3372,2.3187,2.3285,2.3455,2.3493,2.3225,2.3101,2.3434,2.3163,2.2924,2.2964,2.2555,2.2228,2.2346,2.2007,2.1655,2.1359,2.132,2.1195,2.0838,2.0799,2.0683,2.045,2.0411,2.0294,2.002,2.042,2.0586,2.036,2.0759,2.1052,2.1196,2.1469,2.1501,2.1214,2.0963,2.0297,1.9158,1.8833,1.87,1.87,1.8402,1.8072,1.77,1.7343,1.6853,1.6312,1.6079,1.5541,1.4957,1.4999,1.4831,1.4573,1.4608,1.4566,1.4489,2.749,2.7644,2.7715,2.7542,2.7758,2.7941,2.7968,2.8551,2.9087,2.9265,2.985,3.0242,3.0127,3.0361,3.0568,3.0542,3.0704,3.0798,3.0672,3.0672,3.0634,3.0533,3.0533,3.0571,3.0698,3.0609,3.0392,3.0058,3.0467,3.0033,2.8795,2.8832,2.8595,2.8074,2.7339,2.7077,2.7222,2.6564,2.6245,2.6141,2.5863,2.5905,2.6053,2.5738,2.5693,2.5804,2.555,2.5288,2.5087,2.4873,2.4706,2.461,2.4418,2.4345,2.4309,2.4236,2.4043,2.3897,2.3787,2.3446,2.3113,2.2927,2.2993,2.3154,2.327,2.3285,2.3322,2.3494,2.3265,2.3001,2.2744,2.2379,2.1986,2.1783,2.1511,2.1401,2.1536,2.1605,2.1676,2.169,2.159,2.1341,2.0891,2.0962,2.0929,2.0719,2.1134,2.1294,2.105,2.1456,2.1681,2.168,2.2144,2.2181,2.1779,2.1716,2.1203,2.0307,1.9718,1.9357,1.9259,1.8885,1.8559,1.8297,1.7874,1.7383,1.6853,1.6533,1.5997,1.5374,1.5298,1.5041,1.4741,1.4824,1.4741,1.4566,2.757,2.7814,2.788,2.7615,2.7949,2.8072,2.7568,2.8278,2.875,2.8451,2.9201,2.9891,3.0137,3.0252,3.0551,3.1009,3.1061,3.1061,3.0986,3.0986,3.0911,3.0773,3.0736,3.0736,3.0736,3.0736,3.0736,3.0736,3.0736,3.0117,2.8903,2.8903,2.8292,2.7237,2.7135,2.6981,2.6784,2.6546,2.644,2.643,2.6084,2.6309,2.6749,2.6105,2.6039,2.6214,2.5728,2.5359,2.5111,2.5111,2.4957,2.4754,2.4574,2.4454,2.4345,2.42,2.397,2.3714,2.3519,2.3187,2.2815,2.2628,2.2688,2.2786,2.2869,2.3247,2.3532,2.3442,2.3237,2.2951,2.2562,2.21,2.166,2.1202,2.1114,2.1273,2.1749,2.2019,2.2281,2.2656,2.2482,2.2093,2.1537,2.1663,2.174,2.1678,2.1945,2.2087,2.2028,2.2201,2.2316,2.2382,2.2853,2.2889,2.2407,2.2414,2.215,2.1669,2.0946,2.0367,1.9994,1.9416,1.9099,1.8979,1.8504,1.8031,1.7523,1.7114,1.657,1.5899,1.5612,1.5208,1.4866,1.5082,1.4915,1.4573,2.7967,2.7768,2.7615,2.7736,2.7689,2.7581,2.7503,2.7915,2.827,2.8386,2.9201,2.9952,3.0342,3.0987,3.1368,3.1272,3.1272,3.1198,3.1024,3.0986,3.0986,3.0949,3.0949,3.0949,3.0949,3.0949,3.0949,3.0949,3.0949,3.0498,2.9665,2.9665,2.9147,2.8172,2.7726,2.7392,2.7178,2.6688,2.6396,2.6236,2.6166,2.6099,2.6009,2.5748,2.5654,2.5668,2.5442,2.5312,2.5276,2.5147,2.4957,2.4754,2.4574,2.4273,2.397,2.3934,2.3556,2.3113,2.3075,2.2665,2.2214,2.2176,2.238,2.2644,2.3038,2.3494,2.394,2.4281,2.4011,2.3774,2.366,2.3166,2.2584,2.2086,2.202,2.1917,2.159,2.1766,2.194,2.205,2.1814,2.1588,2.1505,2.1512,2.1614,2.1846,2.1924,2.2109,2.2471,2.2697,2.2884,2.307,2.3697,2.3877,2.358,2.34,2.301,2.2339,2.2172,2.1519,2.0499,1.9976,1.9503,1.9014,1.9444,1.9071,1.8154,1.8113,1.7603,1.6757,1.6236,1.5714,1.5305,1.5347,1.5305,1.53,2.8046,2.7769,2.7556,2.7756,2.7556,2.7403,2.749,2.7747,2.7911,2.7907,2.846,2.9015,2.9416,3.0436,3.1053,3.0967,3.1272,3.1447,3.1336,3.1336,3.1286,3.1161,3.1161,3.1099,3.0986,3.0986,3.0986,3.0986,3.0986,3.0649,2.9965,2.9639,2.9295,2.8856,2.8184,2.7787,2.7646,2.7569,2.7112,2.6399,2.6699,2.6928,2.7021,2.6249,2.6231,2.6553,2.5528,2.5182,2.5147,2.4992,2.479,2.461,2.4381,2.4116,2.3897,2.3787,2.3372,2.2964,2.2852,2.267,2.245,2.2345,2.2808,2.3256,2.3194,2.3546,2.3929,2.4136,2.3815,2.3412,2.3153,2.2775,2.242,2.2216,2.199,2.1978,2.2399,2.2453,2.2545,2.2781,2.2706,2.2568,2.2398,2.2388,2.2431,2.2568,2.2578,2.2673,2.2886,2.3202,2.3345,2.3163,2.3836,2.4024,2.3634,2.3547,2.3274,2.2818,2.2293,2.1607,2.0689,2.0404,1.9925,1.935,1.9379,1.9009,1.8329,1.8206,1.7788,1.721,1.6883,1.648,1.606,1.5764,1.5602,1.5532]}]]